HV584 / PH-HZG 7700 Squawk Report (20th of January, 2019)

Aircraft B738 Reg No. PH-HZG Age 19 years old
Model 737 Jet engines 2 First flight 15-02-00
Registered 19-04-17 Rollout N/A Delivered 25-03-00
Construction No. 28379 Line No. 0498 Series 8K2
ADSHEX 48414C Airline name Transavia Owner N/A
Airfield based Amsterdam-Schiphol~Noord-Holland~PH First tracked 2017-07-13 13:52:00

Flight history for PH-HZG

Route Flight No Date Playback
Salzburg (SZG) - Schiphol (AMS) HV6592 2019-02-17 22:03:00
Schiphol (AMS) - Salzburg (SZG) HV6591 2019-02-17 20:34:00
Ljubljana (LJU) - Schiphol (AMS) HV6820 2019-02-17 18:29:00
Schiphol (AMS) - Ljubljana (LJU) HV6819 2019-02-17 15:36:00
Alicante (ALC) - Schiphol (AMS) HV6144 2019-02-17 12:07:00
Schiphol (AMS) - Alicante (ALC) HV6143 2019-02-17 09:32:00
Eleftherios Venizelos Intl (ATH) - Schiphol (AMS) HV6866 2019-02-17 05:59:00
Schiphol (AMS) - Eleftherios Venizelos Intl (ATH) HV6865 2019-02-16 19:08:00
Sevilla (SVQ) - Schiphol (AMS) HV6730 2019-02-16 15:05:00
Schiphol (AMS) - Sevilla (SVQ) HV6729 2019-02-16 12:08:00
Malaga (AGP) - Schiphol (AMS) HV6110 2019-02-16 08:30:00
Schiphol (AMS) - Malaga (AGP) HV6109 2019-02-15 19:01:00
La Palma (SPC) - Schiphol (AMS) HV5642 2019-02-15 16:24:00
???? N/A 2019-02-15 10:43:00
Schiphol (AMS) - La Palma (SPC) HV5641 2019-02-15 09:38:00
Eleftherios Venizelos Intl (ATH) - Schiphol (AMS) HV6868 2019-02-15 04:57:00
Schiphol (AMS) - Eleftherios Venizelos Intl (ATH) HV6867 2019-02-14 17:42:00
Ben Gurion (TLV) - Schiphol (AMS) HV5802 2019-02-10 23:55:00
???? HV91 2019-02-10 18:00:00
Tegel (TXL) - Schiphol (AMS) KL1826 2019-02-09 16:03:00
Time Lat Lon Altitude Heading Speed Vertical Rate
2019-01-21 02:09:59 GMT 52.312008 4.765739 0 205 3 0
2019-01-21 02:09:55 GMT 52.312042 4.765653 0 205 6 0
2019-01-21 02:09:44 GMT 52.312168 4.765379 0 205 4 0
2019-01-21 02:09:31 GMT 52.312283 4.765091 0 205 4 0
2019-01-21 02:09:07 GMT 52.312328 4.764977 0 205 0 0
2019-01-21 02:09:02 GMT 52.312332 4.764986 0 205 0 0
2019-01-21 02:08:54 GMT 52.312328 4.764977 0 205 0 0
2019-01-21 02:08:43 GMT 52.312340 4.764957 0 205 7 0
2019-01-21 02:08:32 GMT 52.312531 4.764535 0 205 6 0
2019-01-21 02:08:23 GMT 52.312820 4.764690 0 210 12 0
2019-01-21 02:08:11 GMT 52.313461 4.765418 0 213 18 0
2019-01-21 02:08:02 GMT 52.314034 4.765967 0 213 17 0
2019-01-21 02:07:50 GMT 52.314777 4.766712 0 194 13 0
2019-01-21 02:07:47 GMT 52.314938 4.766752 0 182 13 0
2019-01-21 02:07:42 GMT 52.315186 4.766791 0 191 13 0
2019-01-21 02:07:32 GMT 52.315556 4.767439 0 264 13 0
2019-01-21 02:07:26 GMT 52.315590 4.768263 0 267 21 0
2019-01-21 02:07:22 GMT 52.315601 4.768733 0 267 25 0
2019-01-21 02:07:11 GMT 52.315681 4.770756 0 267 25 0
2019-01-21 02:07:01 GMT 52.315739 4.772606 0 267 25 0
2019-01-21 02:06:51 GMT 52.315681 4.774361 0 289 24 0
2019-01-21 02:06:40 GMT 52.314953 4.775875 0 317 25 0
2019-01-21 02:06:29 GMT 52.313839 4.776535 0 2 24 0
2019-01-21 02:06:21 GMT 52.312855 4.776440 0 2 28 0
2019-01-21 02:06:10 GMT 52.311459 4.776306 0 2 28 0
2019-01-21 02:05:42 GMT 52.308201 4.776012 0 5 25 0
2019-01-21 02:05:36 GMT 52.307453 4.775944 0 2 25 0
2019-01-21 02:05:29 GMT 52.306732 4.775887 0 2 25 0
2019-01-21 02:05:23 GMT 52.306072 4.775443 0 42 26 0
2019-01-21 02:05:19 GMT 52.305756 4.775031 0 53 24 0
2019-01-21 02:05:08 GMT 52.305012 4.773128 0 56 31 0
2019-01-21 02:05:03 GMT 52.304649 4.772167 0 59 31 0
2019-01-21 02:04:54 GMT 52.303989 4.770440 0 56 32 0
2019-01-21 02:04:44 GMT 52.303196 4.768282 0 59 33 0
2019-01-21 02:04:38 GMT 52.302822 4.767301 0 59 31 0
2019-01-21 02:04:26 GMT 52.301975 4.765065 0 56 28 0
2019-01-21 02:04:18 GMT 52.301453 4.763691 0 56 27 0
2019-01-21 02:03:57 GMT 52.300129 4.760437 0 53 24 0
2019-01-21 02:03:48 GMT 52.299450 4.759375 0 28 24 0
2019-01-21 02:03:22 GMT 52.296684 4.756622 0 50 26 0
2019-01-21 02:03:16 GMT 52.296227 4.755707 0 59 41 0
2019-01-21 02:03:02 GMT 52.293747 4.749076 0 59 105 0
2019-01-21 02:02:59 GMT 52.292908 4.746977 0 59 125 0
2019-01-21 02:02:54 GMT 52.291431 4.742916 0 59 140 0
2019-01-21 02:02:46 GMT 52.288467 4.735031 -225 58 137 -704
2019-01-21 02:02:43 GMT 52.287598 4.733276 -175 57 137 -704
2019-01-21 02:02:40 GMT 52.285675 4.728012 -125 58 137 -704
2019-01-21 02:02:34 GMT 52.284588 4.725298 -75 58 139 -704
2019-01-21 02:02:28 GMT 52.282681 4.719962 -25 58 140 -768
2019-01-21 02:02:25 GMT 52.281330 4.716352 50 58 139 -768
2019-01-21 02:02:22 GMT 52.279404 4.711838 100 57 136 -576
2019-01-21 02:02:19 GMT 52.279404 4.711838 125 58 140 -704
2019-01-21 02:02:16 GMT 52.278584 4.709133 150 57 140 -768
2019-01-21 02:02:13 GMT 52.277344 4.706421 200 57 140 -768
2019-01-21 02:02:10 GMT 52.276108 4.702835 275 57 141 -832
2019-01-21 02:02:07 GMT 52.275284 4.701004 275 57 140 -896
2019-01-21 02:02:04 GMT 52.274391 4.698303 1,100 58 135 -768
2019-01-21 02:02:01 GMT 52.273315 4.695587 475 57 139 -768
2019-01-21 02:01:58 GMT 52.272110 4.692889 400 57 139 -704
2019-01-21 02:01:55 GMT 52.270947 4.689357 450 58 138 -640
2019-01-21 02:01:52 GMT 52.270248 4.687631 500 58 138 -640
2019-01-21 02:01:49 GMT 52.269104 4.684906 525 58 137 -640
2019-01-21 02:01:46 GMT 52.268200 4.682295 550 57 137 -768
2019-01-21 02:01:43 GMT 52.266945 4.678763 600 57 136 -576
2019-01-21 02:01:39 GMT 52.265625 4.676132 625 57 135 -576
2019-01-21 02:01:36 GMT 52.263638 4.670837 700 58 136 -768
2019-01-21 02:01:33 GMT 52.263638 4.670837 700 58 136 -768
2019-01-21 02:01:30 GMT 52.262650 4.667358 725 57 139 -960
2019-01-21 02:01:27 GMT 52.260498 4.662018 825 57 138 -768
2019-01-21 02:01:21 GMT 52.259583 4.660263 900 57 139 -960
2019-01-21 02:01:18 GMT 52.258530 4.656677 925 58 140 -960
2019-01-21 02:01:15 GMT 52.256611 4.652161 1,125 57 142 -768
2019-01-21 02:01:12 GMT 52.256611 4.652161 1,025 57 142 -768
2019-01-21 02:01:09 GMT 52.255463 4.649353 1,050 57 142 -640
2019-01-21 02:01:06 GMT 52.253220 4.643936 1,150 57 147 -832
2019-01-21 02:01:02 GMT 52.253025 4.643058 1,125 56 146 -832
2019-01-21 02:00:58 GMT 52.251251 4.638367 1,200 57 149 -896
2019-01-21 02:00:55 GMT 52.250000 4.635367 1,225 57 150 -1024
2019-01-21 02:00:52 GMT 52.249100 4.632492 1,300 57 152 -960
2019-01-21 02:00:49 GMT 52.247955 4.630508 1,325 57 154 -832
2019-01-21 02:00:46 GMT 52.246971 4.627598 1,375 57 157 -704
2019-01-21 02:00:42 GMT 52.245296 4.623518 1,400 57 158 -832
2019-01-21 02:00:39 GMT 52.243996 4.619437 1,475 57 159 -960
2019-01-21 02:00:36 GMT 52.242970 4.617397 1,525 57 158 -896
2019-01-21 02:00:32 GMT 52.241341 4.613316 1,575 57 158 -896
2019-01-21 02:00:29 GMT 52.239059 4.607352 2,725 331 176 64
2019-01-21 02:00:23 GMT 52.237976 4.604340 1,675 57 158 -832
2019-01-21 02:00:20 GMT 52.236824 4.601231 1,800 57 158 -960
2019-01-21 02:00:17 GMT 52.235382 4.597151 1,775 57 158 -768
2019-01-21 02:00:13 GMT 52.233948 4.594116 1,850 57 158 -960
2019-01-21 02:00:10 GMT 52.232822 4.591187 1,900 57 158 -896
2019-01-21 02:00:07 GMT 52.231472 4.587027 1,950 57 158 -832
2019-01-21 02:00:04 GMT 52.229965 4.584045 2,000 57 158 -832
2019-01-21 02:00:00 GMT 52.228775 4.579926 2,075 57 159 -768
2019-01-21 01:59:57 GMT 52.227467 4.576983 2,100 57 159 -768
2019-01-21 01:59:54 GMT 52.226303 4.573898 2,125 57 159 -832
2019-01-21 01:59:51 GMT 52.225094 4.570783 2,175 56 161 -896
2019-01-21 01:59:47 GMT 52.223419 4.566781 2,200 56 162 -832
2019-01-21 01:59:44 GMT 52.222626 4.564584 2,250 57 163 -896
2019-01-21 01:59:41 GMT 52.221222 4.561386 2,325 58 166 -896
2019-01-21 01:59:38 GMT 52.219925 4.558228 2,375 58 168 -960
2019-01-21 01:59:35 GMT 52.218658 4.554901 2,425 58 170 -960
2019-01-21 01:59:32 GMT 52.217285 4.550552 2,575 55 173 -960
2019-01-21 01:59:29 GMT 52.215832 4.547320 2,525 53 175 -1024
2019-01-21 01:59:26 GMT 52.214806 4.545279 2,550 51 176 -896
2019-01-21 01:59:23 GMT 52.212982 4.542160 2,625 47 179 -768
2019-01-21 01:59:20 GMT 52.211197 4.538269 2,725 45 179 -640
2019-01-21 01:59:17 GMT 52.209503 4.536285 2,700 42 179 -640
2019-01-21 01:59:14 GMT 52.207443 4.532700 2,700 42 179 -512
2019-01-21 01:59:11 GMT 52.205841 4.530945 2,725 40 178 -128
2019-01-21 01:59:08 GMT 52.203865 4.528486 2,725 33 177 -64
2019-01-21 01:59:05 GMT 52.201813 4.526291 2,725 31 176 0
2019-01-21 01:59:01 GMT 52.198837 4.522757 2,725 31 177 0
2019-01-21 01:58:57 GMT 52.193390 4.517975 2,725 31 177 64
2019-01-21 01:58:54 GMT 52.193390 4.517975 2,725 31 177 0
2019-01-21 01:58:51 GMT 52.191856 4.515773 2,725 31 177 0
2019-01-21 01:58:48 GMT 52.189728 4.513702 2,725 31 177 0
2019-01-21 01:58:45 GMT 52.187759 4.512253 2,725 31 177 0
2019-01-21 01:58:42 GMT 52.185711 4.510202 2,725 31 177 0
2019-01-21 01:58:39 GMT 52.183475 4.507377 2,725 31 177 0
2019-01-21 01:58:36 GMT 52.181396 4.505310 2,725 31 177 0
2019-01-21 01:58:32 GMT 52.178776 4.503217 2,725 31 177 0
2019-01-21 01:58:29 GMT 52.176399 4.500392 2,725 31 176 0
2019-01-21 01:58:26 GMT 52.174301 4.498291 2,725 31 176 128
2019-01-21 01:58:23 GMT 52.170254 4.495056 2,725 29 176 0
2019-01-21 01:58:20 GMT 52.170254 4.495056 2,725 25 175 -64
2019-01-21 01:58:17 GMT 52.168259 4.493256 2,725 21 175 0
2019-01-21 01:58:14 GMT 52.165878 4.491917 2,725 18 175 0
2019-01-21 01:58:11 GMT 52.163544 4.491043 2,725 10 174 0
2019-01-21 01:58:08 GMT 52.160522 4.490814 2,725 354 175 -64
2019-01-21 01:58:05 GMT 52.158829 4.491119 2,725 351 175 -64
2019-01-21 01:58:01 GMT 52.155357 4.492937 2,725 333 176 64
2019-01-21 01:57:58 GMT 52.153152 4.494858 2,725 326 176 0
2019-01-21 01:57:55 GMT 52.151367 4.496307 2,875 319 190 -1088
2019-01-21 01:57:52 GMT 52.149170 4.499664 2,725 319 179 0
2019-01-21 01:57:49 GMT 52.147259 4.502354 2,725 319 179 0
2019-01-21 01:57:46 GMT 52.145096 4.505081 2,725 319 180 0
2019-01-21 01:57:43 GMT 52.143814 4.506836 2,725 319 182 128
2019-01-21 01:57:40 GMT 52.141617 4.510498 2,725 319 184 -64
2019-01-21 01:57:37 GMT 52.139393 4.513341 2,750 319 189 -448
2019-01-21 01:57:34 GMT 52.137810 4.515224 2,775 319 190 -1088
2019-01-21 01:57:31 GMT 52.132500 4.522914 2,850 319 192 -1152
2019-01-21 01:57:28 GMT 52.132500 4.522914 2,900 319 192 -960
2019-01-21 01:57:25 GMT 52.132004 4.523773 2,925 319 193 -832
2019-01-21 01:57:22 GMT 52.129669 4.527664 2,950 319 193 -960
2019-01-21 01:57:19 GMT 52.128250 4.529648 2,975 319 194 -1152
2019-01-21 01:57:16 GMT 52.125843 4.532488 3,100 319 194 -960
2019-01-21 01:57:13 GMT 52.124176 4.535446 3,150 319 195 -768
2019-01-21 01:57:10 GMT 52.122120 4.538374 3,275 269 208 -768
2019-01-21 01:57:07 GMT 52.119282 4.542376 3,200 319 198 -576
2019-01-21 01:57:04 GMT 52.117744 4.544416 3,225 319 198 -704
2019-01-21 01:57:01 GMT 52.115044 4.548418 3,275 318 199 -832
2019-01-21 01:56:58 GMT 52.113926 4.550459 3,325 317 199 -960
2019-01-21 01:56:55 GMT 52.111633 4.553680 3,375 311 200 -1088
2019-01-21 01:56:52 GMT 52.109528 4.558411 3,525 297 203 -896
2019-01-21 01:56:49 GMT 52.108429 4.560928 3,525 294 203 -960
2019-01-21 01:56:46 GMT 52.107224 4.565133 3,575 287 204 -960
2019-01-21 01:56:43 GMT 52.106277 4.569397 3,625 275 206 -960
2019-01-21 01:56:40 GMT 52.105686 4.574079 3,650 275 206 -960
2019-01-21 01:56:37 GMT 52.105408 4.580279 3,700 270 208 -832
2019-01-21 01:56:33 GMT 52.105499 4.586478 3,750 268 209 -640
2019-01-21 01:56:29 GMT 52.105637 4.591141 3,775 268 210 -640
2019-01-21 01:56:25 GMT 52.105820 4.597549 3,825 268 212 -512
2019-01-21 01:56:22 GMT 52.106003 4.603958 3,875 268 214 -512
2019-01-21 01:56:19 GMT 52.106094 4.607162 3,900 268 217 -576
2019-01-21 01:56:16 GMT 52.106247 4.613630 3,900 268 215 -704
2019-01-21 01:56:13 GMT 52.106323 4.616928 3,950 268 216 -768
2019-01-21 01:56:09 GMT 52.106525 4.625087 4,000 268 217 -576
2019-01-21 01:56:06 GMT 52.106644 4.629898 4,025 268 218 -384
2019-01-21 01:56:03 GMT 52.106758 4.634975 4,050 268 220 -320
2019-01-21 01:56:00 GMT 52.106918 4.639893 4,075 268 223 -512
2019-01-21 01:55:57 GMT 52.106991 4.644863 4,100 268 224 -512
2019-01-21 01:55:54 GMT 52.107101 4.650040 4,150 269 228 -320
2019-01-21 01:55:50 GMT 52.107224 4.655221 4,150 269 228 -320
2019-01-21 01:55:47 GMT 52.107365 4.661970 4,175 269 230 -384
2019-01-21 01:55:43 GMT 52.107468 4.667282 4,175 269 232 -384
2019-01-21 01:55:40 GMT 52.107559 4.674149 4,200 269 233 -384
2019-01-21 01:55:37 GMT 52.107643 4.679470 4,250 269 238 -576
2019-01-21 01:55:34 GMT 52.107742 4.684830 4,275 269 238 -576
2019-01-21 01:55:31 GMT 52.107834 4.688492 4,300 269 239 -640
2019-01-21 01:55:28 GMT 52.107876 4.693909 4,300 269 240 -768
2019-01-21 01:55:25 GMT 52.107967 4.701128 4,650 270 242 -1152
2019-01-21 01:55:22 GMT 52.108013 4.704738 4,950 270 244 -1472
2019-01-21 01:55:19 GMT 52.108063 4.711879 4,475 270 242 -1152
2019-01-21 01:55:15 GMT 52.108154 4.719177 4,575 270 242 -1152
2019-01-21 01:55:12 GMT 52.108200 4.724808 4,625 270 243 -960
2019-01-21 01:55:09 GMT 52.108246 4.728394 4,675 270 243 -960
2019-01-21 01:55:06 GMT 52.108337 4.739304 4,725 270 244 -1088
2019-01-21 01:55:03 GMT 52.108337 4.739304 4,775 270 244 -1408
2019-01-21 01:55:00 GMT 52.108383 4.746628 4,875 270 243 -1408
2019-01-21 01:54:57 GMT 52.108429 4.750443 4,875 270 243 -1408
2019-01-21 01:54:54 GMT 52.108479 4.755824 4,950 270 244 -1216
2019-01-21 01:54:51 GMT 52.108574 4.763123 5,050 270 244 -1216
2019-01-21 01:54:48 GMT 52.108612 4.768753 5,125 270 244 -1216
2019-01-21 01:54:45 GMT 52.108665 4.774266 5,175 270 244 -1152
2019-01-21 01:54:42 GMT 52.108711 4.777797 5,200 270 245 -1152
2019-01-21 01:54:39 GMT 52.108749 4.783325 5,250 270 245 -1152
2019-01-21 01:54:36 GMT 52.108852 4.792550 5,375 270 246 -1152
2019-01-21 01:54:33 GMT 52.108887 4.794540 5,400 269 246 -1152
2019-01-21 01:54:30 GMT 52.108978 4.801865 5,475 269 247 -1216
2019-01-21 01:54:27 GMT 52.109039 4.807460 5,525 269 247 -1216
2019-01-21 01:54:24 GMT 52.109116 4.812927 5,575 269 247 -1216
2019-01-21 01:54:21 GMT 52.109226 4.818525 5,650 269 247 -1216
2019-01-21 01:54:18 GMT 52.109409 4.829668 5,725 269 247 -1216
2019-01-21 01:54:15 GMT 52.109409 4.829668 5,775 269 247 -1216
2019-01-21 01:54:12 GMT 52.109550 4.833514 6,000 268 249 -1216
2019-01-21 01:54:09 GMT 52.109665 4.839096 5,900 269 248 -1216
2019-01-21 01:54:06 GMT 52.109783 4.844578 5,950 268 248 -1152
2019-01-21 01:54:03 GMT 52.109924 4.852112 6,075 268 249 -1216
2019-01-21 01:54:00 GMT 52.110016 4.855800 6,100 268 249 -1216
2019-01-21 01:53:57 GMT 52.110203 4.863334 6,150 268 249 -1216
2019-01-21 01:53:54 GMT 52.110306 4.868851 6,175 268 249 -1216
2019-01-21 01:53:51 GMT 52.110481 4.874634 6,275 268 250 -1216
2019-01-21 01:53:48 GMT 52.110622 4.878322 6,375 268 250 -1216
2019-01-21 01:53:45 GMT 52.110809 4.885934 6,400 268 250 -1216
2019-01-21 01:53:42 GMT 52.110947 4.889544 6,425 268 250 -1216
2019-01-21 01:53:39 GMT 52.111267 4.902802 6,675 268 252 -1216
2019-01-21 01:53:36 GMT 52.111267 4.902802 6,600 268 251 -1216
2019-01-21 01:53:33 GMT 52.111412 4.908378 6,650 268 251 -1216
2019-01-21 01:53:30 GMT 52.111507 4.912223 6,725 268 251 -1216
2019-01-21 01:53:27 GMT 52.111645 4.919678 6,725 268 251 -1216
2019-01-21 01:53:24 GMT 52.111816 4.925537 6,875 268 252 -1216
2019-01-21 01:53:21 GMT 52.111908 4.929276 6,875 268 252 -1216
2019-01-21 01:53:18 GMT 52.112064 4.934980 6,925 268 252 -1216
2019-01-21 01:53:15 GMT 52.112183 4.940567 7,025 268 253 -1152
2019-01-21 01:53:12 GMT 52.112343 4.946359 7,100 268 253 -1216
2019-01-21 01:53:09 GMT 52.112484 4.953814 7,150 268 253 -1216
2019-01-21 01:53:06 GMT 52.112595 4.959564 7,200 268 253 -1216
2019-01-21 01:53:03 GMT 52.112762 4.965349 7,300 268 254 -1216
2019-01-21 01:53:00 GMT 52.112915 4.971008 7,350 268 254 -1216
2019-01-21 01:52:57 GMT 52.112995 4.976728 7,400 268 254 -1216
2019-01-21 01:52:54 GMT 52.113144 4.982529 7,450 268 255 -1216
2019-01-21 01:52:51 GMT 52.113419 4.994049 7,550 268 255 -1216
2019-01-21 01:52:48 GMT 52.113419 4.994049 7,600 268 256 -1216
2019-01-21 01:52:45 GMT 52.113552 4.999878 7,650 269 256 -1280
2019-01-21 01:52:42 GMT 52.113647 5.005569 7,700 269 256 -1280
2019-01-21 01:52:39 GMT 52.113789 5.011414 7,725 269 256 -1280
2019-01-21 01:52:36 GMT 52.113880 5.015259 7,875 269 256 -1280
2019-01-21 01:52:33 GMT 52.114014 5.020981 7,900 269 256 -1280
2019-01-21 01:52:30 GMT 52.114105 5.028687 7,950 269 256 -1216
2019-01-21 01:52:27 GMT 52.114204 5.034406 8,000 269 256 -1216
2019-01-21 01:52:24 GMT 52.114346 5.038252 8,100 269 257 -1216
2019-01-21 01:52:21 GMT 52.114426 5.044098 8,175 269 257 -1216
2019-01-21 01:52:18 GMT 52.114563 5.051880 8,200 269 257 -1216
2019-01-21 01:52:15 GMT 52.114655 5.055618 8,250 269 257 -1216
2019-01-21 01:52:12 GMT 52.114792 5.063553 8,700 269 260 -1216
2019-01-21 01:52:09 GMT 52.114902 5.069249 8,400 269 258 -1280
2019-01-21 01:52:06 GMT 52.114998 5.073172 8,500 269 258 -1216
2019-01-21 01:52:03 GMT 52.115112 5.079041 8,525 269 259 -1280
2019-01-21 01:52:00 GMT 52.115185 5.084943 8,600 269 259 -1216
2019-01-21 01:51:57 GMT 52.115322 5.092634 8,675 269 260 -1216
2019-01-21 01:51:54 GMT 52.115433 5.098495 8,750 269 260 -1280
2019-01-21 01:51:51 GMT 52.115524 5.102386 8,975 269 261 -1280
2019-01-21 01:51:48 GMT 52.115616 5.110245 8,875 268 264 -1280
2019-01-21 01:51:45 GMT 52.115707 5.114136 8,900 269 261 -1216
2019-01-21 01:51:42 GMT 52.115891 5.121994 9,025 269 262 -1152
2019-01-21 01:51:39 GMT 52.115982 5.125885 9,175 269 262 -1152
2019-01-21 01:51:36 GMT 52.116116 5.131714 9,100 269 262 -1152
2019-01-21 01:51:33 GMT 52.116394 5.143720 9,250 268 263 -1216
2019-01-21 01:51:30 GMT 52.116394 5.143720 9,300 268 263 -1216
2019-01-21 01:51:27 GMT 52.116581 5.151646 9,300 268 264 -1280
2019-01-21 01:51:24 GMT 52.116673 5.155648 9,325 268 264 -1280
2019-01-21 01:51:21 GMT 52.116905 5.163417 9,425 268 264 -1280
2019-01-21 01:51:18 GMT 52.117138 5.171500 9,550 267 266 -1280
2019-01-21 01:51:15 GMT 52.117218 5.173569 9,550 267 265 -1280
2019-01-21 01:51:12 GMT 52.117447 5.181580 9,600 267 266 -1280
2019-01-21 01:51:09 GMT 52.117653 5.187509 9,700 267 266 -1280
2019-01-21 01:51:06 GMT 52.117859 5.193558 9,725 267 266 -1280
2019-01-21 01:51:03 GMT 52.118069 5.199437 9,775 267 266 -1280
2019-01-21 01:51:00 GMT 52.118534 5.211600 9,900 267 267 -1088
2019-01-21 01:50:57 GMT 52.118534 5.211600 9,950 267 267 -1024
2019-01-21 01:50:54 GMT 52.118721 5.215602 9,975 267 269 -640
2019-01-21 01:50:51 GMT 52.119141 5.229797 10,025 267 273 -512
2019-01-21 01:50:48 GMT 52.119141 5.229797 10,075 267 275 -512
2019-01-21 01:50:45 GMT 52.119373 5.234044 10,075 267 275 -512
2019-01-21 01:50:42 GMT 52.119598 5.242310 10,075 267 276 -448
2019-01-21 01:50:39 GMT 52.119827 5.246429 10,125 267 279 -384
2019-01-21 01:50:36 GMT 52.120117 5.256958 10,150 267 283 -320
2019-01-21 01:50:33 GMT 52.120258 5.261196 10,150 267 284 -256
2019-01-21 01:50:30 GMT 52.120445 5.265590 10,175 267 286 -320
2019-01-21 01:50:27 GMT 52.120651 5.271835 10,175 267 289 -640
2019-01-21 01:50:24 GMT 52.121002 5.282776 10,250 267 291 -1408
2019-01-21 01:50:21 GMT 52.121189 5.287170 10,300 267 291 -1664
2019-01-21 01:50:18 GMT 52.121330 5.291565 10,650 267 291 -1664
2019-01-21 01:50:15 GMT 52.121655 5.300276 10,475 267 291 -1536
2019-01-21 01:50:12 GMT 52.121887 5.306931 10,525 267 291 -1536
2019-01-21 01:50:09 GMT 52.122166 5.313381 10,625 267 292 -1472
2019-01-21 01:50:06 GMT 52.122437 5.319977 10,700 267 292 -1472
2019-01-21 01:50:03 GMT 52.122665 5.324554 10,800 266 293 -1472
2019-01-21 01:50:00 GMT 52.123260 5.337677 10,875 266 293 -1472
2019-01-21 01:49:57 GMT 52.123260 5.337677 10,925 266 294 -1472
2019-01-21 01:49:54 GMT 52.123562 5.344299 11,000 266 294 -1472
2019-01-21 01:49:51 GMT 52.123856 5.350952 11,050 266 294 -1536
2019-01-21 01:49:48 GMT 52.124168 5.357718 11,200 266 295 -1472
2019-01-21 01:49:45 GMT 52.124493 5.366507 11,250 267 296 -1472
2019-01-21 01:49:42 GMT 52.124817 5.373077 11,300 267 296 -1472
2019-01-21 01:49:39 GMT 52.125000 5.377655 11,900 267 300 -1472
2019-01-21 01:49:36 GMT 52.125366 5.386658 11,675 267 297 -1536
2019-01-21 01:49:33 GMT 52.125610 5.393267 11,675 267 298 -1536
2019-01-21 01:49:30 GMT 52.125843 5.397818 11,625 267 298 -1536
2019-01-21 01:49:27 GMT 52.126122 5.406607 11,725 267 299 -1536
2019-01-21 01:49:24 GMT 52.126419 5.413437 11,900 267 299 -1536
2019-01-21 01:49:21 GMT 52.126728 5.420183 11,875 267 300 -1472
2019-01-21 01:49:18 GMT 52.126923 5.427017 11,925 267 300 -1536
2019-01-21 01:49:15 GMT 52.127193 5.433681 12,100 267 301 -1472
2019-01-21 01:49:12 GMT 52.127472 5.440521 12,100 267 302 -1472
2019-01-21 01:49:09 GMT 52.127701 5.445023 12,175 267 302 -1472
2019-01-21 01:49:06 GMT 52.127937 5.451887 12,250 267 302 -1472
2019-01-21 01:49:03 GMT 52.128265 5.461068 12,325 267 303 -1472
2019-01-21 01:49:00 GMT 52.128525 5.467758 12,450 267 304 -1536
2019-01-21 01:48:57 GMT 52.128822 5.474644 12,500 267 304 -1536
2019-01-21 01:48:54 GMT 52.129028 5.481491 12,575 267 305 -1536
2019-01-21 01:48:51 GMT 52.129288 5.488456 12,625 267 305 -1536
2019-01-21 01:48:48 GMT 52.129578 5.495300 12,850 267 306 -1536
2019-01-21 01:48:45 GMT 52.129848 5.502267 12,825 267 306 -1536
2019-01-21 01:48:42 GMT 52.130081 5.509186 12,850 267 306 -1600
2019-01-21 01:48:39 GMT 52.130501 5.520630 13,075 267 306 -1536
2019-01-21 01:48:36 GMT 52.130501 5.520630 13,100 267 306 -1536
2019-01-21 01:48:33 GMT 52.130722 5.527649 13,125 267 306 -1536
2019-01-21 01:48:30 GMT 52.130966 5.534520 13,200 267 305 -1536
2019-01-21 01:48:27 GMT 52.131500 5.550537 13,350 267 304 -1472
2019-01-21 01:48:24 GMT 52.131500 5.550537 13,425 267 304 -1472
2019-01-21 01:48:21 GMT 52.131664 5.557356 13,450 267 304 -1472
2019-01-21 01:48:18 GMT 52.131912 5.564194 13,525 268 304 -1472
2019-01-21 01:48:15 GMT 52.132130 5.571089 13,600 268 303 -1472
2019-01-21 01:48:12 GMT 52.132370 5.577850 13,700 268 303 -1472
2019-01-21 01:48:09 GMT 52.132549 5.584743 13,775 268 303 -1536
2019-01-21 01:48:06 GMT 52.132736 5.591507 13,850 268 304 -1536
2019-01-21 01:48:03 GMT 52.132874 5.596237 13,900 268 304 -1536
2019-01-21 01:48:00 GMT 52.133060 5.602949 13,975 268 304 -1536
2019-01-21 01:47:57 GMT 52.133240 5.609818 14,025 267 304 -1600
2019-01-21 01:47:54 GMT 52.133514 5.619125 14,200 268 305 -1536
2019-01-21 01:47:51 GMT 52.133759 5.625863 14,250 267 305 -1536
2019-01-21 01:47:48 GMT 52.133926 5.632858 14,300 267 306 -1536
2019-01-21 01:47:45 GMT 52.134178 5.639675 14,525 267 306 -1600
2019-01-21 01:47:42 GMT 52.134430 5.646515 14,525 267 306 -1600
2019-01-21 01:47:39 GMT 52.134659 5.651245 14,675 267 307 -1536
2019-01-21 01:47:36 GMT 52.134933 5.660400 14,650 267 307 -1536
2019-01-21 01:47:33 GMT 52.135162 5.664978 14,725 267 307 -1536
2019-01-21 01:47:30 GMT 52.135483 5.674362 14,800 267 308 -1536
2019-01-21 01:47:27 GMT 52.135666 5.678940 14,900 267 308 -1536
2019-01-21 01:47:24 GMT 52.135944 5.685896 14,950 267 308 -1536
2019-01-21 01:47:21 GMT 52.136227 5.695234 15,050 267 309 -1536
2019-01-21 01:47:18 GMT 52.136490 5.702133 15,150 267 310 -1536
2019-01-21 01:47:14 GMT 52.136856 5.711365 15,275 267 310 -1472
2019-01-21 01:47:11 GMT 52.137112 5.718462 15,325 267 311 -1536
2019-01-21 01:47:08 GMT 52.137360 5.725479 15,375 267 311 -1536
2019-01-21 01:47:05 GMT 52.137623 5.732588 15,475 267 311 -1600
2019-01-21 01:46:59 GMT 52.138046 5.744095 15,575 268 312 -1536
2019-01-21 01:46:56 GMT 52.138275 5.753708 15,750 268 313 -1536
2019-01-21 01:46:53 GMT 52.138508 5.760760 15,825 268 313 -1536
2019-01-21 01:46:50 GMT 52.138687 5.767746 15,850 268 313 -1536
2019-01-21 01:46:47 GMT 52.138924 5.774885 15,875 268 314 -1536
2019-01-21 01:46:44 GMT 52.139111 5.779593 16,000 268 314 -1600
2019-01-21 01:46:41 GMT 52.139282 5.786514 16,575 268 315 -1664
2019-01-21 01:46:38 GMT 52.139717 5.803057 16,250 269 315 -1600
2019-01-21 01:46:35 GMT 52.139717 5.803057 16,300 268 316 -1600
2019-01-21 01:46:32 GMT 52.139854 5.807922 16,400 268 316 -1664
2019-01-21 01:46:29 GMT 52.140087 5.817418 16,475 268 316 -1600
2019-01-21 01:46:26 GMT 52.140228 5.822205 16,525 268 316 -1600
2019-01-21 01:46:23 GMT 52.140427 5.829391 16,625 268 317 -1536
2019-01-21 01:46:20 GMT 52.140656 5.838776 16,725 268 317 -1600
2019-01-21 01:46:17 GMT 52.140835 5.845982 16,825 268 319 -1600
2019-01-21 01:46:14 GMT 52.141159 5.858067 16,900 268 318 -1600
2019-01-21 01:46:11 GMT 52.141159 5.858067 16,950 268 318 -1600
2019-01-21 01:46:08 GMT 52.141342 5.867462 17,000 268 318 -1600
2019-01-21 01:46:05 GMT 52.141479 5.872192 17,075 268 318 -1600
2019-01-21 01:46:02 GMT 52.141708 5.881882 17,225 268 319 -1536
2019-01-21 01:45:59 GMT 52.141907 5.889221 17,300 268 320 -1536
2019-01-21 01:45:56 GMT 52.142029 5.896378 17,350 268 320 -1536
2019-01-21 01:45:53 GMT 52.142212 5.901184 17,450 268 320 -1600
2019-01-21 01:45:50 GMT 52.142487 5.910721 17,550 268 321 -1600
2019-01-21 01:45:47 GMT 52.142624 5.915604 17,600 268 321 -1664
2019-01-21 01:45:44 GMT 52.142853 5.925293 17,650 268 321 -1664
2019-01-21 01:45:41 GMT 52.142990 5.930099 17,750 268 322 -1664
2019-01-21 01:45:38 GMT 52.143208 5.937247 17,825 268 322 -1664
2019-01-21 01:45:35 GMT 52.143440 5.946978 17,950 268 323 -1600
2019-01-21 01:45:32 GMT 52.143677 5.954361 18,575 269 326 -1600
2019-01-21 01:45:29 GMT 52.143860 5.961652 18,125 268 324 -1536
2019-01-21 01:45:26 GMT 52.144226 5.973892 18,225 268 325 -1408
2019-01-21 01:45:20 GMT 52.144409 5.983582 18,350 270 326 -1600
2019-01-21 01:45:17 GMT 52.144466 5.991002 18,450 270 326 -1664
2019-01-21 01:45:14 GMT 52.144466 6.000654 18,500 271 326 -1664
2019-01-21 01:45:11 GMT 52.144466 6.005598 18,600 271 327 -1600
2019-01-21 01:45:08 GMT 52.144417 6.015564 18,700 271 327 -1664
2019-01-21 01:45:05 GMT 52.144417 6.020508 18,775 271 328 -1664
2019-01-21 01:45:02 GMT 52.144371 6.025373 18,825 271 328 -1600
2019-01-21 01:44:59 GMT 52.144318 6.037674 18,950 271 329 -1600
2019-01-21 01:44:56 GMT 52.144318 6.042786 19,050 271 330 -1664
2019-01-21 01:44:53 GMT 52.144279 6.050249 19,125 271 330 -1664
2019-01-21 01:44:50 GMT 52.144226 6.057434 19,175 271 330 -1664
2019-01-21 01:44:47 GMT 52.144234 6.064924 19,275 270 331 -1600
2019-01-21 01:44:44 GMT 52.144180 6.072388 19,375 270 332 -1600
2019-01-21 01:44:41 GMT 52.144180 6.077499 19,475 270 332 -1600
2019-01-21 01:44:38 GMT 52.144180 6.097412 19,550 270 333 -1600
2019-01-21 01:44:35 GMT 52.144180 6.097412 19,625 270 333 -1600
2019-01-21 01:44:32 GMT 52.144180 6.102524 19,750 270 334 -1600
2019-01-21 01:44:29 GMT 52.144184 6.109968 19,775 270 334 -1600
2019-01-21 01:44:26 GMT 52.144184 6.114912 19,800 270 334 -1600
2019-01-21 01:44:23 GMT 52.144184 6.125113 19,900 270 335 -1664
2019-01-21 01:44:20 GMT 52.144180 6.132584 20,050 270 336 -1536
2019-01-21 01:44:17 GMT 52.144184 6.140180 20,100 270 337 -1408
2019-01-21 01:44:14 GMT 52.144184 6.145281 20,150 270 337 -1344
2019-01-21 01:44:11 GMT 52.144184 6.155483 20,200 270 338 -1088
2019-01-21 01:44:08 GMT 52.144184 6.160583 20,225 270 339 -960
2019-01-21 01:44:05 GMT 52.144226 6.168137 20,300 270 340 -960
2019-01-21 01:44:02 GMT 52.144184 6.175807 20,375 270 340 -960
2019-01-21 01:43:59 GMT 52.144184 6.186087 20,450 270 341 -960
2019-01-21 01:43:56 GMT 52.144184 6.191110 20,475 270 341 -960
2019-01-21 01:43:53 GMT 52.144184 6.201468 20,575 270 341 -896
2019-01-21 01:43:50 GMT 52.144226 6.206741 20,625 270 342 -896
2019-01-21 01:43:47 GMT 52.144180 6.214218 20,625 270 342 -896
2019-01-21 01:43:44 GMT 52.144184 6.224540 20,700 271 343 -832
2019-01-21 01:43:41 GMT 52.144135 6.240082 20,725 271 343 -832
2019-01-21 01:43:38 GMT 52.144135 6.240082 20,750 271 343 -832
2019-01-21 01:43:35 GMT 52.144138 6.247768 20,825 271 343 -832
2019-01-21 01:43:32 GMT 52.144135 6.255646 20,875 271 342 -768
2019-01-21 01:43:29 GMT 52.144089 6.265869 20,900 271 342 -832
2019-01-21 01:43:26 GMT 52.144089 6.271057 20,950 271 342 -896
2019-01-21 01:43:23 GMT 52.144093 6.276175 20,975 271 342 -896
2019-01-21 01:43:20 GMT 52.144047 6.283944 21,000 271 342 -960
2019-01-21 01:43:17 GMT 52.144001 6.294146 21,075 271 342 -1280
2019-01-21 01:43:14 GMT 52.143951 6.301915 21,150 273 342 -1664
2019-01-21 01:43:11 GMT 52.143768 6.309684 21,200 273 342 -1664
2019-01-21 01:43:08 GMT 52.143448 6.317291 21,325 275 342 -1728
2019-01-21 01:43:05 GMT 52.143116 6.324829 21,400 275 342 -1728
2019-01-21 01:43:02 GMT 52.142788 6.330008 21,475 276 343 -1728
2019-01-21 01:42:59 GMT 52.142441 6.337891 21,550 275 343 -1728
2019-01-21 01:42:56 GMT 52.142029 6.348190 21,700 275 344 -1728
2019-01-21 01:42:53 GMT 52.141708 6.353302 21,750 275 344 -1728
2019-01-21 01:42:50 GMT 52.141022 6.366106 21,825 275 345 -1728
2019-01-21 01:42:47 GMT 52.140739 6.371364 21,950 275 345 -1728
2019-01-21 01:42:44 GMT 52.140415 6.376465 22,075 275 346 -1728
2019-01-21 01:42:41 GMT 52.139950 6.386745 22,125 275 347 -1728
2019-01-21 01:42:38 GMT 52.139511 6.394806 22,200 275 347 -1728
2019-01-21 01:42:35 GMT 52.139191 6.399994 22,225 275 347 -1792
2019-01-21 01:42:32 GMT 52.138741 6.407540 22,375 275 348 -1792
2019-01-21 01:42:29 GMT 52.138226 6.418056 22,500 275 348 -1792
2019-01-21 01:42:26 GMT 52.137909 6.425934 23,025 275 351 -1792
2019-01-21 01:42:23 GMT 52.137482 6.431240 22,925 275 352 -1792
2019-01-21 01:42:20 GMT 52.136993 6.441650 22,800 275 350 -1792
2019-01-21 01:42:17 GMT 52.136597 6.449367 22,850 275 350 -1792
2019-01-21 01:42:14 GMT 52.136169 6.457520 22,950 275 351 -1792
2019-01-21 01:42:11 GMT 52.135761 6.465297 23,025 275 351 -1792
2019-01-21 01:42:08 GMT 52.135387 6.470712 23,150 275 352 -1792
2019-01-21 01:42:05 GMT 52.134933 6.478577 23,225 275 353 -1792
2019-01-21 01:42:02 GMT 52.134411 6.489075 23,375 275 353 -1728
2019-01-21 01:41:59 GMT 52.133991 6.497001 23,400 275 354 -1728
2019-01-21 01:41:56 GMT 52.133606 6.504974 23,550 276 355 -1792
2019-01-21 01:41:53 GMT 52.133106 6.512931 23,625 276 355 -1792
2019-01-21 01:41:50 GMT 52.132782 6.520767 23,675 276 355 -1792
2019-01-21 01:41:47 GMT 52.132267 6.528782 23,875 276 356 -1792
2019-01-21 01:41:44 GMT 52.131866 6.536789 23,925 276 356 -1792
2019-01-21 01:41:41 GMT 52.131500 6.542130 23,950 276 356 -1792
2019-01-21 01:41:38 GMT 52.130630 6.558151 24,125 275 357 -1792
2019-01-21 01:41:32 GMT 52.130127 6.568832 24,275 275 358 -1728
2019-01-21 01:41:29 GMT 52.129662 6.577044 24,350 275 359 -1728
2019-01-21 01:41:26 GMT 52.129211 6.585083 25,925 275 359 -1664
2019-01-21 01:41:23 GMT 52.128891 6.590500 24,850 275 361 -2048
2019-01-21 01:41:20 GMT 52.128433 6.601181 24,575 275 361 -1856
2019-01-21 01:41:17 GMT 52.127884 6.612091 24,725 275 361 -2048
2019-01-21 01:41:14 GMT 52.127426 6.620204 24,900 275 361 -2368
2019-01-21 01:41:11 GMT 52.127197 6.622925 24,975 275 360 -2816
2019-01-21 01:41:08 GMT 52.126740 6.633682 25,050 275 360 -2752
2019-01-21 01:41:05 GMT 52.125610 6.652614 25,325 275 359 -2688
2019-01-21 01:41:01 GMT 52.125610 6.652614 25,425 275 358 -2112
2019-01-21 01:40:58 GMT 52.125332 6.657872 25,550 275 359 -1536
2019-01-21 01:40:55 GMT 52.124908 6.666107 25,575 275 359 -1408
2019-01-21 01:40:52 GMT 52.124493 6.674037 25,650 276 360 -1216
2019-01-21 01:40:49 GMT 52.123936 6.684788 25,775 276 362 -576
2019-01-21 01:40:46 GMT 52.123444 6.693039 25,775 276 362 -448
2019-01-21 01:40:43 GMT 52.122803 6.703796 25,800 276 361 -448
2019-01-21 01:40:40 GMT 52.122620 6.709290 25,825 276 361 -512
2019-01-21 01:40:37 GMT 52.122208 6.714706 25,825 276 361 -512
2019-01-21 01:40:34 GMT 52.121796 6.722691 25,875 275 360 -512
2019-01-21 01:40:31 GMT 52.121235 6.733521 25,900 275 360 -576
2019-01-21 01:40:28 GMT 52.120880 6.741714 25,925 275 360 -512
2019-01-21 01:40:25 GMT 52.119884 6.755022 25,950 277 359 -512
2019-01-21 01:40:22 GMT 52.119884 6.755022 26,000 279 358 -320
2019-01-21 01:40:19 GMT 52.119095 6.765538 26,000 280 358 -192
2019-01-21 01:40:16 GMT 52.118225 6.773529 26,000 281 358 -128
2019-01-21 01:40:13 GMT 52.117046 6.781390 26,000 282 358 -64
2019-01-21 01:40:10 GMT 52.115891 6.789322 26,025 286 359 -64
2019-01-21 01:40:07 GMT 52.114578 6.797163 26,025 287 359 -64
2019-01-21 01:40:04 GMT 52.113327 6.805038 26,025 288 358 -64
2019-01-21 01:40:01 GMT 52.111599 6.812465 26,025 290 357 192
2019-01-21 01:39:58 GMT 52.109505 6.822667 26,025 293 357 -192
2019-01-21 01:39:55 GMT 52.107967 6.827454 26,025 294 356 -384
2019-01-21 01:39:52 GMT 52.105175 6.837263 26,050 297 356 -576
2019-01-21 01:39:49 GMT 52.104057 6.841971 26,075 298 356 -1024
2019-01-21 01:39:46 GMT 52.101608 6.849060 26,100 298 357 -1408
2019-01-21 01:39:43 GMT 52.099640 6.853943 26,200 298 358 -1728
2019-01-21 01:39:40 GMT 52.097031 6.863327 26,275 299 359 -1792
2019-01-21 01:39:37 GMT 52.093872 6.872940 26,425 298 360 -1792
2019-01-21 01:39:34 GMT 52.092224 6.877747 26,475 298 360 -1792
2019-01-21 01:39:31 GMT 52.090302 6.882477 26,600 298 362 -1728
2019-01-21 01:39:28 GMT 52.087280 6.892014 26,725 299 361 -1728
2019-01-21 01:39:25 GMT 52.084442 6.901703 26,825 298 362 -1728
2019-01-21 01:39:22 GMT 52.082840 6.906586 26,925 299 363 -1728
2019-01-21 01:39:19 GMT 52.080593 6.913775 26,950 299 363 -1728
2019-01-21 01:39:16 GMT 52.078362 6.918640 27,025 298 364 -1728
2019-01-21 01:39:13 GMT 52.073238 6.935434 27,300 299 366 -1728
2019-01-21 01:39:10 GMT 52.073238 6.935434 27,250 299 366 -1728
2019-01-21 01:39:07 GMT 52.070679 6.942889 27,325 299 366 -1728
2019-01-21 01:39:04 GMT 52.065979 6.957328 27,450 299 366 -1728
2019-01-21 01:39:01 GMT 52.065979 6.957328 27,500 299 367 -1728
2019-01-21 01:38:58 GMT 52.063931 6.962272 27,575 299 367 -1792
2019-01-21 01:38:55 GMT 52.061462 6.969452 27,675 299 368 -1792
2019-01-21 01:38:52 GMT 52.056293 6.986598 27,825 299 370 -1792
2019-01-21 01:38:46 GMT 52.053589 6.993866 28,000 299 370 -1856
2019-01-21 01:38:43 GMT 52.051174 7.001351 28,075 299 370 -1856
2019-01-21 01:38:40 GMT 52.046288 7.015948 28,225 299 371 -1856
2019-01-21 01:38:37 GMT 52.046288 7.015948 28,275 299 371 -1792
2019-01-21 01:38:34 GMT 52.043793 7.023392 28,325 299 373 -1792
2019-01-21 01:38:31 GMT 52.040909 7.033386 28,475 299 374 -1792
2019-01-21 01:38:28 GMT 52.039631 7.035723 28,525 299 374 -1792
2019-01-21 01:38:25 GMT 52.036789 7.045611 29,675 299 374 -1728
2019-01-21 01:38:22 GMT 52.033577 7.055734 28,700 299 375 -1792
2019-01-21 01:38:19 GMT 52.031994 7.060442 28,825 299 377 -1792
2019-01-21 01:38:16 GMT 52.028130 7.070487 29,125 299 377 -1792
2019-01-21 01:38:13 GMT 52.027267 7.073135 28,975 299 378 -1792
2019-01-21 01:38:10 GMT 52.024338 7.082901 29,175 299 379 -1792
2019-01-21 01:38:07 GMT 52.022186 7.088013 29,250 299 381 -1856
2019-01-21 01:38:04 GMT 52.019707 7.095442 29,275 299 380 -1792
2019-01-21 01:38:01 GMT 52.017197 7.102966 29,400 299 392 -1792
2019-01-21 01:37:58 GMT 52.014675 7.110509 29,475 299 381 -1856
2019-01-21 01:37:55 GMT 52.011745 7.120632 29,575 299 382 -1856
2019-01-21 01:37:52 GMT 52.009369 7.128220 29,650 299 383 -1856
2019-01-21 01:37:49 GMT 52.007172 7.133331 29,775 299 383 -1792
2019-01-21 01:37:46 GMT 52.004578 7.140799 29,825 299 385 -1792
2019-01-21 01:37:43 GMT 51.998524 7.161281 30,050 299 387 -1792
2019-01-21 01:37:40 GMT 51.998524 7.161281 30,075 299 387 -1792
2019-01-21 01:37:37 GMT 51.996799 7.166303 30,150 299 387 -1792
2019-01-21 01:37:34 GMT 51.994308 7.173996 30,200 299 388 -1856
2019-01-21 01:37:31 GMT 51.991791 7.179260 30,450 299 410 -1984
2019-01-21 01:37:28 GMT 51.989262 7.186863 30,425 299 389 -1792
2019-01-21 01:37:25 GMT 51.986465 7.197065 30,650 299 391 -1856
2019-01-21 01:37:22 GMT 51.984055 7.204819 30,600 299 391 -1856
2019-01-21 01:37:19 GMT 51.981113 7.212603 30,725 299 391 -1792
2019-01-21 01:37:16 GMT 51.978924 7.217782 30,825 299 392 -1792
2019-01-21 01:37:13 GMT 51.975807 7.228141 30,925 299 393 -1792
2019-01-21 01:37:10 GMT 51.972977 7.235870 30,975 299 394 -1792
2019-01-21 01:37:07 GMT 51.970497 7.243835 31,300 299 401 -1920
2019-01-21 01:37:04 GMT 51.967758 7.251434 31,175 299 395 -1920
2019-01-21 01:37:01 GMT 51.965611 7.259452 31,250 299 396 -1984
2019-01-21 01:36:58 GMT 51.962860 7.267075 31,450 299 396 -1920
2019-01-21 01:36:55 GMT 51.960117 7.275146 31,525 299 399 -1920
2019-01-21 01:36:52 GMT 51.957733 7.282944 31,600 299 398 -1920
2019-01-21 01:36:49 GMT 51.954163 7.293549 31,750 299 399 -1920
2019-01-21 01:36:46 GMT 51.952286 7.298660 31,850 299 400 -1920
2019-01-21 01:36:43 GMT 51.950409 7.303772 31,900 299 401 -1920
2019-01-21 01:36:40 GMT 51.947598 7.311872 31,950 299 401 -1920
2019-01-21 01:36:37 GMT 51.944962 7.319717 32,075 299 401 -1920
2019-01-21 01:36:34 GMT 51.941986 7.330475 32,200 299 402 -1920
2019-01-21 01:36:31 GMT 51.939262 7.338396 32,325 299 403 -1920
2019-01-21 01:36:28 GMT 51.935677 7.349069 32,375 299 404 -1856
2019-01-21 01:36:25 GMT 51.933910 7.354327 32,875 299 405 -1920
2019-01-21 01:36:22 GMT 51.931675 7.359820 32,650 299 407 -1920
2019-01-21 01:36:19 GMT 51.928139 7.370257 32,725 299 408 -1920
2019-01-21 01:36:16 GMT 51.922783 7.386344 32,850 299 408 -1920
2019-01-21 01:36:13 GMT 51.922783 7.386344 32,925 299 408 -1984
2019-01-21 01:36:10 GMT 51.920593 7.391915 33,000 299 409 -1984
2019-01-21 01:36:07 GMT 51.917336 7.402509 33,125 299 410 -1984
2019-01-21 01:36:04 GMT 51.911888 7.418910 33,275 299 411 -1984
2019-01-21 01:36:01 GMT 51.911888 7.418910 33,350 299 412 -2048
2019-01-21 01:35:58 GMT 51.909531 7.426987 33,375 299 412 -2048
2019-01-21 01:35:55 GMT 51.907150 7.432480 33,525 299 413 -2048
2019-01-21 01:35:52 GMT 51.904350 7.440491 33,675 299 414 -2048
2019-01-21 01:35:49 GMT 51.901611 7.448654 33,750 299 414 -1984
2019-01-21 01:35:46 GMT 51.898853 7.456735 33,825 299 415 -1984
2019-01-21 01:35:43 GMT 51.895878 7.467564 33,900 299 415 -2048
2019-01-21 01:35:40 GMT 51.893005 7.475751 34,125 299 417 -2176
2019-01-21 01:35:37 GMT 51.890579 7.481393 34,175 299 417 -2240
2019-01-21 01:35:34 GMT 51.887775 7.489624 34,250 299 417 -2240
2019-01-21 01:35:31 GMT 51.884472 7.500610 35,650 299 426 -2048
2019-01-21 01:35:28 GMT 51.881561 7.508858 34,575 299 419 -2112
2019-01-21 01:35:25 GMT 51.878929 7.516937 34,675 299 420 -2112
2019-01-21 01:35:22 GMT 51.876205 7.525338 35,525 299 426 -2048
2019-01-21 01:35:19 GMT 51.870941 7.541892 34,850 299 421 -2048
2019-01-21 01:35:16 GMT 51.870941 7.541892 35,000 299 423 -2048
2019-01-21 01:35:13 GMT 51.867760 7.550125 35,050 299 423 -2048
2019-01-21 01:35:10 GMT 51.865479 7.555771 35,125 299 423 -2048
2019-01-21 01:35:07 GMT 51.862034 7.566833 35,275 299 424 -2048
2019-01-21 01:35:04 GMT 51.859707 7.572479 35,325 299 425 -2048
2019-01-21 01:35:01 GMT 51.857025 7.580863 35,850 299 426 -2048
2019-01-21 01:34:58 GMT 51.854305 7.589188 35,625 299 426 -2048
2019-01-21 01:34:55 GMT 51.850906 7.600250 35,775 299 428 -2048
2019-01-21 01:34:52 GMT 51.847595 7.608700 35,750 299 428 -1984
2019-01-21 01:34:49 GMT 51.845627 7.614268 35,900 299 429 -2048
2019-01-21 01:34:46 GMT 51.842575 7.622833 36,025 299 430 -2112
2019-01-21 01:34:43 GMT 51.838989 7.634048 36,125 299 430 -2240
2019-01-21 01:34:40 GMT 51.837032 7.639771 36,175 299 430 -2304
2019-01-21 01:34:37 GMT 51.833588 7.650833 36,350 299 430 -2432
2019-01-21 01:34:34 GMT 51.830933 7.659475 36,550 299 430 -2560
2019-01-21 01:34:31 GMT 51.828190 7.667847 36,625 299 430 -2560
2019-01-21 01:34:28 GMT 51.824432 7.676400 36,700 299 430 -2560
2019-01-21 01:34:25 GMT 51.821999 7.684784 36,850 299 430 -2240
2019-01-21 01:34:22 GMT 51.819626 7.690582 37,000 299 431 -1600
2019-01-21 01:34:19 GMT 51.815781 7.704460 37,075 299 431 -1536
2019-01-21 01:34:16 GMT 51.813309 7.710250 37,125 299 431 -1344
2019-01-21 01:34:13 GMT 51.811340 7.715817 37,150 299 432 -1152
2019-01-21 01:34:10 GMT 51.808544 7.724304 37,650 299 430 -960
2019-01-21 01:34:07 GMT 51.804771 7.735672 37,300 299 431 -960
2019-01-21 01:34:04 GMT 51.802368 7.741427 37,350 299 431 -960
2019-01-21 01:34:01 GMT 51.799667 7.749741 37,425 300 435 0
2019-01-21 01:33:58 GMT 51.793091 7.769470 37,450 299 431 -960
2019-01-21 01:33:55 GMT 51.793091 7.769470 37,500 299 430 -960
2019-01-21 01:33:52 GMT 51.790947 7.775269 37,550 299 431 -960
2019-01-21 01:33:49 GMT 51.788013 7.786560 37,650 299 430 -960
2019-01-21 01:33:46 GMT 51.785545 7.792130 37,650 299 430 -960
2019-01-21 01:33:43 GMT 51.782501 7.800441 37,675 299 431 -960
2019-01-21 01:33:40 GMT 51.779114 7.811873 37,750 299 432 -960
2019-01-21 01:33:37 GMT 51.776375 7.820435 37,750 299 432 -896
2019-01-21 01:33:34 GMT 51.770138 7.837372 37,825 299 432 -960
2019-01-21 01:33:31 GMT 51.770138 7.837372 37,875 299 432 -960
2019-01-21 01:33:28 GMT 51.768185 7.843018 37,900 299 432 -960
2019-01-21 01:33:25 GMT 51.764320 7.854004 37,975 299 433 -896
2019-01-21 01:33:22 GMT 51.762226 7.859879 38,075 299 434 -832
2019-01-21 01:33:19 GMT 51.759201 7.868364 38,050 300 434 -832
2019-01-21 01:33:16 GMT 51.756405 7.876663 38,075 300 435 -896
2019-01-21 01:33:13 GMT 51.753571 7.885214 38,125 300 434 -896
2019-01-21 01:33:10 GMT 51.750446 7.893677 38,175 300 433 -1024
2019-01-21 01:33:07 GMT 51.747002 7.904968 38,250 300 432 -1024
2019-01-21 01:33:04 GMT 51.744720 7.910461 38,275 300 432 -1024
2019-01-21 01:33:01 GMT 51.741898 7.918990 38,350 300 432 -960
2019-01-21 01:32:58 GMT 51.737869 7.930273 38,375 299 433 -960
2019-01-21 01:32:55 GMT 51.734993 7.938690 38,400 299 432 -960
2019-01-21 01:32:52 GMT 51.731873 7.950134 38,500 299 435 -896
2019-01-21 01:32:49 GMT 51.729450 7.955704 38,525 299 435 -896
2019-01-21 01:32:46 GMT 51.726425 7.964197 38,600 299 436 -960
2019-01-21 01:32:43 GMT 51.724503 7.970061 38,600 299 436 -960
2019-01-21 01:32:40 GMT 51.720932 7.981345 38,675 300 436 -960
2019-01-21 01:32:37 GMT 51.718277 7.986986 38,700 300 436 -1024
2019-01-21 01:32:34 GMT 51.715626 7.995529 38,900 299 437 -896
2019-01-21 01:32:31 GMT 51.712692 8.004134 38,800 299 437 -960
2019-01-21 01:32:28 GMT 51.709076 8.015343 38,875 299 437 -896
2019-01-21 01:32:25 GMT 51.706036 8.023987 38,900 299 437 -960
2019-01-21 01:32:22 GMT 51.703079 8.032416 38,950 299 437 -896
2019-01-21 01:32:19 GMT 51.701157 8.038206 39,000 299 436 -960
2019-01-21 01:32:16 GMT 51.697220 8.049415 39,075 300 434 -960
2019-01-21 01:32:13 GMT 51.694214 8.058014 39,100 300 434 -960
2019-01-21 01:32:10 GMT 51.691406 8.066489 39,250 300 433 -960
2019-01-21 01:32:07 GMT 51.685970 8.080750 39,225 300 432 -960
2019-01-21 01:32:04 GMT 51.685970 8.080750 39,250 300 432 -960
2019-01-21 01:32:01 GMT 51.683075 8.089129 39,300 300 432 -960
2019-01-21 01:31:58 GMT 51.679642 8.100264 39,325 300 432 -960
2019-01-21 01:31:55 GMT 51.677307 8.105906 39,375 300 431 -960
2019-01-21 01:31:52 GMT 51.673965 8.117115 39,425 300 431 -960
2019-01-21 01:31:49 GMT 51.670891 8.125458 39,475 300 431 -960
2019-01-21 01:31:46 GMT 51.667694 8.133669 39,575 300 434 -832
2019-01-21 01:31:43 GMT 51.665161 8.142166 39,575 300 432 -960
2019-01-21 01:31:40 GMT 51.662601 8.147812 39,625 300 432 -960
2019-01-21 01:31:37 GMT 51.658539 8.161803 39,675 300 434 -960
2019-01-21 01:31:34 GMT 51.656616 8.167593 39,700 300 434 -960
2019-01-21 01:31:31 GMT 51.653481 8.176041 39,800 300 435 -1024
2019-01-21 01:31:28 GMT 51.650665 8.184443 39,900 300 434 -1088
2019-01-21 01:31:25 GMT 51.647427 8.192978 39,875 300 434 -1088
2019-01-21 01:31:22 GMT 51.643841 8.204117 39,900 300 435 -1024
2019-01-21 01:31:19 GMT 51.641327 8.209915 39,975 300 434 -576
2019-01-21 01:31:16 GMT 51.637882 8.221054 40,000 300 434 0
2019-01-21 01:31:13 GMT 51.635323 8.226700 40,000 300 434 0
2019-01-21 01:31:10 GMT 51.633320 8.232498 40,000 300 434 0
2019-01-21 01:31:07 GMT 51.626678 8.252069 40,000 300 435 0
2019-01-21 01:31:04 GMT 51.626678 8.252069 40,000 300 435 0
2019-01-21 01:31:01 GMT 51.624104 8.260574 40,000 300 435 0
2019-01-21 01:30:58 GMT 51.621635 8.266296 40,000 300 435 0
2019-01-21 01:30:55 GMT 51.618378 8.277588 40,000 300 435 0
2019-01-21 01:30:52 GMT 51.615509 8.286067 40,000 300 435 -64
2019-01-21 01:30:49 GMT 51.612373 8.294449 40,000 300 435 0
2019-01-21 01:30:46 GMT 51.609951 8.300095 40,000 300 435 0
2019-01-21 01:30:43 GMT 51.606274 8.311462 40,000 300 436 0
2019-01-21 01:30:40 GMT 51.603333 8.319842 40,000 300 435 0
2019-01-21 01:30:37 GMT 51.597198 8.336693 40,000 300 436 0
2019-01-21 01:30:34 GMT 51.594170 8.345108 40,000 300 436 0
2019-01-21 01:30:31 GMT 51.594170 8.345108 40,000 300 435 0
2019-01-21 01:30:28 GMT 51.591522 8.353692 40,000 300 436 0
2019-01-21 01:30:25 GMT 51.588444 8.361969 40,000 300 436 -64
2019-01-21 01:30:22 GMT 51.582253 8.378906 40,000 300 436 -64
2019-01-21 01:30:19 GMT 51.582253 8.378906 40,000 300 436 -64
2019-01-21 01:30:16 GMT 51.579666 8.387393 40,000 300 435 -64
2019-01-21 01:30:13 GMT 51.576202 8.395920 40,000 300 435 0
2019-01-21 01:30:10 GMT 51.573441 8.404393 40,000 300 435 64
2019-01-21 01:30:07 GMT 51.570755 8.412857 40,000 300 435 0
2019-01-21 01:30:04 GMT 51.567902 8.421392 40,000 300 435 -64
2019-01-21 01:30:01 GMT 51.564983 8.429871 40,000 300 435 0
2019-01-21 01:29:58 GMT 51.561905 8.438317 40,000 300 435 -64
2019-01-21 01:29:55 GMT 51.559479 8.444032 40,000 300 435 -64
2019-01-21 01:29:52 GMT 51.555954 8.455167 40,000 300 435 -64
2019-01-21 01:29:49 GMT 51.553112 8.463516 40,000 300 435 0
2019-01-21 01:29:46 GMT 51.549774 8.472018 40,000 300 436 0
2019-01-21 01:29:43 GMT 51.547852 8.477808 40,000 300 435 0
2019-01-21 01:29:40 GMT 51.544189 8.488794 40,000 300 435 0
2019-01-21 01:29:37 GMT 51.541100 8.497238 40,000 300 435 64
2019-01-21 01:29:34 GMT 51.539379 8.503036 40,000 300 436 64
2019-01-21 01:29:31 GMT 51.535145 8.514175 40,000 300 435 64
2019-01-21 01:29:28 GMT 51.532196 8.522644 40,000 300 435 0
2019-01-21 01:29:25 GMT 51.529232 8.531189 40,000 300 435 0
2019-01-21 01:29:22 GMT 51.522537 8.550778 40,000 300 435 0
2019-01-21 01:29:19 GMT 51.522537 8.550778 40,000 300 435 0
2019-01-21 01:29:16 GMT 51.520992 8.553772 40,000 300 435 0
2019-01-21 01:29:13 GMT 51.517872 8.564911 40,000 300 436 0
2019-01-21 01:29:10 GMT 51.511959 8.581772 40,000 300 436 64
2019-01-21 01:29:07 GMT 51.511959 8.581772 40,000 300 435 64
2019-01-21 01:29:04 GMT 51.509258 8.587418 40,000 300 435 64
2019-01-21 01:29:01 GMT 51.506287 8.595911 40,000 300 435 0
2019-01-21 01:28:58 GMT 51.503441 8.604202 40,000 300 435 0
2019-01-21 01:28:55 GMT 51.499996 8.615417 40,000 300 435 0
2019-01-21 01:28:52 GMT 51.497437 8.621063 40,000 300 435 0
2019-01-21 01:28:49 GMT 51.493992 8.632507 40,000 300 435 -64
2019-01-21 01:28:46 GMT 51.490677 8.640673 40,000 300 435 0
2019-01-21 01:28:43 GMT 51.488754 8.646463 40,000 300 435 0
2019-01-21 01:28:40 GMT 51.485092 8.657672 40,000 300 435 0
2019-01-21 01:28:37 GMT 51.482212 8.666000 40,000 300 435 64
2019-01-21 01:28:34 GMT 51.479420 8.671646 40,000 300 435 0
2019-01-21 01:28:31 GMT 51.475929 8.682709 40,000 300 435 0
2019-01-21 01:28:28 GMT 51.473007 8.691225 40,000 300 435 0
2019-01-21 01:28:25 GMT 51.470341 8.699646 40,000 300 435 0
2019-01-21 01:28:22 GMT 51.466827 8.708150 40,000 300 435 0
2019-01-21 01:28:19 GMT 51.464104 8.716507 40,000 300 435 0
2019-01-21 01:28:16 GMT 51.461544 8.721924 40,000 300 434 -64
2019-01-21 01:28:13 GMT 51.458496 8.730493 40,000 300 434 -64
2019-01-21 01:28:10 GMT 51.455292 8.741554 40,000 300 434 0
2019-01-21 01:28:07 GMT 51.452682 8.747121 40,000 300 434 0
2019-01-21 01:28:04 GMT 51.449203 8.758330 40,000 300 434 -64
2019-01-21 01:28:01 GMT 51.446869 8.764046 40,000 300 434 0
2019-01-21 01:27:58 GMT 51.443253 8.775330 40,000 300 434 64
2019-01-21 01:27:55 GMT 51.440361 8.783646 40,000 300 434 64
2019-01-21 01:27:52 GMT 51.436798 8.791958 40,000 300 434 64
2019-01-21 01:27:49 GMT 51.434311 8.800201 40,000 300 434 64
2019-01-21 01:27:46 GMT 51.431751 8.805923 40,000 300 434 64
2019-01-21 01:27:43 GMT 51.427414 8.819795 40,000 300 434 0
2019-01-21 01:27:39 GMT 51.424942 8.825436 40,000 300 434 64
2019-01-21 01:27:36 GMT 51.421646 8.836645 40,000 300 434 0
2019-01-21 01:27:33 GMT 51.418991 8.842138 40,000 300 433 64
2019-01-21 01:27:30 GMT 51.415375 8.853347 40,000 300 434 0
2019-01-21 01:27:27 GMT 51.412010 8.861771 40,000 300 434 -64
2019-01-21 01:27:24 GMT 51.409966 8.867188 40,000 300 434 0
2019-01-21 01:27:21 GMT 51.406380 8.878555 40,000 300 434 0
2019-01-21 01:27:18 GMT 51.403748 8.886752 40,000 300 434 0
2019-01-21 01:27:15 GMT 51.400791 8.892517 40,000 300 433 0
2019-01-21 01:27:12 GMT 51.397953 8.900833 40,000 300 433 0
2019-01-21 01:27:09 GMT 51.394604 8.912048 40,000 300 433 0
2019-01-21 01:27:06 GMT 51.390930 8.920156 40,000 300 433 0
2019-01-21 01:27:03 GMT 51.387943 8.928452 40,000 300 433 0
2019-01-21 01:27:00 GMT 51.385849 8.934250 40,000 300 433 64
2019-01-21 01:26:57 GMT 51.382683 8.945389 40,000 300 433 0
2019-01-21 01:26:54 GMT 51.379669 8.953783 40,000 300 433 0
2019-01-21 01:26:51 GMT 51.376865 8.961945 40,000 300 433 0
2019-01-21 01:26:48 GMT 51.373978 8.967590 40,000 300 433 0
2019-01-21 01:26:45 GMT 51.370811 8.978653 40,000 300 433 0
2019-01-21 01:26:42 GMT 51.366810 8.989792 40,000 300 433 0
2019-01-21 01:26:39 GMT 51.364017 8.995361 40,000 300 433 0
2019-01-21 01:26:36 GMT 51.361588 9.003816 40,000 300 433 0
2019-01-21 01:26:33 GMT 51.358383 9.011993 40,000 300 433 0
2019-01-21 01:26:30 GMT 51.353165 9.025862 40,000 300 433 0
2019-01-21 01:26:27 GMT 51.353165 9.025862 40,000 300 433 0
2019-01-21 01:26:24 GMT 51.349274 9.036997 40,000 300 433 0
2019-01-21 01:26:21 GMT 51.343208 9.053802 40,000 300 433 0
2019-01-21 01:26:18 GMT 51.343208 9.053802 40,000 300 433 0
2019-01-21 01:26:15 GMT 51.341080 9.059267 40,000 300 433 0
2019-01-21 01:26:12 GMT 51.338505 9.067612 40,000 300 433 0
2019-01-21 01:26:09 GMT 51.335266 9.075821 40,000 300 432 0
2019-01-21 01:26:06 GMT 51.329102 9.095154 40,000 300 432 64
2019-01-21 01:26:03 GMT 51.329102 9.095154 40,000 301 431 0
2019-01-21 01:26:00 GMT 51.325928 9.103435 40,000 300 432 0
2019-01-21 01:25:57 GMT 51.322819 9.111710 40,000 300 432 0
2019-01-21 01:25:54 GMT 51.320492 9.117355 40,000 300 432 0
2019-01-21 01:25:51 GMT 51.317459 9.125704 40,000 301 432 0
2019-01-21 01:25:48 GMT 51.313934 9.136765 40,000 301 431 0
2019-01-21 01:25:45 GMT 51.307938 9.153319 40,000 301 431 0
2019-01-21 01:25:42 GMT 51.307938 9.153319 40,000 301 431 0
2019-01-21 01:25:39 GMT 51.305466 9.158886 40,000 301 431 0
2019-01-21 01:25:36 GMT 51.301392 9.169798 40,000 301 431 -64
2019-01-21 01:25:33 GMT 51.299076 9.178162 40,000 301 431 0
2019-01-21 01:25:30 GMT 51.295624 9.186352 40,000 301 431 0
2019-01-21 01:25:27 GMT 51.292561 9.194489 40,000 301 431 0
2019-01-21 01:25:24 GMT 51.289490 9.202980 40,000 301 431 0
2019-01-21 01:25:21 GMT 51.286228 9.211044 40,000 301 431 0
2019-01-21 01:25:18 GMT 51.284554 9.216537 40,000 301 431 0
2019-01-21 01:25:15 GMT 51.281013 9.227676 40,000 301 431 0
2019-01-21 01:25:12 GMT 51.277405 9.236013 40,000 301 431 0
2019-01-21 01:25:09 GMT 51.274868 9.244308 40,000 301 431 64
2019-01-21 01:25:06 GMT 51.272217 9.249725 40,000 300 431 64
2019-01-21 01:25:03 GMT 51.269394 9.257837 40,000 301 432 0
2019-01-21 01:25:00 GMT 51.265503 9.269046 40,000 300 431 0
2019-01-21 01:24:57 GMT 51.263489 9.274465 40,000 300 431 0
2019-01-21 01:24:54 GMT 51.258762 9.288330 40,000 300 431 0
2019-01-21 01:24:51 GMT 51.256947 9.293671 40,000 300 431 0
2019-01-21 01:24:48 GMT 51.254292 9.299393 40,000 300 431 0
2019-01-21 01:24:45 GMT 51.251175 9.310379 40,000 300 431 0
2019-01-21 01:24:42 GMT 51.248383 9.315643 40,000 300 431 0
2019-01-21 01:24:39 GMT 51.245453 9.324052 40,000 300 431 0
2019-01-21 01:24:36 GMT 51.241791 9.334964 40,000 300 430 0
2019-01-21 01:24:33 GMT 51.239258 9.343262 40,000 301 431 0
2019-01-21 01:24:30 GMT 51.236511 9.348679 40,000 301 431 0
2019-01-21 01:24:27 GMT 51.233963 9.356937 40,000 301 431 0
2019-01-21 01:24:24 GMT 51.229889 9.367997 40,000 301 431 0
2019-01-21 01:24:21 GMT 51.226921 9.376144 40,000 301 431 0
2019-01-21 01:24:18 GMT 51.223663 9.384477 40,000 300 430 0
2019-01-21 01:24:15 GMT 51.221241 9.392624 40,000 300 430 0
2019-01-21 01:24:12 GMT 51.217712 9.400882 40,000 300 430 0
2019-01-21 01:24:09 GMT 51.210999 9.420013 40,000 300 430 0
2019-01-21 01:24:06 GMT 51.209278 9.425583 40,000 300 430 0
2019-01-21 01:24:03 GMT 51.209278 9.425583 40,000 300 430 0
2019-01-21 01:24:00 GMT 51.206177 9.433915 40,000 300 430 0
2019-01-21 01:23:57 GMT 51.202621 9.442139 40,000 301 431 0
2019-01-21 01:23:54 GMT 51.200573 9.447479 40,000 300 430 0
2019-01-21 01:23:51 GMT 51.197845 9.455740 40,000 301 431 0
2019-01-21 01:23:48 GMT 51.194366 9.466726 40,000 301 431 64
2019-01-21 01:23:45 GMT 51.191528 9.472368 40,000 301 431 64
2019-01-21 01:23:42 GMT 51.188980 9.480515 40,000 301 431 64
2019-01-21 01:23:39 GMT 51.185394 9.491425 40,000 301 431 0
2019-01-21 01:23:36 GMT 51.183022 9.496841 40,000 301 431 0
2019-01-21 01:23:33 GMT 51.179485 9.507980 40,000 301 431 0
2019-01-21 01:23:30 GMT 51.175434 9.518967 40,000 301 430 0
2019-01-21 01:23:27 GMT 51.173904 9.521732 40,000 301 430 0
2019-01-21 01:23:24 GMT 51.170425 9.532644 40,000 301 430 0
2019-01-21 01:23:21 GMT 51.166962 9.540710 40,000 301 431 64
2019-01-21 01:23:18 GMT 51.164585 9.546127 40,000 301 431 0
2019-01-21 01:23:15 GMT 51.161373 9.557266 40,000 301 431 0
2019-01-21 01:23:12 GMT 51.158112 9.565306 40,000 301 431 0
2019-01-21 01:23:09 GMT 51.155045 9.573593 40,000 301 431 0
2019-01-21 01:23:06 GMT 51.151657 9.581785 40,000 301 431 0
2019-01-21 01:23:03 GMT 51.148666 9.589996 40,000 301 431 0
2019-01-21 01:23:00 GMT 51.146709 9.595413 40,000 301 431 64
2019-01-21 01:22:57 GMT 51.143463 9.603832 40,000 301 431 0
2019-01-21 01:22:54 GMT 51.139709 9.614670 40,000 301 432 64
2019-01-21 01:22:51 GMT 51.137833 9.620163 40,000 301 432 64
2019-01-21 01:22:48 GMT 51.133621 9.631150 40,000 301 431 0
2019-01-21 01:22:45 GMT 51.131607 9.636569 40,000 301 432 64
2019-01-21 01:22:42 GMT 51.128601 9.644775 40,000 301 432 64
2019-01-21 01:22:39 GMT 51.125336 9.653122 40,000 301 432 64
2019-01-21 01:22:36 GMT 51.121857 9.663960 40,000 301 432 0
2019-01-21 01:22:33 GMT 51.119385 9.669528 40,000 301 432 0
2019-01-21 01:22:30 GMT 51.115906 9.680365 40,000 301 432 0
2019-01-21 01:22:27 GMT 51.113205 9.686007 40,000 301 432 0
2019-01-21 01:22:24 GMT 51.110214 9.694138 40,000 301 432 -64
2019-01-21 01:22:21 GMT 51.106396 9.705048 40,000 301 432 0
2019-01-21 01:22:18 GMT 51.104443 9.710693 40,000 301 432 0
2019-01-21 01:22:15 GMT 51.097778 9.729804 40,000 301 432 0
2019-01-21 01:22:12 GMT 51.097778 9.729804 40,000 301 432 64
2019-01-21 01:22:09 GMT 51.094524 9.738083 40,000 301 432 64
2019-01-21 01:22:06 GMT 51.091919 9.746135 40,000 301 432 64
2019-01-21 01:22:03 GMT 51.085648 9.762540 40,000 301 432 0
2019-01-21 01:22:00 GMT 51.085648 9.762540 40,000 301 432 0
2019-01-21 01:21:57 GMT 51.082470 9.770737 40,000 301 432 0
2019-01-21 01:21:54 GMT 51.079861 9.776306 40,000 301 432 0
2019-01-21 01:21:51 GMT 51.077179 9.784513 40,000 301 432 0
2019-01-21 01:21:48 GMT 51.073624 9.795532 40,000 301 432 0
2019-01-21 01:21:45 GMT 51.070320 9.803543 40,000 301 432 0
2019-01-21 01:21:42 GMT 51.067703 9.811756 40,000 301 432 0
2019-01-21 01:21:39 GMT 51.064728 9.817398 40,000 301 432 0
2019-01-21 01:21:36 GMT 51.060730 9.828186 40,000 301 432 0
2019-01-21 01:21:33 GMT 51.058540 9.836578 40,000 301 432 0
2019-01-21 01:21:30 GMT 51.054657 9.844641 40,000 301 432 0
2019-01-21 01:21:27 GMT 51.049511 9.858475 40,000 301 433 0
2019-01-21 01:21:24 GMT 51.049511 9.858475 40,000 301 432 0
2019-01-21 01:21:21 GMT 51.046391 9.869385 40,000 301 433 0
2019-01-21 01:21:18 GMT 51.043350 9.877600 40,000 301 433 0
2019-01-21 01:21:15 GMT 51.040012 9.885788 40,000 301 433 -64
2019-01-21 01:21:12 GMT 51.036987 9.893931 40,000 301 432 0
2019-01-21 01:21:09 GMT 51.033867 9.902039 40,000 301 432 0
2019-01-21 01:21:06 GMT 51.030716 9.910262 40,000 301 432 0
2019-01-21 01:21:03 GMT 51.027630 9.918594 40,000 301 432 0
2019-01-21 01:21:00 GMT 51.025440 9.924011 40,000 301 432 0
2019-01-21 01:20:57 GMT 51.021858 9.934921 40,000 301 432 0
2019-01-21 01:20:54 GMT 51.018951 9.943072 40,000 301 432 64
2019-01-21 01:20:51 GMT 51.015343 9.951477 40,000 301 432 64
2019-01-21 01:20:48 GMT 51.013290 9.956665 40,000 301 432 0
2019-01-21 01:20:45 GMT 51.009476 9.967804 40,000 301 432 0
2019-01-21 01:20:42 GMT 51.006821 9.976031 40,000 301 433 0
2019-01-21 01:20:39 GMT 51.001141 9.989700 40,000 301 433 0
2019-01-21 01:20:33 GMT 50.997513 10.000458 40,000 301 433 64
2019-01-21 01:20:30 GMT 50.994370 10.008693 40,000 301 433 0
2019-01-21 01:20:27 GMT 50.991806 10.014038 40,000 301 433 0
2019-01-21 01:20:24 GMT 50.988419 10.024950 40,000 301 433 -64
2019-01-21 01:20:21 GMT 50.985359 10.033340 40,000 301 433 -64
2019-01-21 01:20:18 GMT 50.982056 10.041430 40,000 301 432 64
2019-01-21 01:20:15 GMT 50.979218 10.049591 40,000 301 432 64
2019-01-21 01:20:12 GMT 50.976242 10.057761 40,000 301 432 0
2019-01-21 01:20:09 GMT 50.973679 10.063254 40,000 301 432 0
2019-01-21 01:20:06 GMT 50.970016 10.074092 40,000 301 432 0
2019-01-21 01:20:03 GMT 50.967545 10.079659 40,000 301 432 0
2019-01-21 01:20:00 GMT 50.964226 10.087891 40,000 301 432 0
2019-01-21 01:19:57 GMT 50.960922 10.098572 40,000 301 432 0
2019-01-21 01:19:54 GMT 50.958035 10.104141 40,000 301 432 0
2019-01-21 01:19:51 GMT 50.955276 10.112321 40,000 301 432 0
2019-01-21 01:19:48 GMT 50.950447 10.125961 40,000 301 433 64
2019-01-21 01:19:45 GMT 50.948822 10.128726 40,000 301 433 64
2019-01-21 01:19:42 GMT 50.945618 10.139416 40,000 301 433 64
2019-01-21 01:19:39 GMT 50.943054 10.145057 40,000 301 433 0
2019-01-21 01:19:36 GMT 50.939739 10.153122 40,000 301 433 -64
2019-01-21 01:19:33 GMT 50.936016 10.164108 40,000 301 433 -64
2019-01-21 01:19:30 GMT 50.933456 10.169525 40,000 301 433 -64
2019-01-21 01:19:27 GMT 50.929916 10.180435 40,000 301 433 0
2019-01-21 01:19:24 GMT 50.926849 10.188557 40,000 301 433 0
2019-01-21 01:19:21 GMT 50.924423 10.193976 40,000 301 434 0
2019-01-21 01:19:18 GMT 50.921352 10.202179 40,000 301 434 0
2019-01-21 01:19:15 GMT 50.918152 10.210382 40,000 301 434 64
2019-01-21 01:19:12 GMT 50.915066 10.218811 40,000 301 434 -64
2019-01-21 01:19:09 GMT 50.911972 10.226787 40,000 301 434 0
2019-01-21 01:19:05 GMT 50.907990 10.237699 40,000 301 434 0
2019-01-21 01:19:02 GMT 50.904007 10.248537 40,000 301 434 -64
2019-01-21 01:18:59 GMT 50.901798 10.254059 40,000 301 434 -64
2019-01-21 01:18:56 GMT 50.898605 10.265016 40,000 301 434 0
2019-01-21 01:18:53 GMT 50.894726 10.273132 40,000 301 434 0
2019-01-21 01:18:50 GMT 50.892490 10.278702 40,000 301 434 0
2019-01-21 01:18:47 GMT 50.888763 10.289383 40,000 301 434 0
2019-01-21 01:18:44 GMT 50.886200 10.297678 40,000 301 434 0
2019-01-21 01:18:41 GMT 50.883545 10.303023 40,000 301 434 64
2019-01-21 01:18:38 GMT 50.880619 10.311356 40,000 301 434 0
2019-01-21 01:18:35 GMT 50.877182 10.319354 40,000 301 434 64
2019-01-21 01:18:32 GMT 50.873383 10.330266 40,000 301 434 0
2019-01-21 01:18:29 GMT 50.870285 10.338440 40,000 301 434 0
2019-01-21 01:18:26 GMT 50.867752 10.346820 40,000 301 434 0
2019-01-21 01:18:23 GMT 50.864960 10.352239 40,000 301 434 0
2019-01-21 01:18:20 GMT 50.861252 10.362930 40,000 301 433 0
2019-01-21 01:18:17 GMT 50.858364 10.371094 40,000 301 434 -128
2019-01-21 01:18:14 GMT 50.855293 10.379410 40,000 301 434 64
2019-01-21 01:18:11 GMT 50.849426 10.393066 40,000 301 434 64
2019-01-21 01:18:08 GMT 50.845566 10.403976 40,000 301 434 0
2019-01-21 01:18:05 GMT 50.845566 10.403976 40,000 301 434 0
2019-01-21 01:18:02 GMT 50.842575 10.412218 40,000 301 433 -64
2019-01-21 01:17:59 GMT 50.836716 10.428475 40,000 301 434 -64
2019-01-21 01:17:56 GMT 50.836716 10.428475 40,000 301 434 0
2019-01-21 01:17:53 GMT 50.833786 10.436478 40,000 301 434 64
2019-01-21 01:17:50 GMT 50.830853 10.441971 40,000 301 434 64
2019-01-21 01:17:47 GMT 50.827129 10.452957 40,000 301 434 64
2019-01-21 01:17:44 GMT 50.823990 10.460989 40,000 301 434 0
2019-01-21 01:17:41 GMT 50.820282 10.471975 40,000 301 434 -64
2019-01-21 01:17:38 GMT 50.817993 10.477394 40,000 301 434 -64
2019-01-21 01:17:34 GMT 50.814281 10.485535 40,000 301 434 0
2019-01-21 01:17:31 GMT 50.811127 10.493873 40,000 301 435 0
2019-01-21 01:17:28 GMT 50.807739 10.504563 40,000 301 435 64
2019-01-21 01:17:25 GMT 50.804039 10.512772 40,000 301 435 64
2019-01-21 01:17:22 GMT 50.802036 10.518265 40,000 301 435 0
2019-01-21 01:17:19 GMT 50.798996 10.526535 40,000 301 435 0
2019-01-21 01:17:16 GMT 50.796310 10.534439 40,000 301 435 0
2019-01-21 01:17:13 GMT 50.792263 10.545273 40,000 301 435 0
2019-01-21 01:17:10 GMT 50.788559 10.553704 40,000 301 435 0
2019-01-21 01:17:07 GMT 50.786499 10.558901 40,000 301 434 0
2019-01-21 01:17:04 GMT 50.782379 10.569961 40,000 301 434 0
2019-01-21 01:17:00 GMT 50.777737 10.583649 40,000 301 435 0
2019-01-21 01:16:57 GMT 50.775131 10.588837 40,000 301 434 0
2019-01-21 01:16:53 GMT 50.771687 10.599747 40,000 301 435 0
2019-01-21 01:16:50 GMT 50.768417 10.608116 40,000 301 435 0
2019-01-21 01:16:47 GMT 50.765076 10.616150 40,000 301 435 0
2019-01-21 01:16:44 GMT 50.762375 10.624373 40,000 301 435 0
2019-01-21 01:16:41 GMT 50.755325 10.640704 40,000 301 435 0
2019-01-21 01:16:38 GMT 50.755325 10.640704 40,000 301 435 0
2019-01-21 01:16:35 GMT 50.752693 10.648956 40,000 301 435 0
2019-01-21 01:16:32 GMT 50.749557 10.656961 40,000 301 435 0
2019-01-21 01:16:29 GMT 50.747040 10.662528 40,000 301 435 0
2019-01-21 01:16:26 GMT 50.743561 10.673218 40,000 302 435 0
2019-01-21 01:16:23 GMT 50.740814 10.678711 40,000 302 435 0
2019-01-21 01:16:20 GMT 50.737701 10.686798 40,000 302 435 64
2019-01-21 01:16:17 GMT 50.734589 10.695042 40,000 302 435 64
2019-01-21 01:16:14 GMT 50.730698 10.705954 40,000 302 435 0
2019-01-21 01:16:11 GMT 50.728531 10.711212 40,000 302 435 0
2019-01-21 01:16:08 GMT 50.724564 10.722211 40,000 302 435 64
2019-01-21 01:16:05 GMT 50.722549 10.727704 40,000 302 436 0
2019-01-21 01:16:02 GMT 50.718750 10.738542 40,000 302 435 -64
2019-01-21 01:15:59 GMT 50.712067 10.754799 40,000 302 435 0
2019-01-21 01:15:56 GMT 50.712067 10.754799 40,000 302 435 64
2019-01-21 01:15:53 GMT 50.708469 10.763092 40,000 302 436 -64
2019-01-21 01:15:50 GMT 50.703209 10.779266 40,000 302 436 0
2019-01-21 01:15:47 GMT 50.703209 10.779266 40,000 302 436 -64
2019-01-21 01:15:44 GMT 50.700230 10.784836 40,000 302 436 0
2019-01-21 01:15:41 GMT 50.696690 10.795593 40,000 302 436 0
2019-01-21 01:15:38 GMT 50.693069 10.803718 40,000 302 436 0
2019-01-21 01:15:35 GMT 50.690781 10.808988 40,000 302 436 0
2019-01-21 01:15:32 GMT 50.687565 10.817413 40,000 302 436 0
2019-01-21 01:15:29 GMT 50.683609 10.828171 40,000 302 436 0
2019-01-21 01:15:26 GMT 50.681328 10.833588 40,000 302 436 64
2019-01-21 01:15:23 GMT 50.677746 10.844421 40,000 302 436 64
2019-01-21 01:15:20 GMT 50.674896 10.852414 40,000 302 436 0
2019-01-21 01:15:17 GMT 50.671646 10.860596 40,000 302 435 0
2019-01-21 01:15:14 GMT 50.668991 10.865998 40,000 302 435 -64
2019-01-21 01:15:11 GMT 50.665501 10.876984 40,000 302 436 -64
2019-01-21 01:15:08 GMT 50.661667 10.884921 40,000 302 436 0
2019-01-21 01:15:05 GMT 50.659561 10.890415 40,000 302 436 0
2019-01-21 01:15:02 GMT 50.652233 10.909350 40,000 302 435 0
2019-01-21 01:14:59 GMT 50.652233 10.909350 40,000 302 435 -64
2019-01-21 01:14:56 GMT 50.650093 10.914694 40,000 302 435 0
2019-01-21 01:14:53 GMT 50.646927 10.922940 40,000 302 435 0
2019-01-21 01:14:50 GMT 50.643402 10.933709 40,000 302 435 0
2019-01-21 01:14:47 GMT 50.640884 10.939203 40,000 302 436 0
2019-01-21 01:14:44 GMT 50.636627 10.949900 40,000 302 436 0
2019-01-21 01:14:41 GMT 50.634476 10.955465 40,000 302 436 0
2019-01-21 01:14:38 GMT 50.631050 10.963465 40,000 302 436 64
2019-01-21 01:14:35 GMT 50.627422 10.974451 40,000 302 436 64
2019-01-21 01:14:32 GMT 50.624359 10.982497 40,000 302 436 64
2019-01-21 01:14:29 GMT 50.621227 10.990634 40,000 302 436 0
2019-01-21 01:14:26 GMT 50.618042 10.998760 40,000 302 436 0
2019-01-21 01:14:23 GMT 50.614899 11.006965 40,000 302 436 0
2019-01-21 01:14:20 GMT 50.611908 11.015023 40,000 302 436 0
2019-01-21 01:14:17 GMT 50.608707 11.023221 40,000 302 436 -64
2019-01-21 01:14:14 GMT 50.602238 11.039404 40,000 302 436 0
2019-01-21 01:14:11 GMT 50.602238 11.039404 40,000 302 436 0
2019-01-21 01:14:08 GMT 50.599136 11.047476 40,000 302 436 0
2019-01-21 01:14:05 GMT 50.595905 11.055587 40,000 302 435 0
2019-01-21 01:14:02 GMT 50.593323 11.063594 40,000 302 435 0
2019-01-21 01:13:59 GMT 50.586639 11.080001 40,000 302 435 -64
2019-01-21 01:13:56 GMT 50.586639 11.080001 40,000 302 435 -64
2019-01-21 01:13:53 GMT 50.583847 11.088026 40,000 302 435 0
2019-01-21 01:13:50 GMT 50.580780 11.095975 40,000 302 435 0
2019-01-21 01:13:47 GMT 50.577286 11.104134 40,000 302 435 0
2019-01-21 01:13:44 GMT 50.574631 11.109627 40,000 302 434 0
2019-01-21 01:13:41 GMT 50.570908 11.120317 40,000 302 434 0
2019-01-21 01:13:38 GMT 50.568810 11.125736 40,000 302 434 0
2019-01-21 01:13:35 GMT 50.564949 11.136351 40,000 302 434 0
2019-01-21 01:13:32 GMT 50.562294 11.141918 40,000 302 434 64
2019-01-21 01:13:29 GMT 50.558617 11.152682 40,000 302 434 0
2019-01-21 01:13:26 GMT 50.555637 11.158101 40,000 302 434 0
2019-01-21 01:13:23 GMT 50.552536 11.166085 40,000 302 434 0
2019-01-21 01:13:20 GMT 50.548599 11.176926 40,000 302 434 -64
2019-01-21 01:13:17 GMT 50.545815 11.184750 40,000 302 433 64
2019-01-21 01:13:14 GMT 50.542603 11.192972 40,000 302 434 0
2019-01-21 01:13:11 GMT 50.539810 11.200933 40,000 302 434 0
2019-01-21 01:13:08 GMT 50.536469 11.209163 40,000 302 434 0
2019-01-21 01:13:05 GMT 50.532394 11.219788 40,000 302 433 0
2019-01-21 01:13:02 GMT 50.529785 11.225064 40,000 302 433 0
2019-01-21 01:12:59 GMT 50.527054 11.233075 40,000 302 433 0
2019-01-21 01:12:56 GMT 50.524017 11.241037 40,000 302 433 64
2019-01-21 01:12:53 GMT 50.520817 11.249109 40,000 302 433 64
2019-01-21 01:12:50 GMT 50.517014 11.257300 40,000 302 433 0
2019-01-21 01:12:47 GMT 50.513927 11.265366 40,000 302 433 0
2019-01-21 01:12:44 GMT 50.511200 11.273346 40,000 302 433 0
2019-01-21 01:12:41 GMT 50.507641 11.281326 40,000 302 434 -64
2019-01-21 01:12:38 GMT 50.504150 11.289464 40,000 302 433 -64
2019-01-21 01:12:35 GMT 50.501915 11.297286 40,000 302 433 -64
2019-01-21 01:12:32 GMT 50.498657 11.305438 40,000 302 433 0
2019-01-21 01:12:29 GMT 50.495026 11.313617 40,000 302 432 0
2019-01-21 01:12:26 GMT 50.492603 11.318961 40,000 302 432 0
2019-01-21 01:12:23 GMT 50.489639 11.326832 40,000 302 432 0
2019-01-21 01:12:20 GMT 50.485336 11.337529 40,000 302 432 0
2019-01-21 01:12:17 GMT 50.482784 11.345462 40,000 302 432 0
2019-01-21 01:12:13 GMT 50.479248 11.353647 40,000 302 432 -64
2019-01-21 01:12:10 GMT 50.475769 11.364200 40,000 302 432 0
2019-01-21 01:12:07 GMT 50.471889 11.372186 40,000 302 431 0
2019-01-21 01:12:04 GMT 50.469795 11.377530 40,000 302 432 0
2019-01-21 01:12:01 GMT 50.466164 11.388146 40,000 302 432 0
2019-01-21 01:11:58 GMT 50.459507 11.404180 40,000 302 432 0
2019-01-21 01:11:55 GMT 50.459507 11.404180 40,000 302 432 0
2019-01-21 01:11:52 GMT 50.455994 11.412265 40,000 302 432 0
2019-01-21 01:11:49 GMT 50.453457 11.420288 40,000 302 432 0
2019-01-21 01:11:45 GMT 50.449631 11.428239 40,000 302 431 0
2019-01-21 01:11:42 GMT 50.446472 11.436174 40,000 302 431 0
2019-01-21 01:11:39 GMT 50.443497 11.444285 40,000 302 431 0
2019-01-21 01:11:36 GMT 50.440468 11.452059 40,000 302 431 0
2019-01-21 01:11:33 GMT 50.437134 11.460186 40,000 302 431 0
2019-01-21 01:11:30 GMT 50.434044 11.468093 40,000 302 431 0
2019-01-21 01:11:27 GMT 50.430084 11.478634 40,000 302 431 0
2019-01-21 01:11:24 GMT 50.426926 11.486640 40,000 302 431 0
2019-01-21 01:11:21 GMT 50.423847 11.494668 40,000 302 431 0
2019-01-21 01:11:18 GMT 50.421566 11.499865 40,000 302 429 0
2019-01-21 01:11:15 GMT 50.417797 11.510554 40,000 302 431 0
2019-01-21 01:11:12 GMT 50.415005 11.515973 40,000 302 431 0
2019-01-21 01:11:09 GMT 50.411697 11.526440 40,000 302 430 0
2019-01-21 01:11:06 GMT 50.409092 11.531784 40,000 302 430 0
2019-01-21 01:11:03 GMT 50.405132 11.542325 40,000 302 430 0
2019-01-21 01:11:00 GMT 50.401840 11.550462 40,000 302 430 0
2019-01-21 01:10:57 GMT 50.399223 11.558360 40,000 302 430 0
2019-01-21 01:10:54 GMT 50.395203 11.566146 40,000 302 430 0
2019-01-21 01:10:51 GMT 50.392937 11.574245 40,000 302 430 0
2019-01-21 01:10:48 GMT 50.386826 11.587251 40,000 302 430 0
2019-01-21 01:10:45 GMT 50.386826 11.587251 40,000 302 430 0
2019-01-21 01:10:42 GMT 50.383575 11.597804 40,000 302 429 0
2019-01-21 01:10:39 GMT 50.379902 11.605719 40,000 302 429 0
2019-01-21 01:10:36 GMT 50.376709 11.613778 40,000 302 429 0
2019-01-21 01:10:33 GMT 50.373154 11.621754 40,000 302 429 64
2019-01-21 01:10:30 GMT 50.371105 11.626950 40,000 302 429 64
2019-01-21 01:10:27 GMT 50.367966 11.634883 40,000 302 429 0
2019-01-21 01:10:24 GMT 50.361877 11.650712 40,000 302 429 0
2019-01-21 01:10:21 GMT 50.361877 11.650712 40,000 302 429 0
2019-01-21 01:10:18 GMT 50.357849 11.661192 40,000 302 429 0
2019-01-21 01:10:15 GMT 50.354671 11.669114 40,000 302 428 64
2019-01-21 01:10:12 GMT 50.350899 11.679729 40,000 302 429 64
2019-01-21 01:10:09 GMT 50.348850 11.685073 40,000 302 429 0
2019-01-21 01:10:06 GMT 50.344757 11.695614 40,000 302 429 0
2019-01-21 01:10:02 GMT 50.341778 11.700736 40,000 302 428 0
2019-01-21 01:09:59 GMT 50.338005 11.711352 40,000 302 428 0
2019-01-21 01:09:56 GMT 50.335327 11.719087 40,000 302 428 0
2019-01-21 01:09:53 GMT 50.331116 11.729640 40,000 302 428 0
2019-01-21 01:09:50 GMT 50.329346 11.732211 40,000 302 428 0
2019-01-21 01:09:47 GMT 50.326172 11.740265 40,000 302 428 0
2019-01-21 01:09:44 GMT 50.322647 11.750745 40,000 302 428 0
2019-01-21 01:09:41 GMT 50.319572 11.758712 40,000 302 428 0
2019-01-21 01:09:38 GMT 50.316826 11.763982 40,000 302 428 64
2019-01-21 01:09:35 GMT 50.313099 11.774523 40,000 302 428 0
2019-01-21 01:09:32 GMT 50.310104 11.782259 40,000 302 428 0
2019-01-21 01:09:29 GMT 50.307049 11.790186 40,000 302 428 0
2019-01-21 01:09:26 GMT 50.304211 11.795531 40,000 302 428 64
2019-01-21 01:09:23 GMT 50.301182 11.803399 40,000 302 428 0
2019-01-21 01:09:20 GMT 50.296665 11.816316 40,000 302 428 0
2019-01-21 01:09:17 GMT 50.294769 11.818976 40,000 302 428 0
2019-01-21 01:09:14 GMT 50.291016 11.829457 40,000 302 427 -64
2019-01-21 01:09:11 GMT 50.287823 11.837472 40,000 302 427 0
2019-01-21 01:09:08 GMT 50.285065 11.845213 40,000 302 427 0
2019-01-21 01:09:05 GMT 50.282318 11.850417 40,000 302 427 0
2019-01-21 01:09:02 GMT 50.277859 11.863676 40,000 303 427 0
2019-01-21 01:08:59 GMT 50.276230 11.866174 40,000 303 428 0
2019-01-21 01:08:56 GMT 50.272430 11.876654 40,000 303 427 0
2019-01-21 01:08:53 GMT 50.269527 11.884460 40,000 303 428 0
2019-01-21 01:08:50 GMT 50.266548 11.889805 40,000 303 427 0
2019-01-21 01:08:47 GMT 50.263367 11.897687 40,000 303 427 0
2019-01-21 01:08:44 GMT 50.259705 11.908096 40,000 303 427 0
2019-01-21 01:08:41 GMT 50.256538 11.915786 40,000 303 427 0
2019-01-21 01:08:38 GMT 50.252884 11.923780 40,000 303 427 -64
2019-01-21 01:08:35 GMT 50.250778 11.929056 40,000 303 427 0
2019-01-21 01:08:32 GMT 50.247070 11.939320 40,000 303 427 0
2019-01-21 01:08:29 GMT 50.244507 11.944596 40,000 303 427 0
2019-01-21 01:08:26 GMT 50.240295 11.955149 40,000 303 427 0
2019-01-21 01:08:23 GMT 50.238235 11.960208 40,000 303 427 0
2019-01-21 01:08:20 GMT 50.234161 11.970616 40,000 303 427 0
2019-01-21 01:08:17 GMT 50.230843 11.978661 40,000 303 427 0
2019-01-21 01:08:14 GMT 50.227398 11.988905 40,000 303 427 64
2019-01-21 01:08:11 GMT 50.225647 11.991505 40,000 303 427 64
2019-01-21 01:08:08 GMT 50.221298 12.001985 40,000 303 427 0
2019-01-21 01:08:05 GMT 50.215439 12.017525 40,000 303 427 0
2019-01-21 01:08:02 GMT 50.215439 12.017525 40,000 303 427 0
2019-01-21 01:07:59 GMT 50.212639 12.025501 40,000 303 427 0
2019-01-21 01:07:56 GMT 50.209671 12.033137 40,000 303 427 0
2019-01-21 01:07:53 GMT 50.206123 12.041090 40,000 303 427 0
2019-01-21 01:07:50 GMT 50.202820 12.048810 40,000 303 427 0
2019-01-21 01:07:47 GMT 50.200211 12.056530 40,000 303 427 0
2019-01-21 01:07:44 GMT 50.196487 12.064434 40,000 303 427 0
2019-01-21 01:07:41 GMT 50.194199 12.069566 40,000 303 427 0
2019-01-21 01:07:38 GMT 50.190399 12.080046 40,000 303 427 0
2019-01-21 01:07:35 GMT 50.187454 12.087856 40,000 303 427 0
2019-01-21 01:07:32 GMT 50.183823 12.095799 40,000 303 427 0
2019-01-21 01:07:29 GMT 50.180939 12.103519 40,000 303 427 0
2019-01-21 01:07:25 GMT 50.177307 12.111415 40,000 303 427 0
2019-01-21 01:07:22 GMT 50.173737 12.121751 40,000 303 427 0
2019-01-21 01:07:19 GMT 50.167904 12.134919 40,000 303 427 64
2019-01-21 01:07:16 GMT 50.167904 12.134919 40,000 303 427 0
2019-01-21 01:07:13 GMT 50.162888 12.147915 40,000 303 427 0
2019-01-21 01:07:10 GMT 50.161385 12.150359 40,000 303 427 0
2019-01-21 01:07:07 GMT 50.158264 12.158324 40,000 303 428 0
2019-01-21 01:07:04 GMT 50.154053 12.168587 40,000 303 428 0
2019-01-21 01:07:01 GMT 50.151798 12.176637 40,000 303 428 -64
2019-01-21 01:06:58 GMT 50.149097 12.181611 40,000 303 427 0
2019-01-21 01:06:55 GMT 50.145767 12.189403 40,000 303 427 -64
2019-01-21 01:06:52 GMT 50.142487 12.197348 40,000 303 427 0
2019-01-21 01:06:49 GMT 50.135834 12.215640 40,000 303 427 0
2019-01-21 01:06:46 GMT 50.135834 12.215640 40,000 303 427 0
2019-01-21 01:06:40 GMT 50.129425 12.231325 40,000 303 427 0
2019-01-21 01:06:37 GMT 50.126953 12.236384 40,000 303 427 0
2019-01-21 01:06:34 GMT 50.124191 12.244263 40,000 303 427 0
2019-01-21 01:06:31 GMT 50.120544 12.251996 40,000 303 427 0
2019-01-21 01:06:28 GMT 50.116287 12.262405 40,000 303 428 0
2019-01-21 01:06:25 GMT 50.114182 12.267681 40,000 303 428 0
2019-01-21 01:06:22 GMT 50.110970 12.275663 40,000 303 428 0
2019-01-21 01:06:19 GMT 50.107292 12.285981 40,000 303 428 0
2019-01-21 01:06:16 GMT 50.103149 12.296374 40,000 303 428 0
2019-01-21 01:06:13 GMT 50.101147 12.301644 40,000 303 428 0
2019-01-21 01:06:10 GMT 50.097885 12.309313 40,000 303 428 64
2019-01-21 01:06:07 GMT 50.095093 12.314590 40,000 303 429 0
2019-01-21 01:06:04 GMT 50.091789 12.322355 40,000 303 428 0
2019-01-21 01:06:01 GMT 50.084381 12.340682 40,000 303 428 -64
2019-01-21 01:05:58 GMT 50.084381 12.340682 40,000 303 428 -64
2019-01-21 01:05:55 GMT 50.081642 12.348484 40,000 303 429 0
2019-01-21 01:05:52 GMT 50.077873 12.358728 40,000 303 428 0
2019-01-21 01:05:49 GMT 50.075310 12.364073 40,000 303 429 64
2019-01-21 01:05:46 GMT 50.071308 12.374317 40,000 303 429 64
2019-01-21 01:05:43 GMT 50.069504 12.376894 40,000 303 429 64
2019-01-21 01:05:40 GMT 50.066235 12.384784 40,000 303 431 0
2019-01-21 01:05:37 GMT 50.062881 12.395028 40,000 303 429 0
2019-01-21 01:05:34 GMT 50.059708 12.402986 40,000 303 429 0
2019-01-21 01:05:31 GMT 50.056362 12.410839 40,000 303 430 0
2019-01-21 01:05:28 GMT 50.053207 12.418598 40,000 303 429 0
2019-01-21 01:05:25 GMT 50.050598 12.423802 40,000 303 429 0
2019-01-21 01:05:22 GMT 50.044006 12.439415 40,000 303 429 0
2019-01-21 01:05:19 GMT 50.039932 12.449606 40,000 303 429 64
2019-01-21 01:05:16 GMT 50.039932 12.449606 40,000 303 430 64
2019-01-21 01:05:13 GMT 50.037735 12.454882 40,000 303 430 0
2019-01-21 01:05:10 GMT 50.033981 12.462833 40,000 303 430 0
2019-01-21 01:05:07 GMT 50.030712 12.473120 40,000 303 429 0
2019-01-21 01:05:04 GMT 50.027527 12.480830 40,000 303 430 0
2019-01-21 01:05:01 GMT 50.024643 12.486034 40,000 303 430 0
2019-01-21 01:04:58 GMT 50.017494 12.504223 40,000 303 429 0
2019-01-21 01:04:52 GMT 50.014114 12.512127 40,000 303 430 0
2019-01-21 01:04:49 GMT 50.010132 12.522607 40,000 303 430 0
2019-01-21 01:04:46 GMT 50.008415 12.525231 40,000 303 430 0
2019-01-21 01:04:43 GMT 50.001205 12.543279 40,000 303 431 0
2019-01-21 01:04:40 GMT 50.001205 12.543279 40,000 303 431 0
2019-01-21 01:04:37 GMT 49.998268 12.551138 40,000 303 432 0
2019-01-21 01:04:34 GMT 49.992325 12.564312 40,000 303 432 0
2019-01-21 01:04:31 GMT 49.992325 12.564312 40,000 303 432 64
2019-01-21 01:04:28 GMT 49.988617 12.574648 40,000 303 432 0
2019-01-21 01:04:25 GMT 49.984905 12.582463 40,000 303 432 0
2019-01-21 01:04:22 GMT 49.982765 12.587660 40,000 303 432 0
2019-01-21 01:04:19 GMT 49.975616 12.606016 40,000 303 432 0
2019-01-21 01:04:13 GMT 49.973007 12.611148 40,000 303 432 0
2019-01-21 01:04:10 GMT 49.969730 12.619134 40,000 303 432 0
2019-01-21 01:04:07 GMT 49.961910 12.640067 40,000 303 432 0
2019-01-21 01:04:03 GMT 49.961910 12.640067 40,000 303 432 0
2019-01-21 01:04:00 GMT 49.958038 12.647721 40,000 303 432 0
2019-01-21 01:03:57 GMT 49.951767 12.663695 40,000 303 432 0
2019-01-21 01:03:54 GMT 49.951767 12.663695 40,000 303 432 0
2019-01-21 01:03:51 GMT 49.948364 12.671542 40,000 303 432 0
2019-01-21 01:03:48 GMT 49.946175 12.676590 40,000 303 433 0
2019-01-21 01:03:45 GMT 49.941799 12.687056 40,000 303 433 0
2019-01-21 01:03:42 GMT 49.940170 12.692401 40,000 303 433 0
2019-01-21 01:03:39 GMT 49.935982 12.703016 40,000 303 433 0
2019-01-21 01:03:36 GMT 49.932999 12.710893 40,000 303 433 0
2019-01-21 01:03:33 GMT 49.929604 12.718679 40,000 303 432 -64
2019-01-21 01:03:30 GMT 49.926949 12.723875 40,000 303 432 0
2019-01-21 01:03:27 GMT 49.923084 12.734416 40,000 303 433 0
2019-01-21 01:03:24 GMT 49.920319 12.742261 40,000 303 433 0
2019-01-21 01:03:21 GMT 49.916988 12.750153 40,000 303 433 0
2019-01-21 01:03:18 GMT 49.913361 12.758090 40,000 303 433 0
2019-01-21 01:03:15 GMT 49.910191 12.765965 40,000 303 434 0
2019-01-21 01:03:12 GMT 49.907864 12.771161 40,000 304 434 0
2019-01-21 01:03:09 GMT 49.903439 12.781479 40,000 304 434 0
2019-01-21 01:03:06 GMT 49.900879 12.786601 40,000 304 433 64
2019-01-21 01:03:03 GMT 49.898117 12.794446 40,000 304 434 64
2019-01-21 01:03:00 GMT 49.893494 12.804565 40,000 304 435 0
2019-01-21 01:02:57 GMT 49.890079 12.812508 40,000 304 434 0
2019-01-21 01:02:54 GMT 49.886581 12.820105 40,000 304 434 0
2019-01-21 01:02:51 GMT 49.883842 12.828023 40,000 304 434 0
2019-01-21 01:02:48 GMT 49.881516 12.833219 40,000 304 434 0
2019-01-21 01:02:45 GMT 49.877563 12.840994 40,000 305 434 0
2019-01-21 01:02:42 GMT 49.873489 12.851113 40,000 304 435 0
2019-01-21 01:02:38 GMT 49.868683 12.861376 40,000 304 435 0
2019-01-21 01:02:35 GMT 49.865734 12.869221 40,000 305 434 0
2019-01-21 01:02:32 GMT 49.862320 12.877061 40,000 304 435 0
2019-01-21 01:02:29 GMT 49.859310 12.884736 40,000 304 435 0
2019-01-21 01:02:26 GMT 49.855270 12.892456 40,000 304 435 0
2019-01-21 01:02:23 GMT 49.853069 12.897727 40,000 304 435 0
2019-01-21 01:02:20 GMT 49.849812 12.905224 40,000 304 435 0
2019-01-21 01:02:17 GMT 49.846207 12.913200 40,000 304 435 0
2019-01-21 01:02:14 GMT 49.841900 12.923411 40,000 304 435 0
2019-01-21 01:02:10 GMT 49.838451 12.930982 40,000 304 435 -64
2019-01-21 01:02:07 GMT 49.831238 12.949195 40,000 305 434 0
2019-01-21 01:02:04 GMT 49.831238 12.949195 40,000 305 434 0
2019-01-21 01:02:01 GMT 49.828354 12.954182 40,000 305 434 0
2019-01-21 01:01:58 GMT 49.825001 12.962086 40,000 305 434 0
2019-01-21 01:01:55 GMT 49.821762 12.969722 40,000 305 434 0
2019-01-21 01:01:52 GMT 49.816528 12.982425 40,000 305 434 0
2019-01-21 01:01:49 GMT 49.814152 12.987770 40,000 305 434 0
2019-01-21 01:01:46 GMT 49.809860 12.995453 40,000 305 434 0
2019-01-21 01:01:43 GMT 49.807449 13.003062 40,000 305 433 0
2019-01-21 01:01:40 GMT 49.803406 13.010776 40,000 305 434 0
2019-01-21 01:01:36 GMT 49.798828 13.021184 40,000 304 434 0
2019-01-21 01:01:33 GMT 49.795998 13.028820 40,000 304 434 0
2019-01-21 01:01:30 GMT 49.793251 13.034091 40,000 304 434 -64
2019-01-21 01:01:27 GMT 49.788734 13.044186 40,000 304 433 0
2019-01-21 01:01:24 GMT 49.785965 13.052119 40,000 304 433 0
2019-01-21 01:01:21 GMT 49.782593 13.059626 40,000 304 433 0
2019-01-21 01:01:18 GMT 49.778641 13.067515 40,000 304 433 0
2019-01-21 01:01:15 GMT 49.776260 13.072719 40,000 304 433 64
2019-01-21 01:01:12 GMT 49.771912 13.082982 40,000 304 433 64
2019-01-21 01:01:09 GMT 49.769669 13.088114 40,000 304 433 0
2019-01-21 01:01:06 GMT 49.766392 13.095852 40,000 305 433 64
2019-01-21 01:01:02 GMT 49.761612 13.108569 40,000 305 433 0
2019-01-21 01:00:59 GMT 49.758453 13.113700 40,000 305 434 0
2019-01-21 01:00:55 GMT 49.751770 13.128879 40,000 305 433 0
2019-01-21 01:00:52 GMT 49.749390 13.134011 40,000 305 433 0
2019-01-21 01:00:49 GMT 49.747147 13.139142 40,000 305 433 0
2019-01-21 01:00:46 GMT 49.744045 13.146997 40,000 305 433 0
2019-01-21 01:00:43 GMT 49.740227 13.157167 40,000 305 433 0
2019-01-21 01:00:40 GMT 49.736801 13.164729 40,000 305 433 0
2019-01-21 01:00:37 GMT 49.733337 13.172533 40,000 305 433 0
2019-01-21 01:00:34 GMT 49.729797 13.180052 40,000 305 432 -64
2019-01-21 01:00:30 GMT 49.724991 13.190243 40,000 305 432 -64
2019-01-21 01:00:27 GMT 49.722610 13.195303 40,000 305 432 0
2019-01-21 01:00:24 GMT 49.718674 13.205566 40,000 305 432 0
2019-01-21 01:00:21 GMT 49.714371 13.215830 40,000 305 432 64
2019-01-21 01:00:18 GMT 49.711487 13.220817 40,000 305 432 64
2019-01-21 01:00:15 GMT 49.709290 13.226093 40,000 305 432 64
2019-01-21 01:00:12 GMT 49.705547 13.233626 40,000 305 432 0
2019-01-21 01:00:09 GMT 49.701962 13.243796 40,000 305 432 0
2019-01-21 01:00:05 GMT 49.697449 13.254114 40,000 305 431 0
2019-01-21 01:00:02 GMT 49.693634 13.261655 40,000 305 431 -64
2019-01-21 00:59:59 GMT 49.690697 13.269480 40,000 305 431 0
2019-01-21 00:59:56 GMT 49.687859 13.274379 40,000 305 431 0
2019-01-21 00:59:53 GMT 49.684040 13.284549 40,000 305 431 0
2019-01-21 00:59:50 GMT 49.680176 13.292301 40,000 305 430 0
2019-01-21 00:59:47 GMT 49.677475 13.297360 40,000 305 431 64
2019-01-21 00:59:44 GMT 49.673401 13.307551 40,000 305 431 0
2019-01-21 00:59:41 GMT 49.670540 13.315059 40,000 305 431 -64
2019-01-21 00:59:38 GMT 49.667561 13.320329 40,000 305 431 0
2019-01-21 00:59:35 GMT 49.662643 13.330464 40,000 305 431 0
2019-01-21 00:59:32 GMT 49.660263 13.337836 40,000 305 431 0
2019-01-21 00:59:29 GMT 49.656246 13.345642 40,000 305 431 0
2019-01-21 00:59:26 GMT 49.653828 13.350616 40,000 305 431 0
2019-01-21 00:59:23 GMT 49.650150 13.360711 40,000 305 431 0
2019-01-21 00:59:20 GMT 49.646893 13.365907 40,000 305 431 0
2019-01-21 00:59:17 GMT 49.642841 13.376077 40,000 305 431 0
2019-01-21 00:59:14 GMT 49.640419 13.380976 40,000 305 431 0
2019-01-21 00:59:11 GMT 49.635998 13.391146 40,000 305 431 0
2019-01-21 00:59:08 GMT 49.633530 13.396194 40,000 305 431 0
2019-01-21 00:59:05 GMT 49.629478 13.406290 40,000 305 431 0
2019-01-21 00:59:02 GMT 49.626297 13.414018 40,000 305 431 0
2019-01-21 00:58:59 GMT 49.622402 13.421656 40,000 305 431 0
2019-01-21 00:58:56 GMT 49.619385 13.429268 40,000 305 431 0
2019-01-21 00:58:53 GMT 49.616547 13.434328 40,000 305 431 0
2019-01-21 00:58:50 GMT 49.612766 13.444371 40,000 305 431 0
2019-01-21 00:58:47 GMT 49.608997 13.451868 40,000 305 431 0
2019-01-21 00:58:44 GMT 49.605927 13.459553 40,000 305 431 0
2019-01-21 00:58:41 GMT 49.602573 13.467011 40,000 305 431 0
2019-01-21 00:58:38 GMT 49.599472 13.474804 40,000 305 430 0
2019-01-21 00:58:34 GMT 49.595078 13.482377 40,000 305 430 0
2019-01-21 00:58:31 GMT 49.587479 13.500029 40,000 305 430 -64
2019-01-21 00:58:28 GMT 49.587479 13.500029 40,000 305 430 0
2019-01-21 00:58:24 GMT 49.584045 13.507542 40,000 305 430 0
2019-01-21 00:58:21 GMT 49.579807 13.517489 40,000 305 430 64
2019-01-21 00:58:18 GMT 49.575714 13.527659 40,000 305 430 64
2019-01-21 00:58:15 GMT 49.572826 13.532632 40,000 305 430 0
2019-01-21 00:58:12 GMT 49.569103 13.542802 40,000 305 430 0
2019-01-21 00:58:09 GMT 49.566868 13.547776 40,000 305 430 0
2019-01-21 00:58:06 GMT 49.563034 13.555539 40,000 305 430 0
2019-01-21 00:58:03 GMT 49.556767 13.568041 40,000 305 430 0
2019-01-21 00:58:00 GMT 49.556767 13.568041 40,000 305 430 0
2019-01-21 00:57:57 GMT 49.553467 13.575560 40,000 305 430 0
2019-01-21 00:57:54 GMT 49.549484 13.585607 40,000 305 430 0
2019-01-21 00:57:51 GMT 49.543312 13.598253 40,000 305 430 -64
2019-01-21 00:57:48 GMT 49.543312 13.598253 40,000 304 430 -64
2019-01-21 00:57:45 GMT 49.539917 13.605989 40,000 304 427 0
2019-01-21 00:57:42 GMT 49.536209 13.616253 40,000 303 429 0
2019-01-21 00:57:39 GMT 49.532654 13.623789 40,000 303 430 0
2019-01-21 00:57:36 GMT 49.530373 13.629060 40,000 303 429 0
2019-01-21 00:57:33 GMT 49.527054 13.636852 40,000 303 429 0
2019-01-21 00:57:30 GMT 49.523808 13.644648 40,000 303 430 0
2019-01-21 00:57:27 GMT 49.520454 13.654818 40,000 303 430 0
2019-01-21 00:57:24 GMT 49.517349 13.662655 40,000 303 430 -64
2019-01-21 00:57:21 GMT 49.514648 13.667860 40,000 303 430 0
2019-01-21 00:57:18 GMT 49.507233 13.685699 40,000 303 430 0
2019-01-21 00:57:15 GMT 49.507233 13.685699 40,000 303 430 0
2019-01-21 00:57:12 GMT 49.504166 13.693591 40,000 303 430 64
2019-01-21 00:57:09 GMT 49.501274 13.701287 40,000 303 430 0
2019-01-21 00:57:06 GMT 49.498032 13.708914 40,000 303 430 0
2019-01-21 00:57:03 GMT 49.494293 13.716653 40,000 303 430 0
2019-01-21 00:57:00 GMT 49.490936 13.724381 40,000 303 430 0
2019-01-21 00:56:56 GMT 49.487091 13.734717 40,000 303 430 0
2019-01-21 00:56:52 GMT 49.482971 13.745125 40,000 303 430 0
2019-01-21 00:56:48 GMT 49.478027 13.755461 40,000 303 430 0
2019-01-21 00:56:45 GMT 49.475784 13.760593 40,000 303 430 0
2019-01-21 00:56:42 GMT 49.472305 13.770712 40,000 303 430 0
2019-01-21 00:56:39 GMT 49.468597 13.778637 40,000 303 430 0
2019-01-21 00:56:36 GMT 49.465164 13.786324 40,000 303 430 0
2019-01-21 00:56:33 GMT 49.463150 13.791456 40,000 303 430 0
2019-01-21 00:56:29 GMT 49.457935 13.804173 40,000 303 430 0
2019-01-21 00:56:26 GMT 49.455330 13.809443 40,000 303 430 0
2019-01-21 00:56:23 GMT 49.452118 13.817042 40,000 303 430 0
2019-01-21 00:56:19 GMT 49.447136 13.830006 40,000 303 430 64
2019-01-21 00:56:16 GMT 49.443832 13.837714 40,000 303 431 64
2019-01-21 00:56:13 GMT 49.441498 13.842773 40,000 303 431 64
2019-01-21 00:56:09 GMT 49.435963 13.855764 40,000 303 431 0
2019-01-21 00:56:06 GMT 49.434193 13.860960 40,000 303 431 0
2019-01-21 00:56:03 GMT 49.426987 13.878972 40,000 303 431 -64
2019-01-21 00:56:00 GMT 49.426987 13.878972 40,000 303 430 -64
2019-01-21 00:55:57 GMT 49.423115 13.886502 40,000 303 430 -64
2019-01-21 00:55:54 GMT 49.421112 13.891778 40,000 303 430 0
2019-01-21 00:55:51 GMT 49.417343 13.902042 40,000 303 430 0
2019-01-21 00:55:48 GMT 49.414215 13.909818 40,000 303 431 0
2019-01-21 00:55:45 GMT 49.411972 13.914889 40,000 303 430 0
2019-01-21 00:55:42 GMT 49.408638 13.922641 40,000 303 430 0
2019-01-21 00:55:39 GMT 49.404446 13.932977 40,000 303 430 64
2019-01-21 00:55:36 GMT 49.400711 13.940594 40,000 303 431 0
2019-01-21 00:55:33 GMT 49.397976 13.948372 40,000 303 431 0
2019-01-21 00:55:30 GMT 49.393833 13.958636 40,000 303 431 0
2019-01-21 00:55:27 GMT 49.392059 13.961299 40,000 303 431 -64
2019-01-21 00:55:24 GMT 49.388805 13.968827 40,000 303 431 -64
2019-01-21 00:55:21 GMT 49.385082 13.979235 40,000 303 430 0
2019-01-21 00:55:18 GMT 49.382290 13.984367 40,000 303 431 0
2019-01-21 00:55:15 GMT 49.379517 13.992145 40,000 303 431 0
2019-01-21 00:55:12 GMT 49.375168 14.002498 40,000 303 431 0
2019-01-21 00:55:08 GMT 49.370819 14.012709 40,000 303 431 0
2019-01-21 00:55:05 GMT 49.368229 14.017976 40,000 303 431 0
2019-01-21 00:55:02 GMT 49.365204 14.025710 40,000 303 431 0
2019-01-21 00:54:59 GMT 49.360107 14.038415 40,000 303 431 64
2019-01-21 00:54:56 GMT 49.358643 14.043626 40,000 303 431 64
2019-01-21 00:54:53 GMT 49.355392 14.048838 40,000 303 431 0
2019-01-21 00:54:50 GMT 49.352493 14.056501 40,000 303 431 0
2019-01-21 00:54:47 GMT 49.348679 14.066764 40,000 303 431 0
2019-01-21 00:54:44 GMT 49.345596 14.074684 40,000 303 431 0
2019-01-21 00:54:41 GMT 49.339508 14.087436 40,000 303 431 0
2019-01-21 00:54:38 GMT 49.339508 14.087436 40,000 303 431 0
2019-01-21 00:54:35 GMT 49.335831 14.097772 40,000 303 431 0
2019-01-21 00:54:32 GMT 49.331772 14.105459 40,000 303 431 0
2019-01-21 00:54:29 GMT 49.329033 14.113023 40,000 303 431 0
2019-01-21 00:54:26 GMT 49.326233 14.120742 40,000 303 431 0
2019-01-21 00:54:23 GMT 49.323074 14.128635 40,000 303 431 0
2019-01-21 00:54:19 GMT 49.319138 14.136235 40,000 303 431 0
2019-01-21 00:54:16 GMT 49.315765 14.144030 40,000 303 431 -64
2019-01-21 00:54:13 GMT 49.312637 14.151799 40,000 303 430 0
2019-01-21 00:54:10 GMT 49.308655 14.162081 40,000 303 431 0
2019-01-21 00:54:06 GMT 49.304031 14.172363 40,000 303 431 64
2019-01-21 00:54:03 GMT 49.301243 14.179880 40,000 303 430 0
2019-01-21 00:53:59 GMT 49.297485 14.187786 40,000 303 431 0
2019-01-21 00:53:56 GMT 49.294006 14.197928 40,000 303 431 0
2019-01-21 00:53:53 GMT 49.290627 14.205684 40,000 303 430 0
2019-01-21 00:53:50 GMT 49.288441 14.210888 40,000 303 431 -64
2019-01-21 00:53:47 GMT 49.284294 14.221007 40,000 303 431 0
2019-01-21 00:53:44 GMT 49.280869 14.228633 40,000 303 431 0
2019-01-21 00:53:41 GMT 49.277733 14.236330 40,000 303 431 0
2019-01-21 00:53:37 GMT 49.273449 14.246593 40,000 303 431 0
2019-01-21 00:53:34 GMT 49.270111 14.254479 40,000 303 431 0
2019-01-21 00:53:31 GMT 49.266979 14.261916 40,000 303 431 -64
2019-01-21 00:53:28 GMT 49.263702 14.269620 40,000 303 431 -64
2019-01-21 00:53:25 GMT 49.259949 14.277456 40,000 303 431 0
2019-01-21 00:53:22 GMT 49.257385 14.285114 40,000 303 431 0
2019-01-21 00:53:19 GMT 49.250061 14.300255 40,000 304 431 0
2019-01-21 00:53:16 GMT 49.250061 14.300255 40,000 304 431 0
2019-01-21 00:53:13 GMT 49.246960 14.308030 40,000 304 430 0
2019-01-21 00:53:10 GMT 49.244110 14.315679 40,000 304 431 0
2019-01-21 00:53:07 GMT 49.241272 14.320749 40,000 304 430 0
2019-01-21 00:53:03 GMT 49.236877 14.331031 40,000 304 431 -64
2019-01-21 00:53:00 GMT 49.233444 14.340961 40,000 304 431 0
2019-01-21 00:52:57 GMT 49.226669 14.356384 40,000 304 430 0
2019-01-21 00:52:54 GMT 49.223221 14.363901 40,000 304 430 0
2019-01-21 00:52:48 GMT 49.220520 14.368888 40,000 304 430 0
2019-01-21 00:52:45 GMT 49.212513 14.389271 40,000 304 430 0
2019-01-21 00:52:42 GMT 49.212513 14.389271 40,000 304 430 0
2019-01-21 00:52:39 GMT 49.210831 14.391738 40,000 304 430 0
2019-01-21 00:52:36 GMT 49.207207 14.399390 40,000 304 430 -64
2019-01-21 00:52:33 GMT 49.203388 14.409364 40,000 303 429 0
2019-01-21 00:52:30 GMT 49.199936 14.417161 40,000 304 429 0
2019-01-21 00:52:27 GMT 49.196182 14.427302 40,000 303 430 0
2019-01-21 00:52:24 GMT 49.194218 14.429891 40,000 303 429 0
2019-01-21 00:52:21 GMT 49.191010 14.437373 40,000 303 429 0
2019-01-21 00:52:17 GMT 49.187073 14.447585 40,000 303 429 0
2019-01-21 00:52:14 GMT 49.182861 14.457797 40,000 303 429 0
2019-01-21 00:52:11 GMT 49.175457 14.475716 40,000 304 429 0
2019-01-21 00:52:08 GMT 49.175457 14.475716 40,000 304 429 -64
2019-01-21 00:52:04 GMT 49.172241 14.483290 40,000 304 429 -64
2019-01-21 00:52:01 GMT 49.168800 14.490822 40,000 304 429 0
2019-01-21 00:51:58 GMT 49.162422 14.506001 40,000 304 429 0
2019-01-21 00:51:55 GMT 49.162422 14.506001 40,000 304 429 0
2019-01-21 00:51:52 GMT 49.159676 14.511205 40,000 304 429 0
2019-01-21 00:51:49 GMT 49.156357 14.518714 40,000 304 429 0
2019-01-21 00:51:46 GMT 49.152786 14.528926 40,000 304 429 64
2019-01-21 00:51:43 GMT 49.149059 14.536575 40,000 304 429 64
2019-01-21 00:51:39 GMT 49.145432 14.546621 40,000 304 429 0
2019-01-21 00:51:36 GMT 49.142029 14.554279 40,000 303 428 0
2019-01-21 00:51:33 GMT 49.137863 14.564350 40,000 304 428 0
2019-01-21 00:51:30 GMT 49.135620 14.569561 40,000 304 428 0
2019-01-21 00:51:27 GMT 49.132256 14.576906 40,000 304 428 0
2019-01-21 00:51:24 GMT 49.128021 14.587097 40,000 304 428 0
2019-01-21 00:51:21 GMT 49.126373 14.589632 40,000 304 428 0
2019-01-21 00:51:18 GMT 49.123226 14.597216 40,000 304 427 0
2019-01-21 00:51:15 GMT 49.119499 14.604950 40,000 304 428 64
2019-01-21 00:51:11 GMT 49.113373 14.619845 40,000 304 428 64
2019-01-21 00:51:08 GMT 49.112240 14.622514 40,000 304 428 64
2019-01-21 00:51:05 GMT 49.108421 14.632416 40,000 304 428 64
2019-01-21 00:51:02 GMT 49.104675 14.640127 40,000 304 428 0
2019-01-21 00:50:59 GMT 49.101345 14.647594 40,000 304 428 -64
2019-01-21 00:50:55 GMT 49.096970 14.657713 40,000 304 427 -64
2019-01-21 00:50:51 GMT 49.093060 14.667832 40,000 304 427 0
2019-01-21 00:50:47 GMT 49.088497 14.677951 40,000 304 427 0
2019-01-21 00:50:43 GMT 49.083981 14.687998 40,000 304 427 0
2019-01-21 00:50:40 GMT 49.081795 14.692985 40,000 304 427 -64
2019-01-21 00:50:37 GMT 49.077465 14.703104 40,000 304 427 0
2019-01-21 00:50:34 GMT 49.075134 14.708091 40,000 304 427 0
2019-01-21 00:50:31 GMT 49.071785 14.718210 40,000 304 427 0
2019-01-21 00:50:28 GMT 49.068146 14.725764 40,000 304 427 0
2019-01-21 00:50:25 GMT 49.064476 14.733244 40,000 304 427 0
2019-01-21 00:50:22 GMT 49.062103 14.738448 40,000 304 427 0
2019-01-21 00:50:19 GMT 49.057774 14.748495 40,000 304 427 0
2019-01-21 00:50:16 GMT 49.055725 14.753554 40,000 304 427 0
2019-01-21 00:50:12 GMT 49.050385 14.765977 40,000 304 427 0
2019-01-21 00:50:09 GMT 49.048599 14.771189 40,000 304 427 -64
2019-01-21 00:50:06 GMT 49.044926 14.778707 40,000 304 427 -64
2019-01-21 00:50:03 GMT 49.040966 14.788682 40,000 304 427 -64
2019-01-21 00:49:59 GMT 49.036499 14.798873 40,000 304 427 0
2019-01-21 00:49:56 GMT 49.033310 14.806331 40,000 304 426 0
2019-01-21 00:49:52 GMT 49.029327 14.816331 40,000 304 426 64
2019-01-21 00:49:49 GMT 49.024117 14.828869 40,000 304 427 64
2019-01-21 00:49:46 GMT 49.019737 14.838988 40,000 304 427 64
2019-01-21 00:49:43 GMT 49.019737 14.838988 40,000 304 427 64
2019-01-21 00:49:40 GMT 49.013313 14.854094 40,000 304 427 0
2019-01-21 00:49:37 GMT 49.013313 14.854094 40,000 304 427 0
2019-01-21 00:49:34 GMT 49.009506 14.861615 40,000 304 427 0
2019-01-21 00:49:31 GMT 49.006844 14.868983 40,000 304 427 0
2019-01-21 00:49:28 GMT 49.003601 14.876474 40,000 304 427 0
2019-01-21 00:49:25 GMT 49.000328 14.884017 40,000 304 427 0
2019-01-21 00:49:22 GMT 48.996552 14.891686 40,000 304 427 0
2019-01-21 00:49:19 GMT 48.992111 14.901616 40,000 304 427 0
2019-01-21 00:49:16 GMT 48.989914 14.906616 40,000 304 427 0
2019-01-21 00:49:13 GMT 48.986595 14.913940 40,000 304 427 0
2019-01-21 00:49:09 GMT 48.982452 14.923987 40,000 304 427 0
2019-01-21 00:49:06 GMT 48.979610 14.929119 40,000 304 427 0
2019-01-21 00:49:03 GMT 48.977051 14.936547 40,000 304 426 0
2019-01-21 00:49:00 GMT 48.972977 14.946547 40,000 304 426 0
2019-01-21 00:48:57 GMT 48.968998 14.953910 40,000 304 426 0
2019-01-21 00:48:54 GMT 48.966671 14.959114 40,000 304 427 0
2019-01-21 00:48:51 GMT 48.962944 14.969089 40,000 304 427 0
2019-01-21 00:48:45 GMT 48.955730 14.983906 40,000 304 427 0
2019-01-21 00:48:42 GMT 48.954006 14.988821 40,000 304 427 0
2019-01-21 00:48:39 GMT 48.949863 14.998940 40,000 304 426 0
2019-01-21 00:48:36 GMT 48.946518 15.006268 40,000 304 426 0
2019-01-21 00:48:33 GMT 48.943161 15.013829 40,000 304 426 0
2019-01-21 00:48:30 GMT 48.939697 15.021128 40,000 304 426 0
2019-01-21 00:48:27 GMT 48.937042 15.026057 40,000 304 426 0
2019-01-21 00:48:24 GMT 48.934082 15.033561 40,000 304 426 0
2019-01-21 00:48:21 GMT 48.930313 15.041128 40,000 304 426 0
2019-01-21 00:48:18 GMT 48.926102 15.051058 40,000 304 426 0
2019-01-21 00:48:14 GMT 48.921432 15.061059 40,000 304 426 0
2019-01-21 00:48:11 GMT 48.919327 15.066129 40,000 304 426 0
2019-01-21 00:48:08 GMT 48.915604 15.076061 40,000 304 426 0
2019-01-21 00:48:05 GMT 48.913010 15.080919 40,000 304 426 0
2019-01-21 00:48:02 GMT 48.909691 15.088421 40,000 303 426 0
2019-01-21 00:47:58 GMT 48.904953 15.101271 40,000 303 425 0
2019-01-21 00:47:55 GMT 48.902481 15.106272 40,000 302 426 0
2019-01-21 00:47:52 GMT 48.895817 15.123982 40,000 302 426 0
2019-01-21 00:47:49 GMT 48.895817 15.123982 40,000 302 426 0
2019-01-21 00:47:46 GMT 48.892685 15.131695 40,000 302 426 0
2019-01-21 00:47:43 GMT 48.886600 15.144509 40,000 302 426 64
2019-01-21 00:47:37 GMT 48.882923 15.154628 40,000 302 426 0
2019-01-21 00:47:34 GMT 48.879730 15.162189 40,000 302 426 -64
2019-01-21 00:47:30 GMT 48.875149 15.174938 40,000 302 426 0
2019-01-21 00:47:27 GMT 48.871582 15.182683 40,000 302 426 64
2019-01-21 00:47:24 GMT 48.870026 15.185274 40,000 302 426 64
2019-01-21 00:47:21 GMT 48.867142 15.192895 40,000 302 426 0
2019-01-21 00:47:18 GMT 48.862885 15.202965 40,000 302 427 0
2019-01-21 00:47:15 GMT 48.860207 15.210644 40,000 302 427 0
2019-01-21 00:47:12 GMT 48.856064 15.220763 40,000 302 427 0
2019-01-21 00:47:09 GMT 48.853874 15.225677 40,000 302 427 -64
2019-01-21 00:47:06 GMT 48.851360 15.230882 40,000 302 426 0
2019-01-21 00:47:03 GMT 48.848190 15.238671 40,000 302 427 0
2019-01-21 00:47:00 GMT 48.845261 15.246060 40,000 302 427 0
2019-01-21 00:46:57 GMT 48.840134 15.258883 40,000 302 427 64
2019-01-21 00:46:54 GMT 48.838978 15.261383 40,000 302 427 0
2019-01-21 00:46:51 GMT 48.835255 15.271502 40,000 302 427 0
2019-01-21 00:46:46 GMT 48.830292 15.284166 40,000 302 427 0
2019-01-21 00:46:42 GMT 48.825291 15.296944 40,000 302 427 0
2019-01-21 00:46:39 GMT 48.823105 15.302004 40,000 302 427 0
2019-01-21 00:46:35 GMT 48.819397 15.309730 40,000 302 427 0
2019-01-21 00:46:32 GMT 48.816818 15.317182 40,000 302 427 0
2019-01-21 00:46:29 GMT 48.812347 15.327590 40,000 302 427 0
2019-01-21 00:46:26 GMT 48.808483 15.337565 40,000 302 427 -64
2019-01-21 00:46:23 GMT 48.805923 15.342769 40,000 302 427 0
2019-01-21 00:46:19 GMT 48.802200 15.352815 40,000 302 427 0
2019-01-21 00:46:16 GMT 48.798897 15.360621 40,000 302 427 0
2019-01-21 00:46:13 GMT 48.795311 15.368066 40,000 302 427 0
2019-01-21 00:46:10 GMT 48.792755 15.375930 40,000 302 427 0
2019-01-21 00:46:07 GMT 48.789631 15.383534 40,000 302 427 0
2019-01-21 00:46:04 GMT 48.786346 15.391071 40,000 302 427 -64
2019-01-21 00:46:01 GMT 48.783783 15.396353 40,000 302 428 0
2019-01-21 00:45:58 GMT 48.780834 15.403772 40,000 302 428 0
2019-01-21 00:45:55 GMT 48.776691 15.414035 40,000 302 428 0
2019-01-21 00:45:52 GMT 48.774502 15.419095 40,000 302 428 0
2019-01-21 00:45:49 GMT 48.770405 15.429358 40,000 302 428 0
2019-01-21 00:45:46 GMT 48.768032 15.434418 40,000 302 429 0
2019-01-21 00:45:43 GMT 48.765427 15.441988 40,000 302 429 0
2019-01-21 00:45:40 GMT 48.761791 15.449668 40,000 302 429 0
2019-01-21 00:45:37 GMT 48.757931 15.460004 40,000 302 428 0
2019-01-21 00:45:34 GMT 48.754066 15.470196 40,000 302 428 0
2019-01-21 00:45:31 GMT 48.752884 15.472835 40,000 302 428 0
2019-01-21 00:45:27 GMT 48.747875 15.485446 40,000 303 429 -64
2019-01-21 00:45:24 GMT 48.744690 15.493047 40,000 303 429 -64
2019-01-21 00:45:21 GMT 48.741806 15.498188 40,000 303 429 0
2019-01-21 00:45:17 GMT 48.736607 15.510816 40,000 303 429 0
2019-01-21 00:45:14 GMT 48.734024 15.518541 40,000 303 430 0
2019-01-21 00:45:11 GMT 48.731323 15.523541 40,000 302 430 64
2019-01-21 00:45:07 GMT 48.727524 15.533682 40,000 303 430 0
2019-01-21 00:45:04 GMT 48.723450 15.544035 40,000 303 430 0
2019-01-21 00:45:01 GMT 48.720127 15.551726 40,000 303 430 0
2019-01-21 00:44:58 GMT 48.716995 15.559317 40,000 302 430 -64
2019-01-21 00:44:55 GMT 48.714294 15.564317 40,000 303 430 -64
2019-01-21 00:44:52 GMT 48.710129 15.574458 40,000 311 432 -64
2019-01-21 00:44:49 GMT 48.707512 15.581938 40,000 305 431 0
2019-01-21 00:44:46 GMT 48.704674 15.587070 40,000 305 431 0
2019-01-21 00:44:43 GMT 48.700485 15.596972 40,000 307 431 0
2019-01-21 00:44:39 GMT 48.695271 15.606440 40,000 308 431 64
2019-01-21 00:44:36 GMT 48.692047 15.613615 40,000 310 432 64
2019-01-21 00:44:33 GMT 48.688797 15.618192 40,000 311 432 0
2019-01-21 00:44:30 GMT 48.684174 15.627418 40,000 311 432 64
2019-01-21 00:44:27 GMT 48.680744 15.634412 40,000 311 432 64
2019-01-21 00:44:24 GMT 48.677116 15.638894 40,000 311 431 -64
2019-01-21 00:44:21 GMT 48.672787 15.648145 40,000 311 433 -64
2019-01-21 00:44:18 GMT 48.668701 15.654954 40,000 311 433 -64
2019-01-21 00:44:15 GMT 48.664036 15.661950 40,000 311 433 0
2019-01-21 00:44:12 GMT 48.661331 15.668828 40,000 311 433 0
2019-01-21 00:44:09 GMT 48.653275 15.682561 40,000 311 433 64
2019-01-21 00:44:06 GMT 48.653275 15.682561 40,000 311 433 0
2019-01-21 00:44:02 GMT 48.648239 15.691646 40,000 311 433 0
2019-01-21 00:43:58 GMT 48.638847 15.707919 40,000 311 433 -64
2019-01-21 00:43:55 GMT 48.638847 15.707919 40,000 311 433 -64
2019-01-21 00:43:52 GMT 48.635731 15.712401 40,000 311 433 -64
2019-01-21 00:43:49 GMT 48.631943 15.719323 40,000 311 434 0
2019-01-21 00:43:46 GMT 48.624023 15.733056 40,000 311 434 0
2019-01-21 00:43:40 GMT 48.619583 15.742281 40,000 311 433 0
2019-01-21 00:43:37 GMT 48.615341 15.749118 40,000 311 434 0
2019-01-21 00:43:34 GMT 48.606773 15.762996 40,000 311 434 0
2019-01-21 00:43:31 GMT 48.606773 15.762996 40,000 311 434 64
2019-01-21 00:43:28 GMT 48.604073 15.767621 40,000 311 434 -64
2019-01-21 00:43:25 GMT 48.600632 15.774536 40,000 311 434 -64
2019-01-21 00:43:21 GMT 48.595001 15.783621 40,000 311 434 64
2019-01-21 00:43:18 GMT 48.589783 15.792917 40,000 311 433 128
2019-01-21 00:43:15 GMT 48.586292 15.799785 40,000 311 433 128
2019-01-21 00:43:11 GMT 48.582184 15.806580 40,000 311 433 64
2019-01-21 00:43:07 GMT 48.574951 15.820383 40,000 311 434 0
2019-01-21 00:43:04 GMT 48.572433 15.825031 40,000 311 434 0
2019-01-21 00:43:01 GMT 48.569000 15.829609 40,000 311 434 -64
2019-01-21 00:42:57 GMT 48.563107 15.841056 40,000 311 434 -64
2019-01-21 00:42:54 GMT 48.559849 15.845538 40,000 311 434 0
2019-01-21 00:42:51 GMT 48.552681 15.859271 40,000 311 434 0
2019-01-21 00:42:48 GMT 48.548126 15.866300 40,000 311 434 0
2019-01-21 00:42:45 GMT 48.548126 15.866300 40,000 311 434 0
2019-01-21 00:42:42 GMT 48.542953 15.875244 40,000 311 434 -64
2019-01-21 00:42:39 GMT 48.539692 15.882111 40,000 311 433 0
2019-01-21 00:42:36 GMT 48.535583 15.889047 40,000 311 434 0
2019-01-21 00:42:33 GMT 48.528473 15.900542 40,000 311 433 0
2019-01-21 00:42:27 GMT 48.524414 15.907358 40,000 311 433 64
2019-01-21 00:42:24 GMT 48.519058 15.916513 40,000 311 433 0
2019-01-21 00:42:20 GMT 48.515766 15.923454 40,000 311 433 0
2019-01-21 00:42:16 GMT 48.507805 15.937042 40,000 311 433 0
2019-01-21 00:42:13 GMT 48.504871 15.941740 40,000 311 433 0
2019-01-21 00:42:10 GMT 48.501984 15.946366 40,000 311 433 0
2019-01-21 00:42:07 GMT 48.497955 15.953134 40,000 311 433 64
2019-01-21 00:42:03 GMT 48.493378 15.962290 40,000 311 433 0
2019-01-21 00:42:00 GMT 48.487885 15.971375 40,000 311 433 0
2019-01-21 00:41:57 GMT 48.484436 15.978313 40,000 311 433 0
2019-01-21 00:41:54 GMT 48.480896 15.982939 40,000 311 433 0
2019-01-21 00:41:50 GMT 48.475636 15.992118 40,000 311 434 0
2019-01-21 00:41:47 GMT 48.470749 16.001299 40,000 311 433 0
2019-01-21 00:41:43 GMT 48.465767 16.010405 40,000 311 433 0
2019-01-21 00:41:40 GMT 48.461975 16.017080 40,000 311 433 0
2019-01-21 00:41:37 GMT 48.459274 16.021658 40,000 311 433 0
2019-01-21 00:41:34 GMT 48.455292 16.028620 40,000 311 433 -64
2019-01-21 00:41:31 GMT 48.448917 16.039967 40,000 311 433 0
2019-01-21 00:41:28 GMT 48.445862 16.044617 40,000 311 433 0
2019-01-21 00:41:25 GMT 48.443802 16.049124 40,000 311 433 0
2019-01-21 00:41:22 GMT 48.438538 16.058279 40,000 311 433 -64
2019-01-21 00:41:19 GMT 48.435837 16.062786 40,000 311 433 -64
2019-01-21 00:41:16 GMT 48.426708 16.078636 40,000 311 432 0
2019-01-21 00:41:13 GMT 48.426708 16.078636 40,000 311 432 0
2019-01-21 00:41:09 GMT 48.417206 16.094620 40,000 311 432 64
2019-01-21 00:41:06 GMT 48.417206 16.094620 40,000 311 432 0
2019-01-21 00:41:03 GMT 48.413860 16.101402 40,000 311 433 64
2019-01-21 00:41:00 GMT 48.409836 16.108280 40,000 311 433 64
2019-01-21 00:40:57 GMT 48.407272 16.112719 40,000 312 432 0
2019-01-21 00:40:53 GMT 48.400688 16.124100 40,000 312 432 -64
2019-01-21 00:40:50 GMT 48.396194 16.130959 40,000 312 432 0
2019-01-21 00:40:44 GMT 48.388824 16.144550 40,000 312 432 0
2019-01-21 00:40:41 GMT 48.386215 16.149057 40,000 312 432 0
2019-01-21 00:40:38 GMT 48.380905 16.157930 40,000 312 432 0
2019-01-21 00:40:35 GMT 48.377224 16.164791 40,000 312 432 0
2019-01-21 00:40:32 GMT 48.372116 16.171522 40,000 311 431 0
2019-01-21 00:40:28 GMT 48.367905 16.180536 40,000 311 431 0
2019-01-21 00:40:24 GMT 48.363865 16.187344 40,000 311 431 0
2019-01-21 00:40:21 GMT 48.357815 16.196449 40,000 311 431 0
2019-01-21 00:40:17 GMT 48.352737 16.205484 40,000 311 431 0
2019-01-21 00:40:14 GMT 48.343277 16.221313 40,000 312 430 0
2019-01-21 00:40:10 GMT 48.343277 16.221313 40,000 312 430 0
2019-01-21 00:40:04 GMT 48.337238 16.232660 40,000 311 430 0
2019-01-21 00:40:01 GMT 48.332489 16.241480 40,000 311 430 0
2019-01-21 00:39:58 GMT 48.327805 16.248426 40,000 311 430 0
2019-01-21 00:39:54 GMT 48.323921 16.255140 40,000 311 430 0
2019-01-21 00:39:51 GMT 48.318375 16.266245 40,000 311 430 0
2019-01-21 00:39:47 GMT 48.314575 16.270752 40,000 311 430 0
2019-01-21 00:39:43 GMT 48.309494 16.279837 40,000 312 429 0
2019-01-21 00:39:40 GMT 48.304596 16.288921 40,000 312 429 -64
2019-01-21 00:39:37 GMT 48.301392 16.295544 40,000 312 429 0
2019-01-21 00:39:34 GMT 48.296448 16.302301 40,000 311 430 0
2019-01-21 00:39:28 GMT 48.289707 16.313684 40,000 311 430 0
2019-01-21 00:39:25 GMT 48.284634 16.322720 40,000 311 429 64
2019-01-21 00:39:22 GMT 48.281525 16.329346 40,000 311 429 0
2019-01-21 00:39:18 GMT 48.275803 16.338430 40,000 311 429 64
2019-01-21 00:39:15 GMT 48.273880 16.342867 40,000 311 429 64
2019-01-21 00:39:12 GMT 48.267178 16.353945 40,000 311 429 64
2019-01-21 00:39:09 GMT 48.265182 16.356319 40,000 311 429 0
2019-01-21 00:39:06 GMT 48.261017 16.365334 40,000 311 429 0
2019-01-21 00:39:02 GMT 48.255524 16.374418 40,000 311 430 0
2019-01-21 00:38:59 GMT 48.252182 16.378784 40,000 311 430 0
2019-01-21 00:38:56 GMT 48.246601 16.390156 40,000 312 429 0
2019-01-21 00:38:50 GMT 48.239548 16.401251 40,000 312 429 0
2019-01-21 00:38:47 GMT 48.237076 16.405687 40,000 312 429 0
2019-01-21 00:38:44 GMT 48.231766 16.414843 40,000 312 429 -64
2019-01-21 00:38:39 GMT 48.225906 16.423716 40,000 312 429 -64
2019-01-21 00:38:36 GMT 48.221146 16.432730 40,000 312 429 -64
2019-01-21 00:38:33 GMT 48.218582 16.437166 40,000 312 429 0
2019-01-21 00:38:30 GMT 48.214573 16.443714 40,000 312 429 0
2019-01-21 00:38:27 GMT 48.210056 16.452822 40,000 312 429 0
2019-01-21 00:38:24 GMT 48.206985 16.457157 40,000 312 429 0
2019-01-21 00:38:21 GMT 48.202332 16.463858 40,000 312 429 0
2019-01-21 00:38:18 GMT 48.198929 16.470530 40,000 312 429 -64
2019-01-21 00:38:15 GMT 48.193577 16.479420 40,000 312 429 0
2019-01-21 00:38:12 GMT 48.190155 16.486183 40,000 312 429 0
2019-01-21 00:38:09 GMT 48.187042 16.490549 40,000 312 429 0
2019-01-21 00:38:06 GMT 48.183056 16.497272 40,000 312 428 0
2019-01-21 00:38:03 GMT 48.174362 16.512875 40,000 312 428 64
2019-01-21 00:37:59 GMT 48.174362 16.512875 40,000 312 429 64
2019-01-21 00:37:56 GMT 48.169418 16.521818 40,000 312 429 0
2019-01-21 00:37:53 GMT 48.163925 16.530691 40,000 312 429 0
2019-01-21 00:37:50 GMT 48.160675 16.535057 40,000 312 429 0
2019-01-21 00:37:46 GMT 48.156010 16.544003 40,000 312 429 0
2019-01-21 00:37:43 GMT 48.153122 16.548363 40,000 312 429 0
2019-01-21 00:37:40 GMT 48.147766 16.557220 40,000 312 429 64
2019-01-21 00:37:37 GMT 48.143951 16.563791 40,000 312 428 0
2019-01-21 00:37:34 GMT 48.139389 16.570610 40,000 312 429 0
2019-01-21 00:37:31 GMT 48.136551 16.575073 40,000 312 429 -64
2019-01-21 00:37:28 GMT 48.132641 16.581610 40,000 312 429 0
2019-01-21 00:37:25 GMT 48.127613 16.590624 40,000 312 428 0
2019-01-21 00:37:22 GMT 48.124512 16.597252 40,000 312 428 0
2019-01-21 00:37:19 GMT 48.120941 16.601646 40,000 311 428 0
2019-01-21 00:37:16 GMT 48.115322 16.613018 40,000 311 427 0
2019-01-21 00:37:11 GMT 48.110550 16.619843 40,000 310 428 0
2019-01-21 00:37:08 GMT 48.106430 16.628769 40,000 310 428 0
2019-01-21 00:37:05 GMT 48.102100 16.635626 40,000 310 428 0
2019-01-21 00:37:02 GMT 48.099449 16.640133 40,000 310 428 0
2019-01-21 00:36:58 GMT 48.093979 16.651497 40,000 310 428 64
2019-01-21 00:36:54 GMT 48.088715 16.660698 40,000 310 428 0
2019-01-21 00:36:51 GMT 48.085556 16.665161 40,000 310 428 0
2019-01-21 00:36:47 GMT 48.079945 16.676613 40,000 310 428 0
2019-01-21 00:36:44 GMT 48.072464 16.687889 40,000 311 427 0
2019-01-21 00:36:41 GMT 48.068584 16.694712 40,000 310 428 0
2019-01-21 00:36:38 GMT 48.068584 16.694712 40,000 310 428 0
2019-01-21 00:36:34 GMT 48.064159 16.703796 40,000 310 428 0
2019-01-21 00:36:31 GMT 48.055206 16.719612 40,000 311 428 0
2019-01-21 00:36:28 GMT 48.055206 16.719612 40,000 311 428 0
2019-01-21 00:36:25 GMT 48.051311 16.726332 40,000 311 427 64
2019-01-21 00:36:19 GMT 48.044403 16.737671 40,000 311 427 0
2019-01-21 00:36:16 GMT 48.040699 16.744362 40,000 311 427 0
2019-01-21 00:36:13 GMT 48.036942 16.751266 40,000 311 427 -64
2019-01-21 00:36:10 GMT 48.032879 16.757954 40,000 311 427 -128
2019-01-21 00:36:07 GMT 48.028736 16.767109 40,000 311 427 -64
2019-01-21 00:36:04 GMT 48.025383 16.771475 40,000 311 427 -64
2019-01-21 00:36:01 GMT 48.021332 16.780489 40,000 311 427 0
2019-01-21 00:35:57 GMT 48.014236 16.791916 40,000 310 428 128
2019-01-21 00:35:54 GMT 48.012905 16.794081 40,000 310 428 128
2019-01-21 00:35:51 GMT 48.007927 16.803097 40,000 311 427 0
2019-01-21 00:35:48 GMT 48.002991 16.812040 40,000 311 427 -64
2019-01-21 00:35:45 GMT 48.001511 16.814438 40,000 311 427 -64
2019-01-21 00:35:42 GMT 47.997639 16.821054 40,000 311 427 -64
2019-01-21 00:35:39 GMT 47.993122 16.830210 40,000 311 427 0
2019-01-21 00:35:36 GMT 47.989864 16.834576 40,000 311 427 64
2019-01-21 00:35:33 GMT 47.984558 16.843731 40,000 311 427 64
2019-01-21 00:35:29 GMT 47.980320 16.852816 40,000 311 427 0
2019-01-21 00:35:26 GMT 47.977108 16.857182 40,000 311 427 0
2019-01-21 00:35:23 GMT 47.973129 16.863876 40,000 311 427 -64
2019-01-21 00:35:19 GMT 47.968048 16.872871 40,000 311 427 -64
2019-01-21 00:35:16 GMT 47.961887 16.884155 40,000 311 427 64
2019-01-21 00:35:13 GMT 47.956009 16.895462 40,000 311 427 0
2019-01-21 00:35:10 GMT 47.956009 16.895462 40,000 311 426 0
2019-01-21 00:35:07 GMT 47.952896 16.899857 40,000 311 427 0
2019-01-21 00:35:04 GMT 47.948227 16.908989 40,000 311 426 0
2019-01-21 00:35:01 GMT 47.944977 16.913383 40,000 311 426 0
2019-01-21 00:34:57 GMT 47.936516 16.929157 40,000 311 426 0
2019-01-21 00:34:51 GMT 47.932526 16.935905 40,000 311 426 0
2019-01-21 00:34:48 GMT 47.928368 16.942537 40,000 311 426 64
2019-01-21 00:34:44 GMT 47.923233 16.953827 40,000 311 426 -64
2019-01-21 00:34:41 GMT 47.919151 16.960356 40,000 311 426 0
2019-01-21 00:34:37 GMT 47.913750 16.969440 40,000 311 426 0
2019-01-21 00:34:34 GMT 47.908772 16.978313 40,000 311 425 0
2019-01-21 00:34:31 GMT 47.906395 16.982752 40,000 311 425 0
2019-01-21 00:34:28 GMT 47.902905 16.987328 40,000 311 425 0
2019-01-21 00:34:24 GMT 47.897507 16.998390 40,000 311 426 64
2019-01-21 00:34:20 GMT 47.893501 17.005217 40,000 311 425 0
2019-01-21 00:34:17 GMT 47.889679 17.011986 40,000 311 425 0
2019-01-21 00:34:14 GMT 47.885216 17.018738 40,000 311 425 0
2019-01-21 00:34:11 GMT 47.880840 17.027611 40,000 311 426 64
2019-01-21 00:34:08 GMT 47.877136 17.034302 40,000 311 426 0
2019-01-21 00:34:04 GMT 47.868038 17.050146 40,000 311 426 -64
2019-01-21 00:34:01 GMT 47.868038 17.050146 40,000 311 425 -64
2019-01-21 00:33:56 GMT 47.861389 17.061150 40,000 311 426 -64
2019-01-21 00:33:53 GMT 47.859146 17.065681 40,000 311 426 0
2019-01-21 00:33:50 GMT 47.854538 17.072472 40,000 311 426 64
2019-01-21 00:33:47 GMT 47.850723 17.079140 40,000 313 426 -64
2019-01-21 00:33:43 GMT 47.845413 17.090078 40,000 313 426 0
2019-01-21 00:33:40 GMT 47.841595 17.094234 40,000 314 427 -64
2019-01-21 00:33:37 GMT 47.837448 17.100700 40,000 315 427 -64
2019-01-21 00:33:33 GMT 47.831818 17.109009 40,000 316 427 64
2019-01-21 00:33:30 GMT 47.826828 17.117111 40,000 318 427 -64
2019-01-21 00:33:27 GMT 47.822788 17.123037 40,000 319 427 -64
2019-01-21 00:33:23 GMT 47.817581 17.128853 40,000 319 427 64
2019-01-21 00:33:20 GMT 47.812546 17.136337 40,000 321 427 0
2019-01-21 00:33:17 GMT 47.808079 17.141911 40,000 322 428 0
2019-01-21 00:33:13 GMT 47.801373 17.149023 40,000 323 428 0
2019-01-21 00:33:10 GMT 47.796982 17.154465 40,000 323 428 0
2019-01-21 00:33:06 GMT 47.791645 17.159870 40,000 323 428 -64
2019-01-21 00:33:03 GMT 47.784393 17.168884 40,000 323 428 0
2019-01-21 00:32:59 GMT 47.779076 17.174236 40,000 323 428 0
2019-01-21 00:32:55 GMT 47.774643 17.179665 40,000 323 427 0
2019-01-21 00:32:52 GMT 47.769112 17.185081 40,000 323 427 0
2019-01-21 00:32:49 GMT 47.764526 17.190376 40,000 323 427 64
2019-01-21 00:32:46 GMT 47.759571 17.195856 40,000 323 427 64
2019-01-21 00:32:42 GMT 47.752853 17.204727 40,000 323 428 -64
2019-01-21 00:32:39 GMT 47.747841 17.210083 40,000 323 428 -64
2019-01-21 00:32:36 GMT 47.743835 17.213745 40,000 323 428 -64
2019-01-21 00:32:32 GMT 47.738155 17.220787 40,000 323 427 0
2019-01-21 00:32:29 GMT 47.733215 17.226219 40,000 323 428 0
2019-01-21 00:32:25 GMT 47.726852 17.233360 40,000 323 427 0
2019-01-21 00:32:21 GMT 47.719910 17.242338 40,000 323 428 0
2019-01-21 00:32:15 GMT 47.711472 17.251213 40,000 323 428 0
2019-01-21 00:32:11 GMT 47.700169 17.263817 40,000 323 428 -64
2019-01-21 00:32:05 GMT 47.695358 17.269066 40,000 323 428 0
2019-01-21 00:32:02 GMT 47.689362 17.276207 40,000 323 428 0
2019-01-21 00:31:59 GMT 47.683914 17.283279 40,000 323 428 0
2019-01-21 00:31:54 GMT 47.679035 17.288677 40,000 323 428 -64
2019-01-21 00:31:50 GMT 47.670189 17.297623 40,000 323 428 0
2019-01-21 00:31:47 GMT 47.665394 17.303043 40,000 323 428 0
2019-01-21 00:31:43 GMT 47.661392 17.308273 40,000 323 428 0
2019-01-21 00:31:40 GMT 47.655804 17.313679 40,000 323 428 0
2019-01-21 00:31:37 GMT 47.650265 17.320932 40,000 323 428 0
2019-01-21 00:31:34 GMT 47.647144 17.324453 40,000 323 428 64
2019-01-21 00:31:31 GMT 47.640537 17.331636 40,000 323 428 0
2019-01-21 00:31:28 GMT 47.630760 17.342272 40,000 323 428 0
2019-01-21 00:31:24 GMT 47.630760 17.342272 40,000 323 428 0
2019-01-21 00:31:20 GMT 47.624336 17.349314 40,000 323 428 0
2019-01-21 00:31:17 GMT 47.620056 17.354691 40,000 323 428 0
2019-01-21 00:31:14 GMT 47.614655 17.361832 40,000 323 428 -64
2019-01-21 00:31:11 GMT 47.608646 17.367203 40,000 323 428 0
2019-01-21 00:31:08 GMT 47.605316 17.372337 40,000 323 428 0
2019-01-21 00:31:05 GMT 47.601196 17.375977 40,000 323 428 0
2019-01-21 00:31:01 GMT 47.592041 17.386688 40,000 323 428 0
2019-01-21 00:30:58 GMT 47.590538 17.388399 40,000 323 428 0
2019-01-21 00:30:55 GMT 47.584812 17.395582 40,000 323 428 0
2019-01-21 00:30:51 GMT 47.579269 17.401039 40,000 323 428 0
2019-01-21 00:30:48 GMT 47.568752 17.413471 40,000 323 428 -64
2019-01-21 00:30:45 GMT 47.568752 17.413471 40,000 323 429 -64
2019-01-21 00:30:42 GMT 47.558231 17.424175 40,000 323 429 0
2019-01-21 00:30:38 GMT 47.553391 17.431288 40,000 323 429 64
2019-01-21 00:30:35 GMT 47.553391 17.431288 40,000 323 429 64
2019-01-21 00:30:32 GMT 47.549248 17.434952 40,000 323 429 64
2019-01-21 00:30:28 GMT 47.541843 17.443966 40,000 323 429 0
2019-01-21 00:30:24 GMT 47.536102 17.450958 40,000 323 428 -64
2019-01-21 00:30:21 GMT 47.532532 17.454666 40,000 323 428 -64
2019-01-21 00:30:18 GMT 47.526344 17.461641 40,000 323 429 -64
2019-01-21 00:30:15 GMT 47.521084 17.467134 40,000 323 429 0
2019-01-21 00:30:12 GMT 47.517822 17.470655 40,000 323 429 0
2019-01-21 00:30:07 GMT 47.510010 17.479523 40,000 323 429 0
2019-01-21 00:30:04 GMT 47.505257 17.484953 40,000 323 429 0
2019-01-21 00:30:01 GMT 47.501266 17.490440 40,000 323 429 64
2019-01-21 00:29:58 GMT 47.495087 17.497375 40,000 323 429 0
2019-01-21 00:29:55 GMT 47.490406 17.502769 40,000 323 428 0
2019-01-21 00:29:52 GMT 47.485657 17.508087 40,000 323 428 0
2019-01-21 00:29:48 GMT 47.478653 17.515297 40,000 323 428 0
2019-01-21 00:29:45 GMT 47.475357 17.518867 40,000 323 428 0
2019-01-21 00:29:42 GMT 47.469406 17.525871 40,000 323 428 0
2019-01-21 00:29:37 GMT 47.461170 17.534815 40,000 323 427 64
2019-01-21 00:29:34 GMT 47.457867 17.538336 40,000 323 428 64
2019-01-21 00:29:31 GMT 47.452881 17.543587 40,000 323 428 0
2019-01-21 00:29:26 GMT 47.444923 17.552561 40,000 323 427 -64
2019-01-21 00:29:23 GMT 47.441254 17.557869 40,000 323 428 -128
2019-01-21 00:29:20 GMT 47.436684 17.563194 40,000 323 428 -64
2019-01-21 00:29:17 GMT 47.430908 17.568443 40,000 323 428 -64
2019-01-21 00:29:14 GMT 47.425369 17.575584 40,000 323 428 0
2019-01-21 00:29:10 GMT 47.419647 17.580942 40,000 323 428 0
2019-01-21 00:29:07 GMT 47.414757 17.587984 40,000 323 428 64
2019-01-21 00:29:04 GMT 47.409531 17.593369 40,000 323 428 64
2019-01-21 00:29:00 GMT 47.404888 17.598549 40,000 323 428 64
2019-01-21 00:28:56 GMT 47.397354 17.607307 40,000 323 429 -64
2019-01-21 00:28:53 GMT 47.393555 17.611015 40,000 323 429 -64
2019-01-21 00:28:50 GMT 47.388317 17.616156 40,000 323 429 -64
2019-01-21 00:28:46 GMT 47.380169 17.625029 40,000 323 429 0
2019-01-21 00:28:43 GMT 47.376984 17.628593 40,000 323 429 64
2019-01-21 00:28:39 GMT 47.371033 17.635666 40,000 323 429 64
2019-01-21 00:28:36 GMT 47.366482 17.640875 40,000 323 429 64
2019-01-21 00:28:33 GMT 47.361557 17.646172 40,000 323 428 -64
2019-01-21 00:28:29 GMT 47.355835 17.653175 40,000 323 428 0
2019-01-21 00:28:26 GMT 47.350887 17.658409 40,000 323 429 -64
2019-01-21 00:28:23 GMT 47.345070 17.665524 40,000 323 429 -64
2019-01-21 00:28:19 GMT 47.339310 17.670891 40,000 323 429 0
2019-01-21 00:28:16 GMT 47.334362 17.676016 40,000 323 429 64
2019-01-21 00:28:13 GMT 47.329288 17.683060 40,000 323 429 64
2019-01-21 00:28:09 GMT 47.323097 17.690170 40,000 323 429 0
2019-01-21 00:28:06 GMT 47.318489 17.693764 40,000 323 429 0
2019-01-21 00:28:03 GMT 47.313412 17.700806 40,000 323 429 0
2019-01-21 00:27:59 GMT 47.307316 17.707779 40,000 323 429 0
2019-01-21 00:27:56 GMT 47.301727 17.713188 40,000 323 429 0
2019-01-21 00:27:53 GMT 47.290558 17.725525 40,000 323 429 0
2019-01-21 00:27:48 GMT 47.290558 17.725525 40,000 323 429 0
2019-01-21 00:27:45 GMT 47.281387 17.736158 40,000 323 428 0
2019-01-21 00:27:42 GMT 47.281387 17.736158 40,000 323 429 0
2019-01-21 00:27:38 GMT 47.274960 17.743273 40,000 323 428 0
2019-01-21 00:27:35 GMT 47.269329 17.750315 40,000 323 428 0
2019-01-21 00:27:32 GMT 47.265278 17.753836 40,000 323 429 64
2019-01-21 00:27:29 GMT 47.259087 17.760948 40,000 323 429 0
2019-01-21 00:27:26 GMT 47.254990 17.766266 40,000 323 428 0
2019-01-21 00:27:22 GMT 47.249359 17.771513 40,000 323 429 0
2019-01-21 00:27:18 GMT 47.242931 17.778696 40,000 323 429 -64
2019-01-21 00:27:15 GMT 47.237625 17.785599 40,000 323 429 -64
2019-01-21 00:27:11 GMT 47.232834 17.790985 40,000 323 429 -64
2019-01-21 00:27:08 GMT 47.226471 17.798058 40,000 323 429 0
2019-01-21 00:27:05 GMT 47.221611 17.803274 40,000 323 429 0
2019-01-21 00:27:02 GMT 47.217468 17.806795 40,000 323 429 0
2019-01-21 00:26:57 GMT 47.201065 17.826073 40,000 323 429 0
2019-01-21 00:26:52 GMT 47.201065 17.826073 40,000 323 429 0
2019-01-21 00:26:47 GMT 47.193649 17.833145 40,000 323 429 0
2019-01-21 00:26:44 GMT 47.189167 17.838488 40,000 323 429 0
2019-01-21 00:26:41 GMT 47.185318 17.843651 40,000 323 428 0
2019-01-21 00:26:37 GMT 47.176365 17.852571 40,000 323 428 0
2019-01-21 00:26:34 GMT 47.173244 17.856024 40,000 323 427 0
2019-01-21 00:26:31 GMT 47.168747 17.861366 40,000 323 427 0
2019-01-21 00:26:28 GMT 47.161701 17.870249 40,000 323 428 0
2019-01-21 00:26:25 GMT 47.152863 17.878944 40,000 323 429 64
2019-01-21 00:26:21 GMT 47.152863 17.878944 40,000 323 429 0
2019-01-21 00:26:15 GMT 47.138889 17.894686 40,000 323 429 0
2019-01-21 00:26:12 GMT 47.138889 17.894686 40,000 323 429 -64
2019-01-21 00:26:05 GMT 47.127960 17.907097 40,000 323 428 -64
2019-01-21 00:26:01 GMT 47.120827 17.915743 40,000 323 428 0
2019-01-21 00:25:55 GMT 47.112213 17.924538 40,000 323 428 64
2019-01-21 00:25:51 GMT 47.105209 17.931610 40,000 323 428 64
2019-01-21 00:25:46 GMT 47.096329 17.942047 40,000 323 428 0
2019-01-21 00:25:43 GMT 47.092339 17.945604 40,000 323 428 0
2019-01-21 00:25:40 GMT 47.085960 17.954195 40,000 324 429 0
2019-01-21 00:25:34 GMT 47.078323 17.961168 40,000 324 428 -64
2019-01-21 00:25:31 GMT 47.074402 17.966423 40,000 324 428 -64
2019-01-21 00:25:22 GMT 47.060078 17.982155 40,000 324 427 0
2019-01-21 00:25:19 GMT 47.055176 17.987297 40,000 324 428 0
2019-01-21 00:25:15 GMT 47.046810 17.995958 40,000 324 427 64
2019-01-21 00:25:09 GMT 47.039749 18.004807 40,000 324 428 0
2019-01-21 00:25:04 GMT 47.030563 18.013424 40,000 324 428 0
2019-01-21 00:25:00 GMT 47.023224 18.022110 40,000 324 428 -64
2019-01-21 00:24:53 GMT 47.014206 18.032478 40,000 324 428 0
2019-01-21 00:24:49 GMT 47.006973 18.039345 40,000 324 428 -64
2019-01-21 00:24:42 GMT 46.995255 18.053215 40,000 324 427 0
2019-01-21 00:24:39 GMT 46.991043 18.056648 40,000 324 427 0
2019-01-21 00:24:33 GMT 46.982025 18.067017 40,000 324 427 0
2019-01-21 00:24:29 GMT 46.976257 18.074020 40,000 324 427 0
2019-01-21 00:24:26 GMT 46.970695 18.079271 40,000 324 427 0
2019-01-21 00:24:22 GMT 46.965435 18.086172 40,000 324 427 0
2019-01-21 00:24:19 GMT 46.959366 18.091324 40,000 324 427 0
2019-01-21 00:24:13 GMT 46.948814 18.103567 40,000 324 427 0
2019-01-21 00:24:10 GMT 46.944672 18.108627 40,000 324 427 -64
2019-01-21 00:24:02 GMT 46.933037 18.120892 40,000 323 427 0
2019-01-21 00:23:59 GMT 46.928101 18.125931 40,000 323 427 0
2019-01-21 00:23:55 GMT 46.922379 18.132935 40,000 323 427 0
2019-01-21 00:23:51 GMT 46.914459 18.141598 40,000 323 427 0
2019-01-21 00:23:42 GMT 46.896332 18.160744 40,000 323 427 0
2019-01-21 00:23:39 GMT 46.896332 18.160744 40,000 323 426 0
2019-01-21 00:23:32 GMT 46.884430 18.174545 40,000 323 426 0
2019-01-21 00:23:28 GMT 46.879826 18.179838 40,000 323 426 0
2019-01-21 00:23:21 GMT 46.868042 18.191917 40,000 323 427 0
2019-01-21 00:23:18 GMT 46.863953 18.197067 40,000 323 427 0
2019-01-21 00:23:11 GMT 46.851337 18.211006 40,000 323 427 0
2019-01-21 00:23:08 GMT 46.836113 18.228310 40,000 324 427 0
2019-01-21 00:23:01 GMT 46.836113 18.228310 40,000 324 427 0
2019-01-21 00:22:58 GMT 46.831596 18.231743 40,000 324 427 0
2019-01-21 00:22:50 GMT 46.818832 18.247353 40,000 324 426 0
2019-01-21 00:22:47 GMT 46.815536 18.250771 40,000 324 427 0
2019-01-21 00:22:40 GMT 46.798782 18.267853 40,000 324 427 0
2019-01-21 00:22:30 GMT 46.786697 18.281652 40,000 324 427 0
2019-01-21 00:22:27 GMT 46.783035 18.285135 40,000 324 427 -64
2019-01-21 00:22:19 GMT 46.770172 18.298868 40,000 324 428 -64
2019-01-21 00:22:16 GMT 46.766285 18.303978 40,000 324 428 0
2019-01-21 00:22:09 GMT 46.753876 18.316086 40,000 324 428 0
2019-01-21 00:22:06 GMT 46.749992 18.321350 40,000 324 428 0
2019-01-21 00:21:58 GMT 46.734818 18.336868 40,000 324 428 0
2019-01-21 00:21:52 GMT 46.727646 18.345451 40,000 324 428 0
2019-01-21 00:21:49 GMT 46.717499 18.355820 40,000 324 428 64
2019-01-21 00:21:46 GMT 46.717499 18.355820 40,000 324 428 0
2019-01-21 00:21:42 GMT 46.711308 18.362686 40,000 324 428 0
2019-01-21 00:21:37 GMT 46.703255 18.371338 40,000 324 429 0
2019-01-21 00:21:34 GMT 46.698647 18.376556 40,000 324 429 -64
2019-01-21 00:21:31 GMT 46.693863 18.381535 40,000 324 429 -64
2019-01-21 00:21:26 GMT 46.685703 18.390152 40,000 324 428 0
2019-01-21 00:21:19 GMT 46.673134 18.403954 40,000 324 429 -64
2019-01-21 00:21:15 GMT 46.669281 18.409201 40,000 324 429 0
2019-01-21 00:21:08 GMT 46.656097 18.423000 40,000 324 429 0
2019-01-21 00:21:05 GMT 46.653305 18.426552 40,000 324 429 0
2019-01-21 00:20:58 GMT 46.640919 18.438629 40,000 324 429 0
2019-01-21 00:20:55 GMT 46.636917 18.443834 40,000 324 429 0
2019-01-21 00:20:49 GMT 46.627579 18.454151 40,000 324 429 0
2019-01-21 00:20:46 GMT 46.621880 18.459297 40,000 324 430 0
2019-01-21 00:20:37 GMT 46.606472 18.476669 40,000 324 430 0
2019-01-21 00:20:34 GMT 46.603165 18.480103 40,000 324 430 0
2019-01-21 00:20:26 GMT 46.589813 18.495550 40,000 324 430 -64
2019-01-21 00:20:17 GMT 46.575466 18.511070 40,000 324 430 0
2019-01-21 00:20:14 GMT 46.570766 18.514641 40,000 324 431 -64
2019-01-21 00:20:07 GMT 46.559692 18.526701 40,000 324 430 0
2019-01-21 00:20:04 GMT 46.555077 18.531807 40,000 324 430 0
2019-01-21 00:19:57 GMT 46.543762 18.543850 40,000 324 430 0
2019-01-21 00:19:54 GMT 46.538738 18.549110 40,000 324 430 0
2019-01-21 00:19:46 GMT 46.526073 18.562706 40,000 324 431 0
2019-01-21 00:19:43 GMT 46.521194 18.567966 40,000 324 431 0
2019-01-21 00:19:33 GMT 46.505676 18.585182 40,000 324 430 0
2019-01-21 00:19:26 GMT 46.493820 18.598915 40,000 324 430 0
2019-01-21 00:19:23 GMT 46.489792 18.602198 40,000 324 430 -64
2019-01-21 00:19:16 GMT 46.477753 18.615997 40,025 324 429 -64
2019-01-21 00:19:12 GMT 46.472958 18.621071 39,950 324 429 320
2019-01-21 00:19:05 GMT 46.461044 18.633146 39,950 324 429 512
2019-01-21 00:19:02 GMT 46.456898 18.638237 39,850 324 429 320
2019-01-21 00:18:56 GMT 46.444885 18.650028 39,900 324 429 320
2019-01-21 00:18:52 GMT 46.440701 18.655197 39,875 324 428 320
2019-01-21 00:18:45 GMT 46.429321 18.667177 39,825 324 428 448
2019-01-21 00:18:42 GMT 46.423893 18.672295 39,825 324 428 448
2019-01-21 00:18:35 GMT 46.412796 18.684128 39,750 324 427 512
2019-01-21 00:18:32 GMT 46.407787 18.689323 39,750 324 427 512
2019-01-21 00:18:22 GMT 46.391956 18.706284 39,650 324 427 448
2019-01-21 00:18:11 GMT 46.375122 18.724922 39,575 324 427 640
2019-01-21 00:18:04 GMT 46.363129 18.738522 39,475 324 427 448
2019-01-21 00:18:01 GMT 46.359238 18.742006 39,475 324 427 448
2019-01-21 00:17:52 GMT 46.344475 18.757301 39,375 324 424 576
2019-01-21 00:17:49 GMT 46.339783 18.762371 39,375 324 428 576
2019-01-21 00:17:45 GMT 46.331535 18.770828 39,300 324 427 384
2019-01-21 00:17:42 GMT 46.327148 18.776037 39,300 324 427 384
2019-01-21 00:17:32 GMT 46.312134 18.792917 39,250 324 426 448
2019-01-21 00:17:29 GMT 46.308060 18.796402 39,225 324 426 512
2019-01-21 00:17:21 GMT 46.295425 18.809799 39,125 324 426 512
2019-01-21 00:17:18 GMT 46.290615 18.814911 39,125 324 426 576
2019-01-21 00:17:11 GMT 46.278000 18.828506 39,050 324 425 512
2019-01-21 00:17:08 GMT 46.275532 18.831802 39,050 324 425 512
2019-01-21 00:17:01 GMT 46.263103 18.843613 38,975 324 424 576
2019-01-21 00:16:58 GMT 46.258446 18.848557 38,975 324 424 576
2019-01-21 00:16:50 GMT 46.244934 18.863659 38,875 324 424 384
2019-01-21 00:16:47 GMT 46.242096 18.867144 38,875 324 424 320
2019-01-21 00:16:40 GMT 46.230328 18.878838 38,800 324 423 512
2019-01-21 00:16:37 GMT 46.225388 18.883890 38,775 324 423 512
2019-01-21 00:16:32 GMT 46.213028 18.897221 38,725 324 423 704
2019-01-21 00:16:29 GMT 46.213028 18.897221 38,700 324 423 896
2019-01-21 00:16:26 GMT 46.208218 18.902390 38,650 324 423 896
2019-01-21 00:16:23 GMT 46.204102 18.907404 38,625 324 424 640
2019-01-21 00:16:19 GMT 46.197006 18.914103 38,575 324 423 384
2019-01-21 00:16:15 GMT 46.191330 18.920801 38,550 324 423 640
2019-01-21 00:16:12 GMT 46.186802 18.925735 38,525 324 423 896
2019-01-21 00:16:09 GMT 46.177212 18.935760 38,425 324 423 832
2019-01-21 00:16:03 GMT 46.171738 18.940699 38,375 324 423 896
2019-01-21 00:15:59 GMT 46.164925 18.949150 38,325 324 423 832
2019-01-21 00:15:52 GMT 46.155193 18.959244 38,225 324 423 1024
2019-01-21 00:15:48 GMT 46.148582 18.965904 38,150 324 424 896
2019-01-21 00:15:44 GMT 46.142254 18.972633 38,050 324 424 1024
2019-01-21 00:15:40 GMT 46.131638 18.984375 37,975 324 424 1216
2019-01-21 00:15:33 GMT 46.125046 18.991074 37,850 324 425 1024
2019-01-21 00:15:28 GMT 46.115204 19.001122 37,800 324 426 1024
2019-01-21 00:15:21 GMT 46.105057 19.012939 37,675 324 426 1088
2019-01-21 00:15:17 GMT 46.098862 19.018003 37,600 324 426 1024
2019-01-21 00:15:11 GMT 46.089432 19.028051 37,500 324 427 1152
2019-01-21 00:15:07 GMT 46.083023 19.034885 37,450 324 427 1152
2019-01-21 00:15:01 GMT 46.074188 19.044933 37,350 324 428 1152
2019-01-21 00:14:57 GMT 46.066280 19.053520 37,250 324 428 1024
2019-01-21 00:14:51 GMT 46.058395 19.061949 37,175 324 428 960
2019-01-21 00:14:47 GMT 46.052032 19.068783 37,100 324 428 832
2019-01-21 00:14:44 GMT 46.047192 19.073914 37,075 324 428 832
2019-01-21 00:14:41 GMT 46.037601 19.084007 37,025 324 428 896
2019-01-21 00:14:38 GMT 46.037601 19.084007 36,975 324 428 832
2019-01-21 00:14:35 GMT 46.032715 19.089148 36,950 324 428 704
2019-01-21 00:14:29 GMT 46.022964 19.099262 36,850 324 427 768
2019-01-21 00:14:26 GMT 46.016003 19.107765 36,800 324 426 704
2019-01-21 00:14:18 GMT 46.005623 19.117790 36,725 324 425 704
2019-01-21 00:14:15 GMT 46.000626 19.122910 36,725 324 425 704
2019-01-21 00:14:08 GMT 45.988491 19.136124 36,625 324 425 320
2019-01-21 00:14:04 GMT 45.984070 19.141136 36,625 324 423 320
2019-01-21 00:13:58 GMT 45.971825 19.152740 36,525 324 423 896
2019-01-21 00:13:55 GMT 45.968102 19.157616 36,500 325 422 832
2019-01-21 00:13:47 GMT 45.957092 19.169268 36,375 325 421 1088
2019-01-21 00:13:44 GMT 45.951527 19.174232 36,350 325 421 1152
2019-01-21 00:13:37 GMT 45.940201 19.185612 36,125 325 422 1152
2019-01-21 00:13:34 GMT 45.935421 19.190506 36,100 325 422 1088
2019-01-21 00:13:26 GMT 45.922806 19.203552 35,925 325 422 1152
2019-01-21 00:13:23 GMT 45.918503 19.208389 35,900 325 422 1216
2019-01-21 00:13:16 GMT 45.906933 19.219620 35,750 325 423 1152
2019-01-21 00:13:13 GMT 45.902847 19.224600 35,750 325 423 1152
2019-01-21 00:13:05 GMT 45.885330 19.242416 35,500 325 423 1152
2019-01-21 00:12:55 GMT 45.873276 19.253876 35,350 324 423 1024
2019-01-21 00:12:52 GMT 45.869316 19.258827 35,300 324 423 1088
2019-01-21 00:12:46 GMT 45.858471 19.270500 35,175 324 421 832
2019-01-21 00:12:43 GMT 45.853767 19.275375 35,150 324 421 832
2019-01-21 00:12:36 GMT 45.842377 19.286901 35,025 324 421 1088
2019-01-21 00:12:32 GMT 45.837151 19.291855 35,000 324 421 1088
2019-01-21 00:12:25 GMT 45.825699 19.304901 34,800 324 420 960
2019-01-21 00:12:22 GMT 45.820953 19.309877 34,775 324 420 960
2019-01-21 00:12:15 GMT 45.809601 19.321266 34,650 324 420 1024
2019-01-21 00:12:12 GMT 45.804657 19.326223 34,600 324 419 1024
2019-01-21 00:12:04 GMT 45.793530 19.337723 34,425 324 417 1152
2019-01-21 00:12:01 GMT 45.788544 19.342569 34,425 324 418 1088
2019-01-21 00:11:53 GMT 45.777100 19.355700 34,000 324 417 1152
2019-01-21 00:11:50 GMT 45.772163 19.360519 34,200 324 417 1152
2019-01-21 00:11:43 GMT 45.761490 19.371910 34,075 324 417 1024
2019-01-21 00:11:40 GMT 45.755264 19.378475 34,000 324 417 1024
2019-01-21 00:11:33 GMT 45.745239 19.388056 33,875 324 415 1152
2019-01-21 00:11:29 GMT 45.738464 19.394621 33,800 324 415 1152
2019-01-21 00:11:23 GMT 45.728916 19.405838 33,675 325 415 1088
2019-01-21 00:11:19 GMT 45.724136 19.410831 33,625 324 414 1152
2019-01-21 00:11:12 GMT 45.712624 19.421974 33,475 324 414 1280
2019-01-21 00:11:09 GMT 45.707886 19.426910 33,425 325 413 1280
2019-01-21 00:11:01 GMT 45.695984 19.439705 33,225 325 413 1088
2019-01-21 00:10:58 GMT 45.691441 19.444565 33,200 324 413 1088
2019-01-21 00:10:52 GMT 45.682037 19.454178 33,050 325 412 1152
2019-01-21 00:10:48 GMT 45.675053 19.460564 33,000 325 412 1152
2019-01-21 00:10:40 GMT 45.662624 19.473267 32,775 325 411 1152
2019-01-21 00:10:37 GMT 45.658951 19.478024 32,750 325 411 1152
2019-01-21 00:10:32 GMT 45.650707 19.485901 32,650 325 409 1024
2019-01-21 00:10:27 GMT 45.642654 19.493898 32,550 325 408 1024
2019-01-21 00:10:22 GMT 45.631027 19.506495 32,350 325 407 1600
2019-01-21 00:10:19 GMT 45.626453 19.511238 32,350 325 407 1600
2019-01-21 00:10:16 GMT 45.626453 19.511238 32,300 325 408 1600
2019-01-21 00:10:12 GMT 45.619354 19.519156 32,175 325 408 1472
2019-01-21 00:10:09 GMT 45.615005 19.522169 32,125 325 408 1408
2019-01-21 00:10:05 GMT 45.609879 19.528534 32,025 325 408 1536
2019-01-21 00:10:01 GMT 45.603470 19.534830 31,925 325 408 1600
2019-01-21 00:09:57 GMT 45.597290 19.541262 31,800 325 408 1600
2019-01-21 00:09:54 GMT 45.592564 19.545776 31,700 325 408 1600
2019-01-21 00:09:49 GMT 45.583439 19.555321 31,550 325 408 1664
2019-01-21 00:09:45 GMT 45.578156 19.560152 31,450 325 408 1536
2019-01-21 00:09:41 GMT 45.572525 19.566381 31,325 325 408 1856
2019-01-21 00:09:37 GMT 45.565887 19.574341 31,200 325 409 1920
2019-01-21 00:09:34 GMT 45.562119 19.577431 31,125 325 409 1920
2019-01-21 00:09:30 GMT 45.555695 19.583748 30,975 325 409 1920
2019-01-21 00:09:27 GMT 45.549690 19.590065 30,850 325 411 1920
2019-01-21 00:09:20 GMT 45.540100 19.599676 30,625 325 411 1856
2019-01-21 00:09:16 GMT 45.533859 19.605906 30,525 325 412 1344
2019-01-21 00:09:12 GMT 45.527344 19.613865 30,425 325 411 1280
2019-01-21 00:09:08 GMT 45.519974 19.620405 30,300 325 411 1472
2019-01-21 00:09:00 GMT 45.507935 19.632961 30,100 325 409 1472
2019-01-21 00:08:55 GMT 45.502304 19.639368 30,000 325 409 1536
2019-01-21 00:08:52 GMT 45.497131 19.644091 29,925 325 409 1600
2019-01-21 00:08:48 GMT 45.486282 19.655195 29,700 325 409 1600
2019-01-21 00:08:45 GMT 45.486282 19.655195 29,700 325 409 1536
2019-01-21 00:08:40 GMT 45.479534 19.662983 29,600 325 409 1664
2019-01-21 00:08:37 GMT 45.473251 19.669279 29,475 325 409 1856
2019-01-21 00:08:34 GMT 45.470177 19.672426 29,400 325 409 1856
2019-01-21 00:08:29 GMT 45.460262 19.681940 29,200 325 409 1600
2019-01-21 00:08:25 GMT 45.454258 19.688305 29,100 325 409 1408
2019-01-21 00:08:18 GMT 45.444618 19.697681 28,925 325 408 1920
2019-01-21 00:08:14 GMT 45.439079 19.704046 28,825 325 408 1856
2019-01-21 00:08:10 GMT 45.432468 19.710344 28,675 325 408 1536
2019-01-21 00:08:07 GMT 45.428467 19.715031 28,575 325 408 1536
2019-01-21 00:08:04 GMT 45.423065 19.719723 28,500 325 407 1664
2019-01-21 00:07:57 GMT 45.412766 19.730726 28,300 325 406 1984
2019-01-21 00:07:54 GMT 45.407043 19.737003 28,175 325 408 1856
2019-01-21 00:07:47 GMT 45.397018 19.746422 27,950 325 406 1728
2019-01-21 00:07:43 GMT 45.391479 19.752699 27,850 325 406 1728
2019-01-21 00:07:37 GMT 45.381821 19.762051 27,650 325 406 1792
2019-01-21 00:07:32 GMT 45.374653 19.769897 27,500 325 406 1792
2019-01-21 00:07:26 GMT 45.365761 19.779209 27,375 325 406 1792
2019-01-21 00:07:23 GMT 45.359615 19.785505 27,200 325 404 1728
2019-01-21 00:07:15 GMT 45.348495 19.796448 26,975 325 404 1664
2019-01-21 00:07:12 GMT 45.344162 19.801048 26,900 325 403 1664
2019-01-21 00:07:05 GMT 45.333984 19.811947 26,700 325 402 1856
2019-01-21 00:07:02 GMT 45.328613 19.816523 26,575 325 401 1920
2019-01-21 00:06:55 GMT 45.318237 19.827314 26,350 325 401 1920
2019-01-21 00:06:49 GMT 45.308689 19.838160 26,150 325 401 1792
2019-01-21 00:06:44 GMT 45.301891 19.844322 26,000 325 398 1728
2019-01-21 00:06:41 GMT 45.296864 19.850418 25,900 325 398 1728
2019-01-21 00:06:35 GMT 45.287273 19.859596 25,700 325 397 1856
2019-01-21 00:06:30 GMT 45.281128 19.865761 25,575 325 396 1728
2019-01-21 00:06:24 GMT 45.271317 19.876360 25,375 325 394 1920
2019-01-21 00:06:21 GMT 45.266418 19.880899 25,250 325 394 1984
2019-01-21 00:06:14 GMT 45.256668 19.891466 25,050 325 392 1728
2019-01-21 00:06:10 GMT 45.251335 19.895971 24,950 325 392 1728
2019-01-21 00:06:03 GMT 45.240162 19.907896 24,700 325 389 1792
2019-01-21 00:05:59 GMT 45.235748 19.912394 24,625 325 389 1664
2019-01-21 00:05:52 GMT 45.225594 19.922768 24,425 325 386 1728
2019-01-21 00:05:49 GMT 45.219170 19.928530 24,275 325 386 1920
2019-01-21 00:05:43 GMT 45.210136 19.937305 24,075 325 384 1792
2019-01-21 00:05:39 GMT 45.205856 19.941755 23,975 325 383 1664
2019-01-21 00:05:32 GMT 45.195705 19.951908 23,750 325 380 1920
2019-01-21 00:05:27 GMT 45.189240 19.959085 23,600 325 379 2048
2019-01-21 00:05:18 GMT 45.176338 19.972006 23,275 325 378 2240
2019-01-21 00:05:11 GMT 45.165482 19.981974 22,975 325 376 2240
2019-01-21 00:05:06 GMT 45.158203 19.990410 22,775 325 375 2304
2019-01-21 00:05:00 GMT 45.150875 19.997663 22,575 325 374 2432
2019-01-21 00:04:51 GMT 45.136211 20.011932 22,125 325 373 2368
2019-01-21 00:04:40 GMT 45.107666 20.041744 21,275 325 371 2688
2019-01-21 00:04:29 GMT 45.107666 20.041744 20,925 325 370 2624
2019-01-21 00:04:18 GMT 45.090958 20.058681 20,675 325 370 2944
2019-01-21 00:04:08 GMT 45.077183 20.071218 20,200 327 370 2816
2019-01-21 00:03:57 GMT 45.060974 20.084707 19,725 333 371 2624
2019-01-21 00:03:47 GMT 45.045639 20.095694 19,275 333 369 2112
2019-01-21 00:03:36 GMT 45.029140 20.107861 18,825 333 364 2432
2019-01-21 00:03:26 GMT 45.013779 20.118713 18,450 333 361 2112
2019-01-21 00:03:15 GMT 44.998260 20.130615 18,025 333 356 2432
2019-01-21 00:03:07 GMT 44.981613 20.142294 17,550 333 351 2496
2019-01-21 00:02:54 GMT 44.967506 20.152678 17,075 333 350 3008
2019-01-21 00:02:43 GMT 44.951111 20.164164 16,475 334 348 3328
2019-01-21 00:02:34 GMT 44.939110 20.173376 16,000 334 348 3264
2019-01-21 00:02:29 GMT 44.931702 20.178551 15,700 334 348 3904
2019-01-21 00:02:25 GMT 44.924679 20.183693 15,375 333 350 3712
2019-01-21 00:02:22 GMT 44.921513 20.185770 15,250 334 351 3456
2019-01-21 00:02:14 GMT 44.909969 20.194010 14,650 334 349 2880
2019-01-21 00:02:10 GMT 44.904148 20.198162 14,600 334 348 2944
2019-01-21 00:02:04 GMT 44.894302 20.205362 14,275 334 346 2752
2019-01-21 00:01:53 GMT 44.879745 20.215498 13,775 334 341 2752
2019-01-21 00:01:44 GMT 44.865601 20.225437 13,325 334 338 2496
2019-01-21 00:01:32 GMT 44.850475 20.236214 12,775 334 334 3072
2019-01-21 00:01:22 GMT 44.836323 20.245859 12,225 334 331 2944
2019-01-21 00:01:12 GMT 44.821976 20.256304 11,675 334 326 3200
2019-01-21 00:01:02 GMT 44.808426 20.265720 11,150 334 322 3008
2019-01-21 00:00:51 GMT 44.794601 20.275072 10,775 333 312 896
2019-01-21 00:00:40 GMT 44.780693 20.285183 10,600 333 296 896
2019-01-21 00:00:31 GMT 44.768913 20.293892 10,450 332 278 1280
2019-01-21 00:00:20 GMT 44.756882 20.303127 10,000 333 269 3200
2019-01-21 00:00:09 GMT 44.745850 20.311041 9,450 334 266 3264
2019-01-20 23:59:59 GMT 44.733723 20.320152 8,775 327 265 3648
2019-01-20 23:59:49 GMT 44.724785 20.331741 8,175 308 260 3520
2019-01-20 23:59:39 GMT 44.718822 20.346546 7,600 289 258 3008
2019-01-20 23:59:28 GMT 44.716591 20.362690 7,050 270 255 3392
2019-01-20 23:59:18 GMT 44.718452 20.378969 6,375 248 257 3392
2019-01-20 23:59:08 GMT 44.724365 20.393305 5,825 228 258 3328
2019-01-20 23:58:57 GMT 44.734314 20.404358 5,225 205 263 3584
2019-01-20 23:58:50 GMT 44.744019 20.408152 4,725 170 265 2304
2019-01-20 23:58:46 GMT 44.747173 20.408443 4,600 183 267 3072
2019-01-20 23:58:37 GMT 44.759033 20.406515 4,175 166 261 1536
2019-01-20 23:58:28 GMT 44.768963 20.402014 3,925 157 250 1920
2019-01-20 23:58:25 GMT 44.771851 20.399845 3,825 149 245 2496
2019-01-20 23:58:17 GMT 44.780041 20.391497 3,200 132 241 3072
2019-01-20 23:58:05 GMT 44.787506 20.377808 2,875 121 233 1280
2019-01-20 23:57:55 GMT 44.793274 20.365383 2,675 121 213 1216
2019-01-20 23:57:44 GMT 44.798710 20.352842 2,400 121 197 1472
2019-01-20 23:57:35 GMT 44.803024 20.343279 2,125 122 184 2240
2019-01-20 23:57:24 GMT 44.807831 20.332277 1,575 122 178 3392
2019-01-20 23:57:14 GMT 44.812443 20.322697 950 122 173 3456
We lost coverage of the aircraft here for a total of 71 minutes
2019-01-20 22:46:24 GMT 44.832367 20.277557 425 121 149 -832
2019-01-20 22:46:16 GMT 44.835342 20.270887 550 121 150 -512
2019-01-20 22:46:05 GMT 44.839256 20.261871 650 122 147 -896
2019-01-20 22:45:55 GMT 44.842793 20.253698 800 122 146 -896
2019-01-20 22:45:44 GMT 44.846832 20.244795 975 121 144 -768
2019-01-20 22:45:35 GMT 44.850174 20.236752 1,075 121 143 -640
2019-01-20 22:45:24 GMT 44.853928 20.228706 1,200 122 147 -768
2019-01-20 22:45:13 GMT 44.857830 20.219465 1,350 121 154 -896
2019-01-20 22:45:03 GMT 44.861973 20.210823 1,500 122 160 -704
2019-01-20 22:44:52 GMT 44.866333 20.200850 1,675 120 163 -896
2019-01-20 22:44:42 GMT 44.870316 20.191826 1,825 122 162 -832
2019-01-20 22:44:32 GMT 44.874390 20.182735 2,000 121 163 -896
2019-01-20 22:44:22 GMT 44.878544 20.172840 2,150 121 163 -704
2019-01-20 22:44:10 GMT 44.882858 20.162920 2,325 122 163 -896
2019-01-20 22:43:57 GMT 44.888275 20.150867 2,525 122 168 -832
2019-01-20 22:43:51 GMT 44.891510 20.144348 2,650 123 174 -896
2019-01-20 22:43:40 GMT 44.895950 20.134670 2,775 121 175 -704
2019-01-20 22:43:30 GMT 44.900238 20.123804 2,800 116 174 256
2019-01-20 22:43:20 GMT 44.903217 20.113153 2,800 104 174 192
2019-01-20 22:43:09 GMT 44.904057 20.101831 2,800 84 173 64
2019-01-20 22:42:58 GMT 44.903229 20.089417 2,800 84 173 -64
2019-01-20 22:42:49 GMT 44.902222 20.078169 2,800 79 175 -64
2019-01-20 22:42:38 GMT 44.899292 20.067444 2,800 57 178 0
2019-01-20 22:42:27 GMT 44.892742 20.058222 2,800 35 190 -448
2019-01-20 22:42:18 GMT 44.885433 20.050920 2,950 34 201 -832
2019-01-20 22:42:07 GMT 44.877274 20.043379 3,150 34 208 -1024
2019-01-20 22:41:56 GMT 44.868851 20.034878 3,350 33 217 -1856
2019-01-20 22:41:46 GMT 44.860062 20.027096 3,650 33 219 -1024
2019-01-20 22:41:35 GMT 44.850101 20.018564 3,750 27 234 -512
2019-01-20 22:41:24 GMT 44.838913 20.012905 3,800 11 251 -64
2019-01-20 22:41:15 GMT 44.827896 20.011396 3,800 4 256 -64
2019-01-20 22:41:03 GMT 44.814026 20.009855 3,800 4 256 -64
2019-01-20 22:40:53 GMT 44.801514 20.008327 3,825 4 255 0
2019-01-20 22:40:42 GMT 44.788696 20.007019 3,825 4 256 -64
2019-01-20 22:40:32 GMT 44.777161 20.005777 3,825 4 256 0
2019-01-20 22:40:22 GMT 44.764072 20.004898 3,825 359 258 128
2019-01-20 22:40:11 GMT 44.752201 20.007645 3,850 341 269 -1536
2019-01-20 22:40:01 GMT 44.740192 20.013472 4,075 341 271 -1728
2019-01-20 22:39:52 GMT 44.728741 20.019703 4,425 336 284 -2816
2019-01-20 22:39:39 GMT 44.714912 20.030287 5,075 324 283 -4096
2019-01-20 22:39:30 GMT 44.705704 20.040764 5,675 320 286 -3776
2019-01-20 22:39:20 GMT 44.696045 20.053776 6,375 314 288 -4352
2019-01-20 22:39:11 GMT 44.687119 20.067772 7,125 310 289 -4288
2019-01-20 22:38:59 GMT 44.677765 20.083813 7,950 310 289 -4544
2019-01-20 22:38:50 GMT 44.669357 20.096806 8,675 311 293 -4224
2019-01-20 22:38:40 GMT 44.659561 20.114267 9,500 311 296 -4288
2019-01-20 22:38:29 GMT 44.650681 20.129110 10,225 311 298 -4544
2019-01-20 22:38:18 GMT 44.641434 20.143761 11,025 311 300 -4416
2019-01-20 22:38:08 GMT 44.631866 20.158670 11,825 311 303 -4672
2019-01-20 22:37:57 GMT 44.622322 20.175119 12,650 311 304 -4160
2019-01-20 22:37:49 GMT 44.613831 20.188883 13,575 310 312 -4672
2019-01-20 22:37:39 GMT 44.604813 20.204382 14,050 309 308 -5312
2019-01-20 22:37:36 GMT 44.602844 20.207584 14,250 308 308 -5504
2019-01-20 22:37:29 GMT 44.595932 20.220402 15,000 305 304 -4800
2019-01-20 22:37:26 GMT 44.593739 20.225294 15,225 304 304 -4352
2019-01-20 22:37:18 GMT 44.586151 20.242512 15,925 299 307 -3968
2019-01-20 22:37:05 GMT 44.579914 20.260597 16,625 294 311 -4032
2019-01-20 22:36:55 GMT 44.574234 20.281349 17,375 289 314 -4288
2019-01-20 22:36:47 GMT 44.571255 20.295164 17,900 285 316 -4288
2019-01-20 22:36:43 GMT 44.569813 20.303137 18,200 285 317 -4224
2019-01-20 22:36:37 GMT 44.567532 20.314995 18,650 285 319 -4416
2019-01-20 22:36:33 GMT 44.566086 20.323099 18,950 285 320 -4224
2019-01-20 22:36:26 GMT 44.563614 20.337196 19,450 285 323 -4160
2019-01-20 22:36:23 GMT 44.562241 20.345371 19,700 285 324 -4544
2019-01-20 22:36:16 GMT 44.559860 20.357534 20,225 284 324 -4608
2019-01-20 22:36:11 GMT 44.558125 20.367847 20,600 284 326 -4416
2019-01-20 22:36:06 GMT 44.556244 20.378069 21,000 284 328 -4096
2019-01-20 22:36:01 GMT 44.554497 20.388414 21,325 284 330 -4160
2019-01-20 22:35:56 GMT 44.552536 20.398930 21,725 284 332 -4672
2019-01-20 22:35:51 GMT 44.550522 20.411486 22,175 284 333 -4672
2019-01-20 22:35:45 GMT 44.548721 20.422043 22,550 284 334 -4544
2019-01-20 22:35:39 GMT 44.545898 20.436794 23,125 285 337 -4544
2019-01-20 22:35:35 GMT 44.544441 20.443077 23,350 285 338 -4672
2019-01-20 22:35:28 GMT 44.542053 20.457981 23,925 285 339 -4736
2019-01-20 22:35:25 GMT 44.540810 20.464449 24,175 285 340 -4800
2019-01-20 22:35:17 GMT 44.537643 20.481329 24,850 285 339 -4864
2019-01-20 22:35:14 GMT 44.536697 20.487803 25,050 285 341 -4736
2019-01-20 22:35:04 GMT 44.532715 20.509121 25,875 285 341 -4480
2019-01-20 22:34:57 GMT 44.529327 20.526384 26,550 285 346 -3968
2019-01-20 22:34:54 GMT 44.528503 20.530701 26,625 285 346 -4032
2019-01-20 22:34:44 GMT 44.524338 20.552673 27,375 285 349 -4288
2019-01-20 22:34:34 GMT 44.520355 20.574646 28,125 284 352 -4480
2019-01-20 22:34:23 GMT 44.516228 20.599030 28,925 284 355 -4736
2019-01-20 22:34:13 GMT 44.512085 20.621538 29,800 284 357 -4736
2019-01-20 22:34:03 GMT 44.508083 20.644047 30,600 284 359 -4544
2019-01-20 22:33:52 GMT 44.504105 20.668617 31,525 284 355 -5824
2019-01-20 22:33:42 GMT 44.500031 20.691244 32,300 284 361 -1536
2019-01-20 22:33:32 GMT 44.495911 20.714396 32,425 284 380 -960
2019-01-20 22:33:22 GMT 44.491333 20.738461 32,600 285 388 -896
2019-01-20 22:33:11 GMT 44.486668 20.765635 32,725 285 398 -960
2019-01-20 22:33:01 GMT 44.482105 20.790554 33,000 285 401 -2688
2019-01-20 22:32:50 GMT 44.477280 20.818502 33,575 285 400 -2880
2019-01-20 22:32:41 GMT 44.472656 20.843485 34,025 286 400 -2624
2019-01-20 22:32:30 GMT 44.467255 20.868137 34,475 290 400 -2368
2019-01-20 22:32:20 GMT 44.460068 20.892202 34,900 295 403 -2432
2019-01-20 22:32:10 GMT 44.451874 20.915615 35,300 299 404 -2496
2019-01-20 22:31:59 GMT 44.441650 20.940142 35,725 304 407 -2176
2019-01-20 22:31:49 GMT 44.430386 20.961578 36,100 309 410 -1856
2019-01-20 22:31:39 GMT 44.417400 20.981676 36,525 314 412 -2752
2019-01-20 22:31:29 GMT 44.403805 21.000433 37,000 318 413 -2432
2019-01-20 22:31:21 GMT 44.390991 21.016127 37,350 322 415 -2624
2019-01-20 22:31:18 GMT 44.386395 21.020931 37,500 325 415 -2240
2019-01-20 22:31:06 GMT 44.369934 21.037968 37,850 326 415 -1344
2019-01-20 22:30:57 GMT 44.355347 21.051813 38,000 326 414 -64
2019-01-20 22:30:51 GMT 44.344208 21.062490 38,000 326 415 -64
2019-01-20 22:30:48 GMT 44.340317 21.065498 38,000 326 415 0
2019-01-20 22:30:40 GMT 44.326855 21.079212 38,000 326 415 64
2019-01-20 22:30:36 GMT 44.322235 21.083876 38,000 326 415 0
2019-01-20 22:30:26 GMT 44.306671 21.099112 38,000 326 415 -64
2019-01-20 22:30:17 GMT 44.292404 21.112909 38,000 326 415 64
2019-01-20 22:30:06 GMT 44.275269 21.129652 38,000 326 415 0
2019-01-20 22:30:00 GMT 44.262817 21.141815 38,000 326 415 -64
2019-01-20 22:29:55 GMT 44.256500 21.147963 38,000 326 415 -64
2019-01-20 22:29:47 GMT 44.244270 21.158730 38,000 326 415 64
2019-01-20 22:29:34 GMT 44.224411 21.178501 38,000 326 415 0
2019-01-20 22:29:26 GMT 44.211365 21.190731 38,000 326 415 -64
2019-01-20 22:29:18 GMT 44.198044 21.204216 38,000 326 415 0
2019-01-20 22:29:15 GMT 44.193527 21.207340 38,000 326 415 0
2019-01-20 22:29:12 GMT 44.188614 21.211918 38,000 326 415 -64
2019-01-20 22:29:09 GMT 44.182171 21.219374 38,000 326 415 0
2019-01-20 22:29:03 GMT 44.175419 21.225521 38,000 326 415 0
2019-01-20 22:28:57 GMT 44.165646 21.234545 38,000 326 415 0
2019-01-20 22:28:54 GMT 44.160553 21.239063 38,000 326 415 64
2019-01-20 22:28:45 GMT 44.146187 21.252594 38,000 326 415 -64
2019-01-20 22:28:37 GMT 44.133572 21.264824 38,000 326 416 -64
2019-01-20 22:28:33 GMT 44.127007 21.270905 38,000 326 416 0
2019-01-20 22:28:28 GMT 44.117371 21.279993 38,000 326 416 0
2019-01-20 22:28:23 GMT 44.109650 21.287607 38,000 326 416 64
2019-01-20 22:28:14 GMT 44.096786 21.299744 38,000 326 417 -64
2019-01-20 22:28:10 GMT 44.090607 21.305813 38,000 326 417 -64
2019-01-20 22:28:07 GMT 44.084930 21.311943 38,000 326 417 -64
2019-01-20 22:28:04 GMT 44.080811 21.314882 38,000 326 417 -64
2019-01-20 22:27:59 GMT 44.073517 21.322565 38,000 326 420 0
2019-01-20 22:27:53 GMT 44.064114 21.331722 38,000 326 417 0
2019-01-20 22:27:48 GMT 44.056046 21.339281 38,000 326 417 0
2019-01-20 22:27:43 GMT 44.047958 21.346828 38,000 326 418 0
2019-01-20 22:27:40 GMT 44.043045 21.351355 38,000 326 420 0
2019-01-20 22:27:36 GMT 44.036499 21.357422 38,000 326 418 0
2019-01-20 22:27:33 GMT 44.031898 21.362129 38,000 326 418 0
2019-01-20 22:27:30 GMT 44.027252 21.366684 38,000 326 418 0
2019-01-20 22:27:25 GMT 44.018959 21.374163 38,000 326 418 -64
2019-01-20 22:27:22 GMT 44.013748 21.378820 38,000 326 418 -64
2019-01-20 22:27:19 GMT 44.009743 21.383385 38,000 326 418 0
2019-01-20 22:27:12 GMT 43.998413 21.394022 38,000 326 419 64
2019-01-20 22:27:09 GMT 43.993820 21.398491 38,000 326 419 0
2019-01-20 22:27:02 GMT 43.982849 21.409224 38,000 326 419 -64
2019-01-20 22:26:56 GMT 43.970963 21.419874 38,000 326 419 0
2019-01-20 22:26:51 GMT 43.964306 21.425890 38,000 326 419 0
2019-01-20 22:26:47 GMT 43.958488 21.432037 38,000 326 419 0
2019-01-20 22:26:41 GMT 43.949177 21.441193 38,000 326 419 0
2019-01-20 22:26:37 GMT 43.942101 21.447144 38,000 326 419 0
2019-01-20 22:26:30 GMT 43.931580 21.457960 38,000 326 420 0
2019-01-20 22:26:27 GMT 43.926182 21.462446 38,000 326 420 64
2019-01-20 22:26:21 GMT 43.917194 21.471601 38,000 326 420 0
2019-01-20 22:26:18 GMT 43.910725 21.477749 38,000 326 420 -64
2019-01-20 22:26:15 GMT 43.905258 21.482359 38,000 326 420 -64
2019-01-20 22:26:09 GMT 43.898247 21.489912 38,000 326 420 -64
2019-01-20 22:26:06 GMT 43.892303 21.494495 38,000 326 421 -64
2019-01-20 22:26:03 GMT 43.887913 21.499067 38,000 326 420 0
2019-01-20 22:26:00 GMT 43.883698 21.503693 38,000 326 421 0
2019-01-20 22:25:54 GMT 43.872803 21.512827 38,000 326 420 0
2019-01-20 22:25:51 GMT 43.867943 21.517443 38,000 326 420 0
2019-01-20 22:25:43 GMT 43.855419 21.529541 38,000 326 421 -64
2019-01-20 22:25:40 GMT 43.851242 21.534098 38,000 326 421 0
2019-01-20 22:25:33 GMT 43.838848 21.544779 38,000 326 421 0
2019-01-20 22:25:29 GMT 43.833820 21.550795 38,000 326 421 0
2019-01-20 22:25:24 GMT 43.822834 21.559883 38,000 326 421 0
2019-01-20 22:25:19 GMT 43.817715 21.565966 38,000 326 421 -64
2019-01-20 22:25:14 GMT 43.808258 21.573507 38,000 326 421 0
2019-01-20 22:25:10 GMT 43.802078 21.579512 38,000 326 420 0
2019-01-20 22:25:02 GMT 43.787594 21.593105 38,000 326 420 0
2019-01-20 22:24:59 GMT 43.784660 21.596178 38,000 326 420 -64
2019-01-20 22:24:53 GMT 43.774837 21.605333 38,000 326 420 0
2019-01-20 22:24:49 GMT 43.768135 21.611349 38,000 326 420 0
2019-01-20 22:24:41 GMT 43.755379 21.623447 38,000 326 420 -64
2019-01-20 22:24:38 GMT 43.751266 21.627993 38,000 326 421 -64
2019-01-20 22:24:31 GMT 43.737991 21.640127 38,000 326 420 0
2019-01-20 22:24:27 GMT 43.733452 21.644636 38,000 326 420 0
2019-01-20 22:24:21 GMT 43.723724 21.653660 38,000 326 420 0
2019-01-20 22:24:18 GMT 43.718857 21.658205 38,000 326 420 0
2019-01-20 22:24:11 GMT 43.701099 21.674784 38,000 326 420 0
2019-01-20 22:23:58 GMT 43.686676 21.688353 38,000 326 419 64
2019-01-20 22:23:51 GMT 43.675915 21.698914 38,000 326 420 64
2019-01-20 22:23:47 GMT 43.669678 21.704994 38,000 326 420 0
2019-01-20 22:23:39 GMT 43.655228 21.718565 38,000 326 419 -128
2019-01-20 22:23:31 GMT 43.640720 21.732134 38,000 326 419 64
2019-01-20 22:23:27 GMT 43.637230 21.735077 38,000 326 419 64
2019-01-20 22:23:21 GMT 43.627499 21.744167 38,000 326 419 64
2019-01-20 22:23:16 GMT 43.619659 21.751717 38,000 326 418 64
2019-01-20 22:23:08 GMT 43.605110 21.765160 38,000 326 418 -64
2019-01-20 22:22:56 GMT 43.587524 21.781609 38,000 326 418 -64
2019-01-20 22:22:53 GMT 43.583092 21.786217 38,000 326 418 -64
2019-01-20 22:22:46 GMT 43.571228 21.796682 38,000 326 418 0
2019-01-20 22:22:43 GMT 43.567028 21.801060 38,000 326 418 64
2019-01-20 22:22:38 GMT 43.556973 21.810019 38,000 326 418 0
2019-01-20 22:22:35 GMT 43.553482 21.813028 38,000 326 418 0
2019-01-20 22:22:32 GMT 43.548752 21.817570 38,000 326 418 -64
2019-01-20 22:22:25 GMT 43.538586 21.827938 38,000 326 417 0
2019-01-20 22:22:22 GMT 43.530624 21.835583 38,000 326 417 0
2019-01-20 22:22:15 GMT 43.521084 21.843044 38,000 326 417 -64
2019-01-20 22:22:11 GMT 43.513138 21.850466 38,000 326 417 -64
2019-01-20 22:22:04 GMT 43.504990 21.859407 38,000 326 417 -64
2019-01-20 22:21:59 GMT 43.496365 21.866846 38,000 326 416 0
2019-01-20 22:21:55 GMT 43.489288 21.872864 38,000 326 416 0
2019-01-20 22:21:48 GMT 43.477741 21.884766 38,000 326 416 0
2019-01-20 22:21:44 GMT 43.471710 21.889236 38,000 326 416 0
2019-01-20 22:21:37 GMT 43.461727 21.899479 38,000 326 416 64
2019-01-20 22:21:33 GMT 43.454327 21.905497 38,000 326 416 64
2019-01-20 22:21:26 GMT 43.442734 21.917332 38,000 326 416 -64
2019-01-20 22:21:22 GMT 43.436920 21.921812 38,000 326 416 -64
2019-01-20 22:21:15 GMT 43.425465 21.932112 38,000 326 416 64
2019-01-20 22:21:12 GMT 43.420532 21.936567 38,000 326 416 64
2019-01-20 22:21:04 GMT 43.408127 21.948383 38,000 326 415 -64
2019-01-20 22:21:01 GMT 43.402931 21.952908 38,000 326 415 -64
2019-01-20 22:20:57 GMT 43.396881 21.958794 38,000 326 415 0
2019-01-20 22:20:53 GMT 43.382446 21.972017 38,000 326 415 0
2019-01-20 22:20:42 GMT 43.373520 21.980961 38,000 326 415 -64
2019-01-20 22:20:39 GMT 43.368530 21.985409 38,000 326 415 -64
2019-01-20 22:20:33 GMT 43.358707 21.994238 38,000 326 415 64
2019-01-20 22:20:30 GMT 43.353699 21.998653 38,000 326 415 64
2019-01-20 22:20:27 GMT 43.350327 22.003065 38,000 326 415 0
2019-01-20 22:20:24 GMT 43.343857 22.009016 38,000 326 415 -64
2019-01-20 22:20:21 GMT 43.340458 22.011892 38,000 326 415 0
2019-01-20 22:20:18 GMT 43.335159 22.016411 38,000 326 415 0
2019-01-20 22:20:10 GMT 43.322845 22.028227 38,000 326 415 0
2019-01-20 22:20:02 GMT 43.309937 22.040043 38,000 326 415 0
2019-01-20 22:19:59 GMT 43.305126 22.044394 38,000 326 415 0
2019-01-20 22:19:51 GMT 43.291718 22.056231 38,000 326 415 64
2019-01-20 22:19:48 GMT 43.287689 22.060675 38,000 326 415 64
2019-01-20 22:19:42 GMT 43.278076 22.069616 38,000 326 415 -64
2019-01-20 22:19:39 GMT 43.270630 22.076962 38,000 326 416 0
2019-01-20 22:19:31 GMT 43.259537 22.087181 38,000 326 416 -64
2019-01-20 22:19:27 GMT 43.245167 22.100437 38,000 326 416 0
2019-01-20 22:19:22 GMT 43.245167 22.100437 38,000 326 416 64
2019-01-20 22:19:19 GMT 43.240650 22.103512 38,000 326 416 128
2019-01-20 22:19:16 GMT 43.233948 22.110880 38,000 326 416 0
2019-01-20 22:19:12 GMT 43.229153 22.115282 38,000 326 416 0
2019-01-20 22:19:09 GMT 43.223511 22.119759 38,000 326 416 0
2019-01-20 22:19:00 GMT 43.211426 22.131512 38,000 327 415 0
2019-01-20 22:18:56 GMT 43.203503 22.138760 38,000 327 415 64
2019-01-20 22:18:50 GMT 43.195267 22.146202 38,000 326 416 -64
2019-01-20 22:18:45 GMT 43.186836 22.153538 38,000 326 416 -64
2019-01-20 22:18:39 GMT 43.177757 22.162367 38,000 327 417 0
2019-01-20 22:18:36 GMT 43.171661 22.168253 38,000 327 417 64
2019-01-20 22:18:30 GMT 43.162117 22.177212 38,000 327 417 -64
2019-01-20 22:18:24 GMT 43.146240 22.190403 38,000 327 421 -64
2019-01-20 22:18:20 GMT 43.146240 22.190403 38,000 327 417 0
2019-01-20 22:18:17 GMT 43.140381 22.196280 38,000 327 417 0
2019-01-20 22:18:14 GMT 43.128738 22.206573 38,000 327 417 0
2019-01-20 22:18:09 GMT 43.128738 22.206573 38,000 327 417 0
2019-01-20 22:18:04 GMT 43.120697 22.213907 38,000 327 418 0
2019-01-20 22:17:59 GMT 43.112587 22.221287 38,000 327 418 0
2019-01-20 22:17:56 GMT 43.107925 22.225660 38,000 327 418 0
2019-01-20 22:17:53 GMT 43.103882 22.230049 38,000 327 418 0
2019-01-20 22:17:49 GMT 43.096478 22.235935 38,000 327 418 0
2019-01-20 22:17:45 GMT 43.089962 22.241886 38,000 327 420 0
2019-01-20 22:17:39 GMT 43.080605 22.250715 38,000 327 419 0
2019-01-20 22:17:34 GMT 43.064079 22.265493 38,000 327 421 -64
2019-01-20 22:17:29 GMT 43.064079 22.265493 38,000 327 421 -64
2019-01-20 22:17:23 GMT 43.053543 22.275738 38,000 327 421 0
2019-01-20 22:17:18 GMT 43.047043 22.281742 38,000 327 421 -64
2019-01-20 22:17:15 GMT 43.040405 22.287619 38,000 327 421 0
2019-01-20 22:17:12 GMT 43.036514 22.290621 38,000 327 421 64
2019-01-20 22:17:08 GMT 43.029968 22.296625 38,000 327 421 0
2019-01-20 22:17:04 GMT 43.019341 22.306955 38,000 327 422 0
2019-01-20 22:16:57 GMT 43.013477 22.312971 38,000 327 422 0
2019-01-20 22:16:51 GMT 43.003002 22.321930 38,000 327 423 -64
2019-01-20 22:16:47 GMT 42.997322 22.327814 38,000 327 422 -64
2019-01-20 22:16:43 GMT 42.989780 22.333635 38,000 327 422 64
2019-01-20 22:16:40 GMT 42.985153 22.338207 38,000 327 422 64
2019-01-20 22:16:37 GMT 42.980377 22.342661 38,000 327 422 0
2019-01-20 22:16:30 GMT 42.968857 22.353025 38,000 327 423 0
2019-01-20 22:16:27 GMT 42.963573 22.357374 38,000 327 423 0
2019-01-20 22:16:23 GMT 42.947021 22.373720 38,000 327 423 0
2019-01-20 22:16:17 GMT 42.947021 22.373720 38,000 327 423 0
2019-01-20 22:16:12 GMT 42.939285 22.379599 38,000 327 423 -64
2019-01-20 22:16:09 GMT 42.934895 22.383989 38,000 327 423 -64
2019-01-20 22:16:06 GMT 42.930084 22.388540 38,000 327 423 -64
2019-01-20 22:16:02 GMT 42.922943 22.394417 38,000 327 423 0
2019-01-20 22:15:59 GMT 42.917999 22.398899 38,000 327 423 -64
2019-01-20 22:15:56 GMT 42.913925 22.403358 38,000 327 423 -128
2019-01-20 22:15:52 GMT 42.905800 22.410671 38,025 327 423 0
2019-01-20 22:15:49 GMT 42.900879 22.415174 38,000 327 423 64
2019-01-20 22:15:46 GMT 42.897034 22.418114 38,000 327 422 64
2019-01-20 22:15:41 GMT 42.888672 22.425581 38,000 327 422 0
2019-01-20 22:15:36 GMT 42.880508 22.432867 38,000 327 422 0
2019-01-20 22:15:28 GMT 42.867115 22.446312 38,000 327 422 0
2019-01-20 22:15:25 GMT 42.863625 22.449320 38,000 327 422 64
2019-01-20 22:15:18 GMT 42.851074 22.459633 38,000 327 422 64
2019-01-20 22:15:15 GMT 42.847191 22.464165 38,000 327 423 0
2019-01-20 22:15:10 GMT 42.838165 22.471512 38,000 327 423 -128
2019-01-20 22:15:05 GMT 42.830757 22.479008 38,000 327 423 -64
2019-01-20 22:15:00 GMT 42.820377 22.487837 38,000 327 423 128
2019-01-20 22:14:55 GMT 42.813766 22.493723 38,000 327 423 64
2019-01-20 22:14:44 GMT 42.796555 22.509926 38,000 327 423 -64
2019-01-20 22:14:34 GMT 42.779224 22.526381 38,000 327 422 0
2019-01-20 22:14:24 GMT 42.763165 22.539665 38,000 327 422 0
2019-01-20 22:14:13 GMT 42.745567 22.555954 38,000 327 422 0
2019-01-20 22:14:06 GMT 42.733932 22.566231 38,000 327 422 -64
2019-01-20 22:14:03 GMT 42.730392 22.570581 38,000 327 421 64
2019-01-20 22:13:52 GMT 42.711731 22.586767 38,000 327 422 64
2019-01-20 22:13:43 GMT 42.696030 22.601250 38,000 329 422 0
2019-01-20 22:13:31 GMT 42.677368 22.615740 38,000 333 425 -128
2019-01-20 22:13:25 GMT 42.666103 22.623213 38,000 333 425 64
2019-01-20 22:13:21 GMT 42.658562 22.628260 38,000 333 425 64
2019-01-20 22:13:16 GMT 42.649532 22.635733 38,000 333 424 0
2019-01-20 22:13:13 GMT 42.644829 22.638224 38,000 333 424 0
2019-01-20 22:13:10 GMT 42.641098 22.641886 38,000 333 424 0
2019-01-20 22:13:05 GMT 42.631187 22.648125 38,000 333 424 0
2019-01-20 22:13:00 GMT 42.623245 22.654308 38,000 333 424 -64
2019-01-20 22:12:53 GMT 42.611500 22.663071 38,000 333 424 0
2019-01-20 22:12:50 GMT 42.605209 22.666855 38,000 333 424 64
2019-01-20 22:12:43 GMT 42.591843 22.676781 38,000 333 424 64
2019-01-20 22:12:40 GMT 42.587337 22.680508 38,000 333 424 -128
2019-01-20 22:12:34 GMT 42.577103 22.686705 38,000 333 424 0
2019-01-20 22:12:30 GMT 42.569088 22.692900 38,000 333 424 0
2019-01-20 22:12:22 GMT 42.554657 22.702671 38,000 333 424 -64
2019-01-20 22:12:19 GMT 42.551212 22.705162 38,000 333 424 0
2019-01-20 22:12:11 GMT 42.537388 22.715128 38,000 333 424 -64
2019-01-20 22:12:07 GMT 42.529770 22.721287 38,000 333 424 0
2019-01-20 22:12:01 GMT 42.519932 22.727455 38,000 333 424 0
2019-01-20 22:11:56 GMT 42.511780 22.733646 38,000 333 424 -64
2019-01-20 22:11:50 GMT 42.501068 22.741137 38,000 333 424 128
2019-01-20 22:11:47 GMT 42.495537 22.744892 38,000 333 424 128
2019-01-20 22:11:43 GMT 42.488159 22.750999 38,000 333 424 64
2019-01-20 22:11:40 GMT 42.483994 22.753496 37,975 333 424 -64
2019-01-20 22:11:37 GMT 42.477127 22.758492 38,000 333 424 -64
2019-01-20 22:11:30 GMT 42.466003 22.765982 38,000 333 424 -64
2019-01-20 22:11:24 GMT 42.456985 22.773411 38,000 333 424 0
2019-01-20 22:11:19 GMT 42.448238 22.779577 38,000 333 424 0
2019-01-20 22:11:15 GMT 42.439766 22.784622 38,000 333 424 0
2019-01-20 22:11:09 GMT 42.430176 22.792032 38,000 333 424 0
2019-01-20 22:11:04 GMT 42.421143 22.798254 38,000 333 424 -64
2019-01-20 22:11:00 GMT 42.412720 22.804359 38,000 333 425 0
2019-01-20 22:10:53 GMT 42.402058 22.811832 38,000 333 425 -64
2019-01-20 22:10:49 GMT 42.394981 22.816814 38,000 333 424 0
2019-01-20 22:10:45 GMT 42.387627 22.821796 38,000 333 424 0
2019-01-20 22:10:41 GMT 42.380219 22.827904 38,000 333 424 0
2019-01-20 22:10:38 GMT 42.376831 22.830400 38,000 333 424 0
2019-01-20 22:10:32 GMT 42.365067 22.837893 38,000 333 424 0
2019-01-20 22:10:28 GMT 42.358337 22.842760 38,000 333 424 -64
2019-01-20 22:10:24 GMT 42.351517 22.847755 38,000 333 424 -64
2019-01-20 22:10:21 GMT 42.340714 22.855183 38,000 333 424 0
2019-01-20 22:10:18 GMT 42.340714 22.855183 38,000 333 424 64
2019-01-20 22:10:12 GMT 42.329018 22.863762 38,000 333 424 64
2019-01-20 22:10:08 GMT 42.323456 22.867418 38,000 333 424 0
2019-01-20 22:10:03 GMT 42.305649 22.880945 38,000 333 424 64
2019-01-20 22:09:58 GMT 42.305649 22.880945 38,000 333 424 64
2019-01-20 22:09:50 GMT 42.290520 22.890781 38,000 333 424 0
2019-01-20 22:09:47 GMT 42.287495 22.893272 38,000 333 424 0
2019-01-20 22:09:41 GMT 42.277763 22.900618 38,000 333 424 -64
2019-01-20 22:09:37 GMT 42.270317 22.905537 38,000 333 424 -64
2019-01-20 22:09:31 GMT 42.259655 22.912945 38,000 333 424 0
2019-01-20 22:09:27 GMT 42.251976 22.917736 38,000 333 423 0
2019-01-20 22:09:21 GMT 42.242664 22.925144 38,000 333 423 64
2019-01-20 22:09:16 GMT 42.232750 22.932426 38,000 333 423 64
2019-01-20 22:09:11 GMT 42.224880 22.937346 38,000 333 423 0
2019-01-20 22:09:08 GMT 42.219040 22.941076 38,000 333 423 0
2019-01-20 22:09:05 GMT 42.214825 22.944691 38,000 333 423 0
2019-01-20 22:08:58 GMT 42.201599 22.953312 38,000 333 423 0
2019-01-20 22:08:54 GMT 42.195648 22.958242 38,000 333 423 0
2019-01-20 22:08:49 GMT 42.187408 22.964363 38,000 333 423 0
2019-01-20 22:08:46 GMT 42.181274 22.967918 38,000 333 424 0
2019-01-20 22:08:43 GMT 42.175095 22.972849 38,000 333 424 0
2019-01-20 22:08:37 GMT 42.165993 22.978928 38,000 333 423 -64
2019-01-20 22:08:34 GMT 42.159801 22.983910 38,000 333 423 -64
2019-01-20 22:08:31 GMT 42.156124 22.986401 38,000 333 423 -64
2019-01-20 22:08:28 GMT 42.150650 22.990015 38,000 333 423 -128
2019-01-20 22:08:25 GMT 42.143692 22.994884 38,000 333 423 -128
2019-01-20 22:08:21 GMT 42.137409 22.998600 38,000 333 424 0
2019-01-20 22:08:18 GMT 42.133347 23.002312 38,000 333 424 0
2019-01-20 22:08:15 GMT 42.127399 23.005882 38,000 333 424 64
2019-01-20 22:08:08 GMT 42.115768 23.014547 38,000 333 424 64
2019-01-20 22:08:04 GMT 42.109177 23.019417 38,000 333 424 -64
2019-01-20 22:07:58 GMT 42.097641 23.026720 38,000 333 424 -64
2019-01-20 22:07:54 GMT 42.090958 23.031651 38,000 333 424 64
2019-01-20 22:07:49 GMT 42.081482 23.039017 38,000 333 424 64
2019-01-20 22:07:46 GMT 42.077225 23.041451 38,000 333 424 64
2019-01-20 22:07:43 GMT 42.072701 23.045101 38,000 333 424 0
2019-01-20 22:07:37 GMT 42.061577 23.052446 38,000 333 424 -64
2019-01-20 22:07:33 GMT 42.055244 23.057365 38,000 333 424 -128
2019-01-20 22:07:26 GMT 42.041565 23.065859 38,000 333 424 64
2019-01-20 22:07:23 GMT 42.036392 23.069628 38,000 333 424 128
2019-01-20 22:07:15 GMT 42.023403 23.079336 38,000 333 424 64
2019-01-20 22:07:12 GMT 42.017395 23.082962 38,000 333 424 0
2019-01-20 22:07:06 GMT 42.006821 23.090389 38,000 333 425 -64
2019-01-20 22:07:03 GMT 42.000641 23.095259 38,000 333 425 0
2019-01-20 22:06:55 GMT 41.988071 23.103802 38,000 333 425 -64
2019-01-20 22:06:52 GMT 41.982513 23.107494 38,000 333 424 -64
2019-01-20 22:06:42 GMT 41.964844 23.119665 38,000 333 425 0
2019-01-20 22:06:34 GMT 41.949574 23.130692 38,000 333 425 0
2019-01-20 22:06:31 GMT 41.946453 23.133120 38,000 333 425 0
2019-01-20 22:06:24 GMT 41.933140 23.142828 38,000 333 425 0
2019-01-20 22:06:20 GMT 41.927856 23.146507 38,000 333 425 64
2019-01-20 22:06:11 GMT 41.909363 23.158743 38,000 333 426 64
2019-01-20 22:06:03 GMT 41.896969 23.167356 38,000 333 427 -64
2019-01-20 22:06:00 GMT 41.891693 23.171040 38,000 333 426 -64
2019-01-20 22:05:50 GMT 41.873413 23.184475 38,000 333 427 0
2019-01-20 22:05:47 GMT 41.869175 23.186966 38,000 333 427 64
2019-01-20 22:05:42 GMT 41.860794 23.193012 38,000 333 427 0
2019-01-20 22:05:39 GMT 41.854652 23.196674 38,000 333 427 0
2019-01-20 22:05:36 GMT 41.850037 23.200378 38,000 333 427 0
2019-01-20 22:05:32 GMT 41.842804 23.205311 38,000 333 427 -64
2019-01-20 22:05:27 GMT 41.833469 23.211430 38,000 333 427 64
2019-01-20 22:05:22 GMT 41.820389 23.221201 38,000 333 426 0
2019-01-20 22:05:19 GMT 41.814377 23.224911 38,000 333 427 0
2019-01-20 22:05:16 GMT 41.814377 23.224911 38,000 333 426 0
2019-01-20 22:05:12 GMT 41.807602 23.229778 38,000 333 426 0
2019-01-20 22:05:09 GMT 41.802048 23.233400 38,000 333 426 64
2019-01-20 22:05:05 GMT 41.796181 23.238382 38,000 333 426 0
2019-01-20 22:05:01 GMT 41.789059 23.243238 38,000 333 426 -64
2019-01-20 22:04:58 GMT 41.781982 23.248156 38,000 333 426 0
2019-01-20 22:04:55 GMT 41.777653 23.250584 38,000 333 426 64
2019-01-20 22:04:51 GMT 41.771557 23.255438 38,000 333 427 0
2019-01-20 22:04:47 GMT 41.763920 23.260420 38,000 333 427 -64
2019-01-20 22:04:44 GMT 41.759399 23.264050 38,000 333 427 -64
2019-01-20 22:04:41 GMT 41.753120 23.267637 38,000 333 427 0
2019-01-20 22:04:37 GMT 41.744797 23.273726 38,000 333 427 64
2019-01-20 22:04:34 GMT 41.740906 23.276159 38,000 333 426 64
2019-01-20 22:04:31 GMT 41.735386 23.279839 38,000 333 427 64
2019-01-20 22:04:24 GMT 41.722961 23.288330 38,000 333 427 64
2019-01-20 22:04:13 GMT 41.703777 23.301746 38,000 333 427 -128
2019-01-20 22:04:03 GMT 41.686737 23.313883 38,000 333 427 0
2019-01-20 22:03:54 GMT 41.671783 23.324848 38,000 333 427 0
2019-01-20 22:03:51 GMT 41.666534 23.328510 38,000 333 427 64
2019-01-20 22:03:45 GMT 41.653473 23.336897 38,000 333 427 0
2019-01-20 22:03:40 GMT 41.646469 23.341764 38,000 333 427 0
2019-01-20 22:03:34 GMT 41.635574 23.349007 38,000 333 427 -64
2019-01-20 22:03:31 GMT 41.631107 23.352718 38,000 333 427 -128
2019-01-20 22:03:23 GMT 41.608200 23.368483 38,000 333 427 64
2019-01-20 22:03:14 GMT 41.600876 23.373287 38,000 333 427 -64
2019-01-20 22:03:11 GMT 41.595078 23.376926 38,000 333 427 -64
2019-01-20 22:03:00 GMT 41.576660 23.390205 38,000 333 427 0
2019-01-20 22:02:49 GMT 41.556484 23.403563 38,000 333 428 0
2019-01-20 22:02:39 GMT 41.539165 23.415634 38,000 333 428 -64
2019-01-20 22:02:29 GMT 41.521431 23.427834 38,000 333 428 0
2019-01-20 22:02:23 GMT 41.511421 23.435116 38,000 333 428 -64
2019-01-20 22:02:19 GMT 41.503368 23.439970 38,000 333 428 0
2019-01-20 22:02:08 GMT 41.485107 23.453377 38,000 333 428 0
2019-01-20 22:02:01 GMT 41.470688 23.462990 38,000 333 428 -64
2019-01-20 22:01:58 GMT 41.466080 23.466604 38,000 333 428 -64
2019-01-20 22:01:51 GMT 41.454861 23.473951 38,000 333 428 64
2019-01-20 22:01:48 GMT 41.449631 23.477596 38,000 333 428 64
2019-01-20 22:01:44 GMT 41.440521 23.483597 38,000 333 428 0
2019-01-20 22:01:37 GMT 41.429398 23.490877 38,000 333 428 0
2019-01-20 22:01:32 GMT 41.421204 23.496946 38,000 333 428 0
2019-01-20 22:01:26 GMT 41.411270 23.504189 38,000 333 428 -64
2019-01-20 22:01:22 GMT 41.403992 23.508932 38,000 333 428 0
2019-01-20 22:01:16 GMT 41.393188 23.516235 38,000 333 427 64
2019-01-20 22:01:09 GMT 41.378494 23.525879 38,000 333 427 0
2019-01-20 22:01:06 GMT 41.374695 23.528259 38,000 333 427 -64
2019-01-20 22:01:02 GMT 41.368835 23.533081 38,000 333 427 -64
2019-01-20 22:00:56 GMT 41.356934 23.540344 38,000 333 427 -64
2019-01-20 22:00:52 GMT 41.338295 23.553501 38,000 333 427 0
2019-01-20 22:00:45 GMT 41.338295 23.553501 38,000 333 427 0
2019-01-20 22:00:37 GMT 41.324097 23.563114 38,000 333 427 0
2019-01-20 22:00:34 GMT 41.319855 23.566772 38,000 333 427 -64
2019-01-20 22:00:31 GMT 41.313065 23.570356 38,000 333 427 0
2019-01-20 22:00:26 GMT 41.305847 23.576294 38,000 333 427 64
2019-01-20 22:00:22 GMT 41.298340 23.581238 38,000 333 427 0
2019-01-20 22:00:17 GMT 41.287079 23.588318 38,000 333 427 0
2019-01-20 22:00:14 GMT 41.283600 23.590759 38,000 333 427 0
2019-01-20 22:00:09 GMT 41.272751 23.597900 38,000 333 427 0
2019-01-20 22:00:05 GMT 41.262772 23.605042 38,000 333 427 0
2019-01-20 22:00:02 GMT 41.262772 23.605042 38,000 333 427 0
2019-01-20 21:59:56 GMT 41.250961 23.613489 38,000 333 427 0
2019-01-20 21:59:52 GMT 41.244690 23.617004 38,000 333 427 0
2019-01-20 21:59:42 GMT 41.227295 23.629028 38,000 333 426 0
2019-01-20 21:59:35 GMT 41.214649 23.637459 38,000 333 426 -64
2019-01-20 21:59:31 GMT 41.208042 23.642328 38,000 333 426 -64
2019-01-20 21:59:24 GMT 41.196350 23.650635 38,000 333 426 0
2019-01-20 21:59:20 GMT 41.188751 23.655457 38,000 333 427 0
2019-01-20 21:59:11 GMT 41.172939 23.666237 38,000 333 426 0
2019-01-20 21:59:04 GMT 41.158928 23.675787 38,000 333 426 0
2019-01-20 21:59:00 GMT 41.154465 23.679443 38,000 333 426 0
2019-01-20 21:58:53 GMT 41.140778 23.689026 38,000 333 427 -64
2019-01-20 21:58:50 GMT 41.136337 23.691406 38,000 333 427 -64
2019-01-20 21:58:43 GMT 41.123199 23.699829 38,000 333 426 0
2019-01-20 21:58:40 GMT 41.119034 23.703369 38,000 333 426 64
2019-01-20 21:58:33 GMT 41.104752 23.712952 38,000 333 426 0
2019-01-20 21:58:30 GMT 41.100403 23.715393 38,000 333 427 64
2019-01-20 21:58:19 GMT 41.081184 23.728472 38,000 333 427 0
2019-01-20 21:58:09 GMT 41.063541 23.740456 38,000 333 427 0
2019-01-20 21:57:59 GMT 41.046364 23.752378 38,000 333 427 0
2019-01-20 21:57:48 GMT 41.028122 23.765503 38,000 333 427 0
2019-01-20 21:57:41 GMT 41.013611 23.774963 38,000 333 426 -64
2019-01-20 21:57:38 GMT 41.009308 23.777405 38,000 333 426 -64
2019-01-20 21:57:27 GMT 40.990734 23.790457 38,000 333 426 64
2019-01-20 21:57:19 GMT 40.977001 23.799883 38,000 334 426 0
2019-01-20 21:57:16 GMT 40.971634 23.803406 38,000 333 426 0
2019-01-20 21:57:10 GMT 40.958054 23.811743 38,000 333 427 -64
2019-01-20 21:57:06 GMT 40.954376 23.815308 38,000 334 427 -64
2019-01-20 21:57:00 GMT 40.941761 23.823666 38,000 333 428 -64
2019-01-20 21:56:56 GMT 40.936111 23.827209 38,000 333 428 -64
2019-01-20 21:56:46 GMT 40.917370 23.839209 38,000 333 428 -64
2019-01-20 21:56:35 GMT 40.898792 23.852255 38,000 333 431 128
2019-01-20 21:56:28 GMT 40.885620 23.860718 38,000 333 432 0
2019-01-20 21:56:25 GMT 40.880268 23.864365 38,000 333 432 64
2019-01-20 21:56:14 GMT 40.860901 23.877502 38,000 333 432 64
2019-01-20 21:56:07 GMT 40.848053 23.885963 38,000 333 432 -64
2019-01-20 21:56:04 GMT 40.843735 23.889587 38,000 333 432 -128
2019-01-20 21:56:00 GMT 40.834507 23.895514 38,000 333 432 64
2019-01-20 21:55:53 GMT 40.824638 23.902754 38,000 334 432 64
2019-01-20 21:55:48 GMT 40.814896 23.908752 38,000 333 432 -64
2019-01-20 21:55:43 GMT 40.806202 23.914740 38,000 333 432 0
2019-01-20 21:55:38 GMT 40.796814 23.920776 38,000 333 432 -64
2019-01-20 21:55:33 GMT 40.787766 23.926786 38,000 333 432 -64
2019-01-20 21:55:22 GMT 40.768204 23.939941 38,000 334 432 192
2019-01-20 21:55:12 GMT 40.750809 23.951965 38,000 334 432 -128
2019-01-20 21:55:08 GMT 40.743439 23.956665 38,000 334 432 64
2019-01-20 21:55:02 GMT 40.732315 23.963867 38,000 334 431 64
2019-01-20 21:54:58 GMT 40.725952 23.968567 38,000 334 431 0
2019-01-20 21:54:51 GMT 40.714123 23.976974 38,000 334 431 -64
2019-01-20 21:54:48 GMT 40.707550 23.980530 38,000 334 431 64
2019-01-20 21:54:44 GMT 40.700016 23.986525 38,000 334 431 128
2019-01-20 21:54:41 GMT 40.695499 23.988834 38,000 334 431 64
2019-01-20 21:54:38 GMT 40.688610 23.993641 38,000 334 431 -64
2019-01-20 21:54:33 GMT 40.681675 23.998323 38,000 334 430 -64
2019-01-20 21:54:30 GMT 40.676559 24.001953 38,000 334 429 0
2019-01-20 21:54:23 GMT 40.657745 24.013794 38,000 334 429 -64
2019-01-20 21:54:20 GMT 40.649693 24.019796 38,000 334 429 -64
2019-01-20 21:54:12 GMT 40.644333 24.023254 38,000 334 429 -64
2019-01-20 21:54:08 GMT 40.635681 24.029284 38,000 334 429 0
2019-01-20 21:53:59 GMT 40.621296 24.038586 38,000 334 428 0
2019-01-20 21:53:56 GMT 40.615952 24.042175 38,000 334 428 0
2019-01-20 21:53:47 GMT 40.598831 24.053955 38,000 334 428 -64
2019-01-20 21:53:38 GMT 40.583450 24.063354 38,000 334 428 0
2019-01-20 21:53:28 GMT 40.565460 24.075256 38,000 334 427 -64
2019-01-20 21:53:25 GMT 40.561619 24.078724 38,000 334 427 0
2019-01-20 21:53:18 GMT 40.547649 24.088085 38,000 334 427 0
2019-01-20 21:53:15 GMT 40.542389 24.090458 38,000 334 427 0
2019-01-20 21:53:08 GMT 40.529961 24.099697 38,000 334 427 0
2019-01-20 21:53:05 GMT 40.523163 24.103271 38,000 334 426 0
2019-01-20 21:52:57 GMT 40.510643 24.111494 38,000 334 425 0
2019-01-20 21:52:53 GMT 40.504868 24.116114 38,000 334 425 -64
2019-01-20 21:52:46 GMT 40.492401 24.124268 38,000 334 425 0
2019-01-20 21:52:43 GMT 40.486855 24.127787 38,000 334 425 64
2019-01-20 21:52:36 GMT 40.473862 24.135986 38,000 334 424 0
2019-01-20 21:52:32 GMT 40.466602 24.141769 38,000 334 424 0
2019-01-20 21:52:25 GMT 40.455711 24.148762 38,000 334 424 -64
2019-01-20 21:52:21 GMT 40.448959 24.153505 38,000 334 424 -64
2019-01-20 21:52:14 GMT 40.435913 24.161560 38,000 334 423 64
2019-01-20 21:52:11 GMT 40.430386 24.165115 38,000 334 423 128
2019-01-20 21:52:04 GMT 40.418976 24.173279 38,000 334 424 -64
2019-01-20 21:52:00 GMT 40.412064 24.177856 38,000 334 423 -64
2019-01-20 21:51:54 GMT 40.400711 24.184937 38,000 334 423 0
2019-01-20 21:51:50 GMT 40.393433 24.189514 38,000 334 423 0
2019-01-20 21:51:44 GMT 40.383041 24.196533 38,000 334 423 0
2019-01-20 21:51:40 GMT 40.375900 24.201172 38,000 334 424 0
2019-01-20 21:51:34 GMT 40.365921 24.208069 38,000 334 424 64
2019-01-20 21:51:30 GMT 40.357765 24.213804 38,000 334 424 0
2019-01-20 21:51:23 GMT 40.346081 24.220858 38,000 334 424 -64
2019-01-20 21:51:16 GMT 40.334198 24.228943 38,000 334 424 0
2019-01-20 21:51:13 GMT 40.328156 24.233643 38,000 334 424 0
2019-01-20 21:51:05 GMT 40.314938 24.241709 38,000 334 424 0
2019-01-20 21:51:02 GMT 40.309616 24.245239 38,000 334 424 0
2019-01-20 21:50:57 GMT 40.301250 24.250946 38,000 334 425 64
2019-01-20 21:50:51 GMT 40.290543 24.257936 38,000 334 425 0
2019-01-20 21:50:47 GMT 40.283794 24.262556 38,000 334 425 -64
2019-01-20 21:50:41 GMT 40.272434 24.269485 38,000 334 425 -64
2019-01-20 21:50:36 GMT 40.264297 24.275269 38,000 334 425 -64
2019-01-20 21:50:30 GMT 40.253998 24.282166 38,000 334 425 0
2019-01-20 21:50:26 GMT 40.246719 24.286865 38,000 334 425 128
2019-01-20 21:50:20 GMT 40.236328 24.293823 38,000 334 425 0
2019-01-20 21:50:15 GMT 40.224380 24.300842 38,000 334 425 -64
2019-01-20 21:50:10 GMT 40.217926 24.305420 38,000 334 426 0
2019-01-20 21:50:05 GMT 40.208450 24.312378 38,000 334 426 0
2019-01-20 21:50:00 GMT 40.200348 24.317078 38,000 334 427 64
2019-01-20 21:49:54 GMT 40.190643 24.324036 38,000 334 427 0
2019-01-20 21:49:49 GMT 40.181145 24.329847 38,000 334 427 -128
2019-01-20 21:49:43 GMT 40.169495 24.337952 38,000 334 427 -64
2019-01-20 21:49:39 GMT 40.163361 24.341520 38,000 334 427 -64
2019-01-20 21:49:34 GMT 40.154251 24.347229 38,000 334 427 -64
2019-01-20 21:49:27 GMT 40.141808 24.355503 38,000 334 427 0
2019-01-20 21:49:19 GMT 40.127888 24.364803 38,000 334 427 0
2019-01-20 21:49:16 GMT 40.123352 24.368225 38,000 334 427 0
2019-01-20 21:49:13 GMT 40.116951 24.371733 38,000 334 427 0
2019-01-20 21:49:06 GMT 40.105362 24.379883 38,000 334 427 0
2019-01-20 21:49:02 GMT 40.098541 24.384644 38,000 334 427 0
2019-01-20 21:48:55 GMT 40.083252 24.393921 38,000 334 427 -64
2019-01-20 21:48:52 GMT 40.079956 24.396179 38,000 334 427 0
2019-01-20 21:48:45 GMT 40.068443 24.404318 38,000 334 427 0
2019-01-20 21:48:42 GMT 40.061367 24.408937 38,000 334 427 0
2019-01-20 21:48:34 GMT 40.049515 24.417053 38,000 334 427 0
2019-01-20 21:48:28 GMT 40.038528 24.424011 38,000 334 427 0
2019-01-20 21:48:24 GMT 40.030243 24.428711 38,000 334 427 0
2019-01-20 21:48:18 GMT 40.020081 24.435730 38,000 334 427 0
2019-01-20 21:48:15 GMT 40.014580 24.439087 38,000 334 427 0
2019-01-20 21:48:09 GMT 40.005363 24.446077 38,000 334 427 0
2019-01-20 21:48:05 GMT 39.996754 24.450760 38,000 334 428 0
2019-01-20 21:47:59 GMT 39.986744 24.457689 38,000 334 428 0
2019-01-20 21:47:54 GMT 39.978012 24.463501 38,000 334 428 0
2019-01-20 21:47:48 GMT 39.966446 24.471609 38,000 334 428 -64
2019-01-20 21:47:44 GMT 39.960251 24.475037 38,000 334 429 -64
2019-01-20 21:47:38 GMT 39.948853 24.481995 38,000 334 429 -64
2019-01-20 21:47:34 GMT 39.941574 24.486633 38,000 334 429 0
2019-01-20 21:47:28 GMT 39.930882 24.494768 38,000 334 429 0
2019-01-20 21:47:23 GMT 39.922733 24.499388 38,000 334 429 64
2019-01-20 21:47:18 GMT 39.912586 24.506348 38,000 334 430 -64
2019-01-20 21:47:13 GMT 39.905136 24.510986 38,000 334 429 -128
2019-01-20 21:47:02 GMT 39.886139 24.523634 38,000 334 429 64
2019-01-20 21:46:58 GMT 39.878632 24.528351 38,000 334 430 0
2019-01-20 21:46:55 GMT 39.873482 24.531860 38,000 334 430 64
2019-01-20 21:46:50 GMT 39.854580 24.543518 38,000 334 430 0
2019-01-20 21:46:45 GMT 39.854580 24.543518 38,000 334 430 -64
2019-01-20 21:46:40 GMT 39.846085 24.549309 38,000 334 431 0
2019-01-20 21:46:30 GMT 39.828323 24.560951 38,000 334 431 0
2019-01-20 21:46:23 GMT 39.816780 24.569031 38,000 334 431 0
2019-01-20 21:46:19 GMT 39.809566 24.573669 38,000 334 431 -64
2019-01-20 21:46:09 GMT 39.791691 24.585266 38,000 334 431 -64
2019-01-20 21:46:03 GMT 39.779633 24.592102 38,000 334 431 -128
2019-01-20 21:45:59 GMT 39.772324 24.596741 38,000 334 429 -64
2019-01-20 21:45:52 GMT 39.760803 24.604776 38,000 334 429 -64
2019-01-20 21:45:49 GMT 39.754913 24.608154 38,000 334 430 64
2019-01-20 21:45:45 GMT 39.747513 24.612793 38,000 334 429 -64
2019-01-20 21:45:42 GMT 39.742126 24.616241 38,000 334 429 -64
2019-01-20 21:45:39 GMT 39.736710 24.619690 38,000 334 430 0
2019-01-20 21:45:36 GMT 39.729870 24.624329 38,000 334 430 0
2019-01-20 21:45:30 GMT 39.721939 24.630033 38,000 334 429 0
2019-01-20 21:45:27 GMT 39.716370 24.633545 38,000 334 429 0
2019-01-20 21:45:21 GMT 39.705009 24.640442 38,000 334 429 0
2019-01-20 21:45:18 GMT 39.700333 24.643946 38,000 334 429 0
2019-01-20 21:45:13 GMT 39.690262 24.650871 38,000 334 429 0
2019-01-20 21:45:08 GMT 39.682205 24.655531 38,000 334 429 64
2019-01-20 21:45:04 GMT 39.675568 24.660067 38,000 334 428 0
2019-01-20 21:44:58 GMT 39.663715 24.668274 38,000 334 429 0
2019-01-20 21:44:54 GMT 39.657440 24.671652 38,000 334 429 0
2019-01-20 21:44:47 GMT 39.644772 24.679749 38,000 334 429 0
2019-01-20 21:44:41 GMT 39.634205 24.686707 38,000 334 429 0
2019-01-20 21:44:37 GMT 39.626755 24.691284 38,000 334 429 0
2019-01-20 21:44:32 GMT 39.614822 24.699297 38,000 334 429 0
2019-01-20 21:44:26 GMT 39.607452 24.703835 38,000 334 429 0
2019-01-20 21:44:22 GMT 39.598824 24.709656 38,000 334 428 0
2019-01-20 21:44:15 GMT 39.588257 24.716492 38,000 334 428 0
2019-01-20 21:44:10 GMT 39.580124 24.722223 38,000 334 428 -64
2019-01-20 21:44:06 GMT 39.571701 24.726881 38,000 334 427 0
2019-01-20 21:44:00 GMT 39.560715 24.733747 38,000 334 427 64
2019-01-20 21:43:55 GMT 39.552830 24.739502 38,000 334 427 64
2019-01-20 21:43:48 GMT 39.539886 24.747421 38,000 334 428 -64
2019-01-20 21:43:44 GMT 39.533478 24.751959 38,000 334 427 -64
2019-01-20 21:43:38 GMT 39.521080 24.759949 38,000 334 427 0
2019-01-20 21:43:35 GMT 39.516518 24.762146 38,000 334 427 0
2019-01-20 21:43:32 GMT 39.498276 24.774708 38,000 334 425 0
2019-01-20 21:43:24 GMT 39.498276 24.774708 38,000 334 426 -64
2019-01-20 21:43:20 GMT 39.489285 24.780396 38,000 334 425 0
2019-01-20 21:43:14 GMT 39.479507 24.786112 38,000 334 425 64
2019-01-20 21:43:10 GMT 39.472458 24.790649 38,000 334 425 0
2019-01-20 21:43:04 GMT 39.461655 24.797516 38,000 334 426 0
2019-01-20 21:43:01 GMT 39.455246 24.801933 38,000 334 426 0
2019-01-20 21:42:53 GMT 39.442314 24.809875 38,000 334 425 -64
2019-01-20 21:42:50 GMT 39.437668 24.813339 38,000 334 425 -64
2019-01-20 21:42:43 GMT 39.424072 24.822355 38,000 334 425 -64
2019-01-20 21:42:40 GMT 39.418758 24.825806 38,000 334 425 0
2019-01-20 21:42:30 GMT 39.401070 24.837036 38,000 334 424 0
2019-01-20 21:42:24 GMT 39.384659 24.847193 38,000 334 424 -64
2019-01-20 21:42:17 GMT 39.380306 24.850586 38,000 334 423 0
2019-01-20 21:42:11 GMT 39.368576 24.857300 38,000 334 423 0
2019-01-20 21:42:07 GMT 39.362339 24.861877 38,000 334 423 0
2019-01-20 21:42:01 GMT 39.350601 24.869703 38,000 334 421 0
2019-01-20 21:41:57 GMT 39.343948 24.873047 38,000 334 421 0
2019-01-20 21:41:51 GMT 39.324875 24.885347 38,000 334 421 0
2019-01-20 21:41:46 GMT 39.324875 24.885347 38,000 334 421 0
2019-01-20 21:41:40 GMT 39.313599 24.893127 38,000 334 422 0
2019-01-20 21:41:35 GMT 39.305637 24.897461 38,000 334 422 0
2019-01-20 21:41:28 GMT 39.291439 24.906372 38,000 334 422 0
2019-01-20 21:41:24 GMT 39.286972 24.909708 38,000 334 423 -64
2019-01-20 21:41:20 GMT 39.279282 24.914125 38,000 334 422 0
2019-01-20 21:41:17 GMT 39.274029 24.917480 38,000 334 422 0
2019-01-20 21:41:13 GMT 39.267231 24.921875 38,000 334 422 64
2019-01-20 21:41:07 GMT 39.255249 24.929710 38,000 334 422 0
2019-01-20 21:41:03 GMT 39.249123 24.933105 38,000 334 423 -64
2019-01-20 21:40:58 GMT 39.239391 24.939819 38,000 334 422 -64
2019-01-20 21:40:52 GMT 39.229660 24.945414 38,000 334 422 0
2019-01-20 21:40:49 GMT 39.225380 24.948853 38,000 334 422 64
2019-01-20 21:40:45 GMT 39.218536 24.953415 38,000 333 421 0
2019-01-20 21:40:41 GMT 39.210716 24.958008 38,000 333 420 -64
2019-01-20 21:40:38 GMT 39.206177 24.961475 38,000 333 420 -64
2019-01-20 21:40:35 GMT 39.199951 24.966072 38,000 333 420 -64
2019-01-20 21:40:30 GMT 39.192215 24.970610 38,000 333 420 0
2019-01-20 21:40:26 GMT 39.183716 24.976379 38,000 333 420 64
2019-01-20 21:40:19 GMT 39.173847 24.983215 38,000 333 421 64
2019-01-20 21:40:15 GMT 39.165516 24.987793 38,000 333 421 64
2019-01-20 21:40:08 GMT 39.153992 24.995928 38,000 333 422 -64
2019-01-20 21:40:05 GMT 39.147400 25.000463 38,000 333 423 0
2019-01-20 21:39:57 GMT 39.135441 25.008545 38,000 333 423 -64
2019-01-20 21:39:53 GMT 39.127995 25.013184 38,000 333 423 -64
2019-01-20 21:39:46 GMT 39.115997 25.021242 38,000 333 423 0
2019-01-20 21:39:42 GMT 39.108856 25.025782 38,000 333 424 64
2019-01-20 21:39:35 GMT 39.096107 25.033752 38,000 334 424 64
2019-01-20 21:39:32 GMT 39.090240 25.038391 38,000 334 425 -64
2019-01-20 21:39:24 GMT 39.076996 25.046379 38,000 334 425 -192
2019-01-20 21:39:21 GMT 39.069897 25.049927 38,000 333 425 -64
2019-01-20 21:39:13 GMT 39.056580 25.060232 38,000 333 425 64
2019-01-20 21:39:10 GMT 39.052368 25.062502 38,000 333 425 64
2019-01-20 21:39:02 GMT 39.039185 25.071756 38,000 333 425 0
2019-01-20 21:38:59 GMT 39.033726 25.075256 38,000 333 426 0
2019-01-20 21:38:51 GMT 39.018784 25.084534 38,000 333 426 -64
2019-01-20 21:38:40 GMT 39.000320 25.097252 38,000 333 425 0
2019-01-20 21:38:37 GMT 38.994156 25.100708 38,000 333 425 0
2019-01-20 21:38:31 GMT 38.983261 25.107666 38,000 333 425 0
2019-01-20 21:38:27 GMT 38.976234 25.112305 38,000 333 425 64
2019-01-20 21:38:22 GMT 38.967545 25.118031 38,000 333 425 64
2019-01-20 21:38:19 GMT 38.962360 25.121399 38,000 333 425 0
2019-01-20 21:38:12 GMT 38.949745 25.130737 38,000 333 426 -128
2019-01-20 21:38:09 GMT 38.944717 25.132996 38,000 333 426 -128
2019-01-20 21:38:05 GMT 38.937920 25.137634 38,000 333 426 0
2019-01-20 21:37:59 GMT 38.922958 25.147943 38,000 333 426 0
2019-01-20 21:37:48 GMT 38.908173 25.157200 38,000 333 427 -64
2019-01-20 21:37:45 GMT 38.903564 25.160645 38,000 333 427 -64
2019-01-20 21:37:37 GMT 38.889694 25.169861 38,000 333 427 -64
2019-01-20 21:37:34 GMT 38.884323 25.173380 38,000 333 426 -64
2019-01-20 21:37:29 GMT 38.874935 25.179138 38,025 334 427 0
2019-01-20 21:37:24 GMT 38.865208 25.186096 38,000 333 428 64
2019-01-20 21:37:17 GMT 38.852142 25.194098 38,000 333 428 -64
2019-01-20 21:37:13 GMT 38.845825 25.198755 38,000 333 428 0
2019-01-20 21:37:05 GMT 38.832436 25.206848 38,000 333 428 0
2019-01-20 21:37:02 GMT 38.826462 25.210339 38,000 333 428 0
2019-01-20 21:36:56 GMT 38.814976 25.218323 38,000 334 429 0
2019-01-20 21:36:50 GMT 38.806595 25.224133 38,000 334 429 0
2019-01-20 21:36:45 GMT 38.796249 25.229982 38,000 334 429 0
2019-01-20 21:36:39 GMT 38.786953 25.236816 38,000 334 429 64
2019-01-20 21:36:35 GMT 38.778122 25.242641 38,000 334 429 0
2019-01-20 21:36:28 GMT 38.767685 25.249567 38,000 334 429 0
2019-01-20 21:36:23 GMT 38.758739 25.255249 38,000 334 429 0
2019-01-20 21:36:17 GMT 38.747616 25.262207 38,000 334 429 0
2019-01-20 21:36:14 GMT 38.740726 25.266846 38,000 334 430 0
2019-01-20 21:36:06 GMT 38.728134 25.274883 38,000 334 430 0
2019-01-20 21:36:03 GMT 38.721870 25.278381 38,000 334 430 64
2019-01-20 21:35:54 GMT 38.705933 25.288736 38,000 334 430 -64
2019-01-20 21:35:51 GMT 38.700737 25.292236 38,000 334 430 -64
2019-01-20 21:35:46 GMT 38.691559 25.297991 38,000 333 431 0
2019-01-20 21:35:41 GMT 38.683468 25.303772 38,000 333 431 64
2019-01-20 21:35:33 GMT 38.668385 25.313110 38,000 334 432 -64
2019-01-20 21:35:29 GMT 38.662006 25.317688 38,000 334 432 -64
2019-01-20 21:35:25 GMT 38.654556 25.322388 38,000 334 432 -64
2019-01-20 21:35:19 GMT 38.643570 25.329285 38,000 334 432 0
2019-01-20 21:35:14 GMT 38.635620 25.335129 38,000 334 432 64
2019-01-20 21:35:11 GMT 38.629978 25.338623 38,000 334 432 128
2019-01-20 21:35:07 GMT 38.623089 25.343201 38,000 334 432 0
2019-01-20 21:35:01 GMT 38.611313 25.350159 38,000 333 433 -128
2019-01-20 21:34:56 GMT 38.603165 25.356028 38,000 333 433 -128
2019-01-20 21:34:53 GMT 38.597996 25.359436 38,000 334 432 -64
2019-01-20 21:34:49 GMT 38.588425 25.365223 38,000 334 432 64
2019-01-20 21:34:43 GMT 38.579048 25.371094 38,000 334 432 0
2019-01-20 21:34:35 GMT 38.565456 25.380310 38,000 334 432 -64
2019-01-20 21:34:32 GMT 38.560089 25.383793 38,000 334 432 0
2019-01-20 21:34:27 GMT 38.550934 25.389648 38,000 334 432 64
2019-01-20 21:34:23 GMT 38.541779 25.395315 38,000 334 432 0
2019-01-20 21:34:16 GMT 38.531570 25.402302 38,000 334 432 -64
2019-01-20 21:34:11 GMT 38.523464 25.408142 38,000 334 432 -64
2019-01-20 21:34:06 GMT 38.513260 25.413885 38,000 334 432 -64
2019-01-20 21:34:00 GMT 38.501911 25.421875 38,000 334 432 64
2019-01-20 21:33:55 GMT 38.494556 25.426514 38,000 334 432 64
2019-01-20 21:33:51 GMT 38.479660 25.435730 38,000 334 432 0
2019-01-20 21:33:45 GMT 38.475937 25.437988 38,000 334 432 -64
2019-01-20 21:33:40 GMT 38.466393 25.444763 38,000 334 432 -64
2019-01-20 21:33:35 GMT 38.456680 25.450546 38,025 334 431 0
2019-01-20 21:33:28 GMT 38.446701 25.457413 38,000 334 430 0
2019-01-20 21:33:23 GMT 38.436321 25.463196 38,000 334 430 64
2019-01-20 21:33:18 GMT 38.421478 25.473413 38,000 334 430 0
2019-01-20 21:33:14 GMT 38.421478 25.473413 38,000 334 430 -64
2019-01-20 21:33:09 GMT 38.411602 25.479206 38,000 334 430 -64
2019-01-20 21:33:06 GMT 38.407333 25.482672 38,000 334 429 -64
2019-01-20 21:33:03 GMT 38.401779 25.486012 38,000 334 429 0
2019-01-20 21:32:58 GMT 38.393234 25.491789 38,000 334 429 0
2019-01-20 21:32:53 GMT 38.383995 25.497477 38,000 334 429 64
2019-01-20 21:32:48 GMT 38.375061 25.503241 38,000 334 429 64
2019-01-20 21:32:44 GMT 38.368332 25.507799 38,000 334 429 64
2019-01-20 21:32:40 GMT 38.361420 25.512417 38,000 334 429 0
2019-01-20 21:32:37 GMT 38.355785 25.515806 38,000 334 429 64
2019-01-20 21:32:31 GMT 38.345219 25.522673 38,000 334 429 -64
2019-01-20 21:32:28 GMT 38.336792 25.527271 38,000 334 429 0
2019-01-20 21:32:21 GMT 38.318253 25.539824 38,000 334 429 -64
2019-01-20 21:32:16 GMT 38.308628 25.545542 38,000 334 429 0
2019-01-20 21:32:11 GMT 38.308628 25.545542 38,000 334 429 0
2019-01-20 21:32:07 GMT 38.299316 25.552467 38,000 334 429 0
2019-01-20 21:32:00 GMT 38.289459 25.558115 38,000 334 429 -64
2019-01-20 21:31:55 GMT 38.280834 25.563812 38,000 334 429 -128
2019-01-20 21:31:49 GMT 38.270828 25.570679 38,000 334 428 64
2019-01-20 21:31:45 GMT 38.262913 25.575216 38,000 334 429 64
2019-01-20 21:31:39 GMT 38.251648 25.583302 38,000 334 430 -64
2019-01-20 21:31:34 GMT 38.244324 25.587744 38,000 334 430 64
2019-01-20 21:31:27 GMT 38.230606 25.595757 38,000 334 429 -64
2019-01-20 21:31:24 GMT 38.225372 25.599138 38,000 334 430 -64
2019-01-20 21:31:16 GMT 38.211182 25.608253 38,000 334 429 128
2019-01-20 21:31:13 GMT 38.202862 25.613968 38,000 334 430 64
2019-01-20 21:31:07 GMT 38.195553 25.618565 38,000 334 431 -64
2019-01-20 21:31:04 GMT 38.187965 25.623161 38,000 334 430 -64
2019-01-20 21:30:56 GMT 38.169388 25.635662 38,000 334 431 64
2019-01-20 21:30:52 GMT 38.169388 25.635662 38,000 334 431 64
2019-01-20 21:30:46 GMT 38.157806 25.642441 38,000 334 432 0
2019-01-20 21:30:43 GMT 38.150574 25.646881 38,000 334 432 -64
2019-01-20 21:30:35 GMT 38.139038 25.654867 38,000 334 431 -64
2019-01-20 21:30:32 GMT 38.132053 25.659405 38,000 334 431 0
2019-01-20 21:30:22 GMT 38.112827 25.670750 38,000 334 431 -64
2019-01-20 21:30:13 GMT 38.098446 25.679945 38,000 334 432 0
2019-01-20 21:30:09 GMT 38.092159 25.684483 38,000 334 432 0
2019-01-20 21:30:02 GMT 38.078979 25.692406 38,000 334 432 0
2019-01-20 21:29:58 GMT 38.072662 25.696962 38,000 334 432 0
2019-01-20 21:29:51 GMT 38.058792 25.706139 38,000 334 432 -64
2019-01-20 21:29:48 GMT 38.054535 25.708418 38,000 334 432 -64
2019-01-20 21:29:40 GMT 38.039139 25.718756 38,000 334 432 0
2019-01-20 21:29:30 GMT 38.020424 25.730160 38,000 334 432 -128
2019-01-20 21:29:26 GMT 38.015121 25.733545 38,000 334 432 -128
2019-01-20 21:29:19 GMT 38.001297 25.742720 38,000 334 432 64
2019-01-20 21:29:15 GMT 37.996075 25.746161 38,000 334 432 64
2019-01-20 21:29:09 GMT 37.982758 25.754173 38,000 334 432 0
2019-01-20 21:29:05 GMT 37.977036 25.757566 38,000 334 433 0
2019-01-20 21:28:58 GMT 37.964046 25.766642 38,000 334 432 0
2019-01-20 21:28:53 GMT 37.956833 25.771238 38,000 334 432 0
2019-01-20 21:28:48 GMT 37.945148 25.778046 38,000 334 433 -192
2019-01-20 21:28:44 GMT 37.939682 25.781347 38,025 334 432 -64
2019-01-20 21:28:40 GMT 37.931789 25.787062 38,000 334 432 64
2019-01-20 21:28:37 GMT 37.926178 25.790464 38,000 334 433 128
2019-01-20 21:28:34 GMT 37.921646 25.792801 38,000 334 433 64
2019-01-20 21:28:30 GMT 37.911942 25.799639 38,000 334 434 0
2019-01-20 21:28:27 GMT 37.907547 25.801859 38,000 334 434 64
2019-01-20 21:28:23 GMT 37.902271 25.805332 38,000 334 434 64
2019-01-20 21:28:20 GMT 37.897614 25.808756 38,000 334 433 -64
2019-01-20 21:28:13 GMT 37.883698 25.816736 38,000 334 434 0
2019-01-20 21:28:10 GMT 37.878387 25.820091 38,000 334 434 -64
2019-01-20 21:28:06 GMT 37.869453 25.825752 38,000 334 433 -128
2019-01-20 21:28:02 GMT 37.864655 25.829266 38,000 334 433 -128
2019-01-20 21:27:59 GMT 37.858608 25.832619 38,000 334 433 -64
2019-01-20 21:27:55 GMT 37.851532 25.837097 38,000 334 434 0
2019-01-20 21:27:51 GMT 37.845062 25.841755 38,000 334 433 0
2019-01-20 21:27:47 GMT 37.836136 25.847441 38,000 334 432 0
2019-01-20 21:27:44 GMT 37.831280 25.850830 38,000 334 432 0
2019-01-20 21:27:41 GMT 37.826717 25.853039 38,000 334 432 0
2019-01-20 21:27:37 GMT 37.817276 25.858778 38,000 334 432 0
2019-01-20 21:27:30 GMT 37.807114 25.865557 38,000 334 432 0
2019-01-20 21:27:23 GMT 37.794132 25.873400 38,000 334 432 64
2019-01-20 21:27:20 GMT 37.788437 25.876892 38,000 334 432 64
2019-01-20 21:27:12 GMT 37.774750 25.885893 38,000 334 432 64
2019-01-20 21:27:09 GMT 37.769135 25.889341 38,000 334 432 0
2019-01-20 21:27:02 GMT 37.757217 25.897171 38,000 334 432 -64
2019-01-20 21:26:59 GMT 37.750626 25.901789 38,000 334 431 -64
2019-01-20 21:26:52 GMT 37.737572 25.909702 38,000 334 431 -64
2019-01-20 21:26:48 GMT 37.731628 25.912951 38,000 334 431 -64
2019-01-20 21:26:42 GMT 37.720207 25.920809 38,000 334 430 64
2019-01-20 21:26:37 GMT 37.712154 25.925346 38,000 334 430 64
2019-01-20 21:26:31 GMT 37.700592 25.933287 38,000 334 430 0
2019-01-20 21:26:26 GMT 37.693405 25.937670 38,000 334 430 -64
2019-01-20 21:26:20 GMT 37.681046 25.944448 38,000 334 430 0
2019-01-20 21:26:16 GMT 37.675003 25.948948 38,000 334 430 64
2019-01-20 21:26:11 GMT 37.663181 25.956812 38,000 334 430 64
2019-01-20 21:26:05 GMT 37.655361 25.961290 38,000 334 430 -64
2019-01-20 21:26:00 GMT 37.645119 25.967978 38,000 334 429 -128
2019-01-20 21:25:57 GMT 37.641350 25.970247 38,000 334 429 -128
2019-01-20 21:25:54 GMT 37.636047 25.973608 38,000 334 429 -64
2019-01-20 21:25:49 GMT 37.627476 25.979263 38,000 334 429 0
2019-01-20 21:25:44 GMT 37.618423 25.984829 38,000 334 429 0
2019-01-20 21:25:39 GMT 37.608715 25.990429 38,000 334 429 0
2019-01-20 21:25:34 GMT 37.599335 25.996107 38,000 334 429 -64
2019-01-20 21:25:30 GMT 37.589813 26.002769 38,000 334 429 64
2019-01-20 21:25:23 GMT 37.579762 26.008400 38,000 334 429 64
2019-01-20 21:25:18 GMT 37.571274 26.013988 38,000 334 430 0
2019-01-20 21:25:12 GMT 37.561111 26.020708 38,000 334 430 0
2019-01-20 21:25:07 GMT 37.552433 26.026253 38,000 334 429 0
2019-01-20 21:25:01 GMT 37.542053 26.032940 38,000 334 430 -64
2019-01-20 21:24:57 GMT 37.533905 26.037418 38,000 334 430 -64
2019-01-20 21:24:51 GMT 37.523525 26.044106 38,000 334 430 -64
2019-01-20 21:24:46 GMT 37.515060 26.049578 38,000 334 430 -64
2019-01-20 21:24:41 GMT 37.504856 26.055212 38,000 334 429 0
2019-01-20 21:24:36 GMT 37.495743 26.060799 38,000 334 430 0
2019-01-20 21:24:30 GMT 37.485077 26.067459 38,000 334 430 -64
2019-01-20 21:24:26 GMT 37.472782 26.075274 38,000 334 429 0
2019-01-20 21:24:19 GMT 37.465519 26.079752 38,000 334 429 64
2019-01-20 21:24:15 GMT 37.458298 26.084290 38,000 334 429 64
2019-01-20 21:24:07 GMT 37.445362 26.093185 38,000 334 429 0
2019-01-20 21:24:03 GMT 37.437122 26.097725 38,000 334 429 0
2019-01-20 21:23:58 GMT 37.429092 26.103165 38,000 334 429 0
2019-01-20 21:23:54 GMT 37.419899 26.108829 38,000 334 430 0
2019-01-20 21:23:47 GMT 37.409145 26.115517 38,000 334 429 64
2019-01-20 21:23:43 GMT 37.402954 26.119995 38,000 334 430 0
2019-01-20 21:23:37 GMT 37.391548 26.126623 38,000 334 429 0
2019-01-20 21:23:34 GMT 37.383224 26.132151 38,000 334 429 0
2019-01-20 21:23:23 GMT 37.365417 26.143312 38,000 334 429 0
2019-01-20 21:23:13 GMT 37.347198 26.154415 38,000 334 429 0
2019-01-20 21:23:05 GMT 37.334148 26.162088 38,000 334 430 -64
2019-01-20 21:23:02 GMT 37.327770 26.166687 38,000 334 430 -64
2019-01-20 21:22:54 GMT 37.314972 26.174459 38,000 334 429 -64
2019-01-20 21:22:51 GMT 37.308685 26.177794 38,000 334 429 0
2019-01-20 21:22:44 GMT 37.296661 26.185505 38,000 334 429 0
2019-01-20 21:22:39 GMT 37.288017 26.191109 38,000 334 429 0
2019-01-20 21:22:33 GMT 37.276936 26.197735 38,000 334 429 64
2019-01-20 21:22:29 GMT 37.269581 26.202213 38,000 334 429 64
2019-01-20 21:22:22 GMT 37.258072 26.209930 38,000 334 428 0
2019-01-20 21:22:18 GMT 37.250107 26.214314 38,000 334 428 0
2019-01-20 21:22:12 GMT 37.239395 26.220976 38,000 334 428 -64
2019-01-20 21:22:07 GMT 37.230476 26.226515 38,000 334 428 -64
2019-01-20 21:22:01 GMT 37.220840 26.233202 38,000 334 428 -64
2019-01-20 21:21:58 GMT 37.212879 26.237560 38,000 334 428 -64
2019-01-20 21:21:48 GMT 37.197830 26.247564 38,000 334 428 0
2019-01-20 21:21:45 GMT 37.191093 26.250935 38,000 334 427 0
2019-01-20 21:21:40 GMT 37.183090 26.256390 38,000 334 427 0
2019-01-20 21:21:37 GMT 37.178574 26.259653 38,000 334 427 -64
2019-01-20 21:21:32 GMT 37.168396 26.265156 38,000 334 427 0
2019-01-20 21:21:27 GMT 37.160046 26.270699 38,000 334 426 64
2019-01-20 21:21:22 GMT 37.151321 26.276140 38,000 334 426 64
2019-01-20 21:21:18 GMT 37.141983 26.281685 38,000 334 427 0
2019-01-20 21:21:14 GMT 37.135139 26.286043 38,000 334 427 0
2019-01-20 21:21:11 GMT 37.132484 26.288254 38,000 334 427 0
2019-01-20 21:21:08 GMT 37.126190 26.291569 38,000 334 426 -64
2019-01-20 21:21:05 GMT 37.118912 26.295952 38,000 334 426 -64
2019-01-20 21:21:01 GMT 37.113098 26.300335 38,000 334 426 0
2019-01-20 21:20:58 GMT 37.107925 26.302498 38,000 334 426 0
2019-01-20 21:20:54 GMT 37.100597 26.307957 38,000 334 426 0
2019-01-20 21:20:50 GMT 37.093826 26.311262 38,000 334 426 0
2019-01-20 21:20:47 GMT 37.088726 26.314526 38,000 334 426 0
2019-01-20 21:20:44 GMT 37.081417 26.318943 38,000 334 426 -64
2019-01-20 21:20:39 GMT 37.074249 26.323242 38,000 334 426 -64
2019-01-20 21:20:35 GMT 37.067730 26.327600 38,000 334 426 -64
2019-01-20 21:20:32 GMT 37.061966 26.330956 38,000 334 425 0
2019-01-20 21:20:27 GMT 37.054001 26.336437 38,000 334 425 0
2019-01-20 21:20:23 GMT 37.043663 26.342886 38,000 334 425 0
2019-01-20 21:20:15 GMT 37.030472 26.350533 38,000 334 424 -64
2019-01-20 21:20:11 GMT 37.024292 26.354856 38,000 334 425 -128
2019-01-20 21:20:04 GMT 37.013672 26.361462 38,000 334 425 -64
2019-01-20 21:20:01 GMT 37.007492 26.364738 38,000 334 424 0
2019-01-20 21:19:53 GMT 36.993526 26.373457 38,000 334 424 0
2019-01-20 21:19:50 GMT 36.984741 26.378876 38,000 334 424 0
2019-01-20 21:19:43 GMT 36.975372 26.384323 38,000 334 424 0
2019-01-20 21:19:39 GMT 36.969273 26.388563 38,000 334 423 0
2019-01-20 21:19:33 GMT 36.956863 26.396231 38,000 334 423 0
2019-01-20 21:19:30 GMT 36.950592 26.400497 38,000 334 423 0
2019-01-20 21:19:22 GMT 36.932373 26.411367 38,000 334 422 64
2019-01-20 21:19:19 GMT 36.932373 26.411367 38,000 334 422 0
2019-01-20 21:19:10 GMT 36.918915 26.420015 38,000 334 422 0
2019-01-20 21:19:07 GMT 36.912666 26.423195 38,000 334 421 64
2019-01-20 21:19:00 GMT 36.899723 26.431911 38,000 334 421 0
2019-01-20 21:18:57 GMT 36.892555 26.436211 38,000 334 421 -64
2019-01-20 21:18:51 GMT 36.883301 26.441580 38,000 334 420 -64
2019-01-20 21:18:46 GMT 36.876068 26.445904 38,000 334 420 -64
2019-01-20 21:18:40 GMT 36.864532 26.453346 38,000 334 420 -64
2019-01-20 21:18:37 GMT 36.860947 26.455557 38,000 334 419 0
2019-01-20 21:18:33 GMT 36.850239 26.461914 38,000 334 419 0
2019-01-20 21:18:30 GMT 36.846561 26.464079 38,000 334 419 -64
2019-01-20 21:18:24 GMT 36.837341 26.469383 38,000 334 419 -64
2019-01-20 21:18:18 GMT 36.827454 26.475906 38,000 334 419 64
2019-01-20 21:18:15 GMT 36.819237 26.481140 38,000 334 419 0
2019-01-20 21:18:09 GMT 36.809601 26.486492 38,000 334 419 0
2019-01-20 21:18:05 GMT 36.802505 26.490898 38,000 334 419 -64
2019-01-20 21:17:57 GMT 36.791443 26.498322 38,000 334 419 -64
2019-01-20 21:17:54 GMT 36.784321 26.502588 38,000 334 419 0
2019-01-20 21:17:47 GMT 36.773193 26.508959 38,000 334 418 0
2019-01-20 21:17:43 GMT 36.765472 26.514359 38,000 334 418 0
2019-01-20 21:17:36 GMT 36.754715 26.520767 38,000 334 418 0
2019-01-20 21:17:31 GMT 36.744892 26.526022 38,000 334 418 -64
2019-01-20 21:17:26 GMT 36.736313 26.531410 38,000 334 418 -64
2019-01-20 21:17:20 GMT 36.725601 26.537876 38,000 334 418 0
2019-01-20 21:17:15 GMT 36.717567 26.543261 38,000 334 418 0
2019-01-20 21:17:10 GMT 36.708481 26.548634 38,000 334 418 0
2019-01-20 21:17:05 GMT 36.699829 26.553955 38,000 334 418 0
2019-01-20 21:17:01 GMT 36.692459 26.559277 38,000 334 419 0
2019-01-20 21:16:58 GMT 36.687424 26.561394 38,000 334 418 64
2019-01-20 21:16:55 GMT 36.682278 26.564531 38,000 334 418 0
2019-01-20 21:16:51 GMT 36.675110 26.570902 38,000 334 418 0
2019-01-20 21:16:48 GMT 36.669804 26.573006 38,000 334 418 0
2019-01-20 21:16:43 GMT 36.661518 26.577272 38,000 334 418 0
2019-01-20 21:16:37 GMT 36.650902 26.583641 38,000 334 418 0
2019-01-20 21:16:33 GMT 36.644245 26.587908 38,000 334 418 -64
2019-01-20 21:16:30 GMT 36.636566 26.593208 38,000 334 418 0
2019-01-20 21:16:25 GMT 36.625809 26.599560 38,000 334 418 -64
2019-01-20 21:16:22 GMT 36.625809 26.599560 38,000 334 418 -64
2019-01-20 21:16:19 GMT 36.618576 26.603737 38,000 334 418 0
2019-01-20 21:16:12 GMT 36.607590 26.610146 38,000 334 418 -64
2019-01-20 21:16:07 GMT 36.599369 26.615433 38,000 334 418 -128
2019-01-20 21:16:01 GMT 36.588711 26.621801 38,000 334 418 0
2019-01-20 21:15:58 GMT 36.580078 26.627083 38,000 334 418 0
2019-01-20 21:15:53 GMT 36.574036 26.631260 38,000 334 418 0
2019-01-20 21:15:50 GMT 36.569733 26.633434 38,000 334 418 0
2019-01-20 21:15:46 GMT 36.562683 26.637669 38,000 334 418 0
2019-01-20 21:15:40 GMT 36.552200 26.644020 38,000 334 418 -64
2019-01-20 21:15:35 GMT 36.542084 26.650372 38,000 334 418 -64
2019-01-20 21:15:32 GMT 36.536758 26.653534 38,000 334 418 0
2019-01-20 21:15:25 GMT 36.525284 26.660900 38,000 334 417 0
2019-01-20 21:15:19 GMT 36.515484 26.666214 38,000 334 418 -64
2019-01-20 21:15:15 GMT 36.507706 26.671543 38,000 334 417 0
2019-01-20 21:15:11 GMT 36.499832 26.675835 38,000 334 417 0
2019-01-20 21:15:08 GMT 36.497223 26.678009 38,000 334 417 0
2019-01-20 21:15:05 GMT 36.488762 26.683277 38,000 334 417 0
2019-01-20 21:15:01 GMT 36.484154 26.685383 38,000 334 417 0
2019-01-20 21:14:58 GMT 36.478958 26.688538 38,000 334 417 0
2019-01-20 21:14:50 GMT 36.464088 26.698120 38,000 334 417 0
2019-01-20 21:14:47 GMT 36.459759 26.700226 38,000 334 417 0
2019-01-20 21:14:44 GMT 36.451767 26.705475 38,000 334 417 0
2019-01-20 21:14:39 GMT 36.445656 26.708582 38,000 334 417 0
2019-01-20 21:14:35 GMT 36.439926 26.712730 38,000 334 417 0
2019-01-20 21:14:29 GMT 36.427643 26.720181 38,000 334 417 -64
2019-01-20 21:14:25 GMT 36.422516 26.723309 38,000 334 417 0
2019-01-20 21:14:22 GMT 36.416061 26.726532 38,000 334 417 0
2019-01-20 21:14:19 GMT 36.411579 26.729618 38,000 334 417 0
2019-01-20 21:14:15 GMT 36.405434 26.733885 38,000 334 417 0
2019-01-20 21:14:12 GMT 36.396423 26.739120 38,000 334 417 0
2019-01-20 21:14:08 GMT 36.390770 26.742243 38,000 334 417 0
2019-01-20 21:14:05 GMT 36.387184 26.744404 38,000 334 417 0
2019-01-20 21:14:00 GMT 36.378159 26.749706 38,000 334 417 0
2019-01-20 21:13:57 GMT 36.372707 26.752819 38,000 334 417 0
2019-01-20 21:13:54 GMT 36.368271 26.756001 38,000 334 417 0
2019-01-20 21:13:50 GMT 36.358788 26.761234 38,000 334 417 -128
2019-01-20 21:13:46 GMT 36.354401 26.764412 38,000 334 417 -64
2019-01-20 21:13:43 GMT 36.349339 26.767605 38,000 334 417 0
2019-01-20 21:13:40 GMT 36.338722 26.773914 38,000 334 416 64
2019-01-20 21:13:37 GMT 36.338722 26.773914 38,000 334 416 64
2019-01-20 21:13:30 GMT 36.325836 26.781235 38,000 334 417 -64
2019-01-20 21:13:27 GMT 36.320847 26.784492 38,000 334 417 -64
2019-01-20 21:13:22 GMT 36.312881 26.789703 38,000 334 416 -128
2019-01-20 21:13:19 GMT 36.305603 26.793938 38,000 334 416 -64
2019-01-20 21:13:16 GMT 36.294498 26.801323 38,000 334 416 64
2019-01-20 21:13:12 GMT 36.294498 26.801323 38,000 334 416 0
2019-01-20 21:13:05 GMT 36.283047 26.807516 38,000 334 416 -64
2019-01-20 21:13:01 GMT 36.276249 26.811726 38,000 334 416 0
2019-01-20 21:12:58 GMT 36.268570 26.815990 38,000 335 415 0
2019-01-20 21:12:55 GMT 36.265045 26.819115 38,000 335 415 0
2019-01-20 21:12:50 GMT 36.257858 26.823235 38,000 335 415 0
2019-01-20 21:12:47 GMT 36.250717 26.827412 38,000 335 415 64
2019-01-20 21:12:44 GMT 36.244503 26.830542 38,000 335 415 0
2019-01-20 21:12:40 GMT 36.239548 26.833706 38,000 335 415 0
2019-01-20 21:12:36 GMT 36.230953 26.838840 38,000 335 415 -64
2019-01-20 21:12:33 GMT 36.227230 26.841002 38,000 335 415 -64
2019-01-20 21:12:29 GMT 36.221226 26.845152 38,000 335 415 -64
2019-01-20 21:12:26 GMT 36.213684 26.849360 38,000 335 415 -64
2019-01-20 21:12:23 GMT 36.210148 26.851345 38,000 335 415 0
2019-01-20 21:12:19 GMT 36.203026 26.855553 38,000 335 415 0
2019-01-20 21:12:12 GMT 36.191483 26.862888 38,000 335 415 64
2019-01-20 21:12:08 GMT 36.184525 26.867065 38,000 335 415 0
2019-01-20 21:12:05 GMT 36.176304 26.872208 38,000 334 416 0
2019-01-20 21:12:02 GMT 36.173676 26.873245 38,000 334 416 0
2019-01-20 21:11:57 GMT 36.166107 26.878462 38,000 334 416 0
2019-01-20 21:11:51 GMT 36.153534 26.885834 38,000 334 417 -64
2019-01-20 21:11:47 GMT 36.147255 26.888981 38,000 334 417 -64
2019-01-20 21:11:44 GMT 36.140411 26.893129 38,000 334 417 0
2019-01-20 21:11:41 GMT 36.137058 26.895233 38,000 334 417 0
2019-01-20 21:11:36 GMT 36.129044 26.900482 38,000 334 417 0
2019-01-20 21:11:31 GMT 36.119556 26.905693 38,000 334 417 0
2019-01-20 21:11:26 GMT 36.110916 26.910896 38,000 334 417 0
2019-01-20 21:11:20 GMT 36.100525 26.917248 38,000 334 417 0
2019-01-20 21:11:15 GMT 36.092930 26.922464 38,000 334 417 0
2019-01-20 21:11:10 GMT 36.082825 26.928776 38,000 334 417 -64
2019-01-20 21:11:05 GMT 36.074306 26.932924 38,000 334 417 0
2019-01-20 21:10:59 GMT 36.064484 26.939178 38,000 334 417 0
2019-01-20 21:10:53 GMT 36.054893 26.945490 38,000 335 418 0
2019-01-20 21:10:49 GMT 36.046608 26.949755 38,000 335 417 -64
2019-01-20 21:10:44 GMT 36.037582 26.954956 38,000 335 417 0
2019-01-20 21:10:38 GMT 36.028656 26.961193 38,000 335 417 -64
2019-01-20 21:10:28 GMT 36.009647 26.972546 38,000 335 416 0
2019-01-20 21:10:17 GMT 35.990524 26.984081 38,000 334 417 0
2019-01-20 21:10:05 GMT 35.970821 26.995455 38,000 334 417 0
2019-01-20 21:09:56 GMT 35.954865 27.004910 38,000 335 418 -64
2019-01-20 21:09:46 GMT 35.936737 27.015381 38,000 335 418 64
2019-01-20 21:09:35 GMT 35.918777 27.026834 38,000 334 418 64
2019-01-20 21:09:29 GMT 35.908257 27.033089 38,000 334 419 0
2019-01-20 21:09:25 GMT 35.900482 27.037294 38,000 334 419 -64
2019-01-20 21:09:18 GMT 35.888947 27.044563 38,000 335 419 -64
2019-01-20 21:09:14 GMT 35.882080 27.048740 38,000 335 419 -64
2019-01-20 21:09:08 GMT 35.871094 27.054977 38,000 335 419 -64
2019-01-20 21:09:04 GMT 35.863770 27.059155 38,000 335 419 -64
2019-01-20 21:08:58 GMT 35.852810 27.066572 38,000 335 418 64
2019-01-20 21:08:53 GMT 35.845268 27.070663 38,000 335 418 64
2019-01-20 21:08:47 GMT 35.834564 27.076916 38,000 335 418 64
2019-01-20 21:08:43 GMT 35.826927 27.081064 38,000 335 417 128
2019-01-20 21:08:36 GMT 35.815521 27.088394 38,000 335 418 64
2019-01-20 21:08:31 GMT 35.806816 27.093571 38,000 335 418 -64
2019-01-20 21:08:26 GMT 35.797623 27.098694 38,000 335 418 -128
2019-01-20 21:08:22 GMT 35.790848 27.102871 38,000 335 418 -64
2019-01-20 21:08:15 GMT 35.778328 27.110109 38,000 335 418 0
2019-01-20 21:08:11 GMT 35.771671 27.114199 38,000 335 418 128
2019-01-20 21:08:04 GMT 35.760132 27.121410 38,000 335 418 0
2019-01-20 21:08:01 GMT 35.754211 27.124483 38,000 335 418 0
2019-01-20 21:07:54 GMT 35.741547 27.131710 38,000 335 418 0
2019-01-20 21:07:51 GMT 35.734451 27.135773 38,000 335 418 -64
2019-01-20 21:07:43 GMT 35.723305 27.143068 38,000 335 416 -128
2019-01-20 21:07:40 GMT 35.716042 27.147100 38,000 335 416 -192
2019-01-20 21:07:33 GMT 35.705055 27.153294 38,025 335 415 -128
2019-01-20 21:07:29 GMT 35.696503 27.158375 38,025 334 415 64
2019-01-20 21:07:22 GMT 35.685974 27.164612 38,000 334 415 128
2019-01-20 21:07:18 GMT 35.679291 27.168789 38,000 334 415 64
2019-01-20 21:07:11 GMT 35.667908 27.176027 38,000 334 415 -64
2019-01-20 21:07:08 GMT 35.660038 27.180117 38,000 334 414 -64
2019-01-20 21:07:01 GMT 35.649937 27.186428 38,025 334 415 -64
2019-01-20 21:06:57 GMT 35.641205 27.191505 38,025 334 414 64
2019-01-20 21:06:50 GMT 35.631821 27.197742 38,000 334 415 128
2019-01-20 21:06:47 GMT 35.624798 27.200804 38,000 334 415 128
2019-01-20 21:06:44 GMT 35.621155 27.203922 38,000 334 415 128
2019-01-20 21:06:40 GMT 35.613235 27.208042 37,975 335 415 128
2019-01-20 21:06:36 GMT 35.605526 27.213251 37,975 335 416 128
2019-01-20 21:06:29 GMT 35.594212 27.219503 37,975 334 417 0
2019-01-20 21:06:25 GMT 35.588020 27.223595 37,975 335 418 0
2019-01-20 21:06:19 GMT 35.576431 27.230930 37,975 335 418 320
2019-01-20 21:06:16 GMT 35.569633 27.233997 37,950 335 418 384
2019-01-20 21:06:08 GMT 35.557983 27.241230 37,900 335 418 448
2019-01-20 21:06:05 GMT 35.550385 27.245350 37,875 335 419 512
2019-01-20 21:05:57 GMT 35.539001 27.252522 37,825 335 418 384
2019-01-20 21:05:53 GMT 35.531136 27.256729 37,800 335 418 256
2019-01-20 21:05:46 GMT 35.520309 27.263889 37,775 335 418 192
2019-01-20 21:05:43 GMT 35.512344 27.268066 37,750 335 417 192
2019-01-20 21:05:36 GMT 35.502274 27.274246 37,750 335 416 256
2019-01-20 21:05:32 GMT 35.494080 27.279404 37,725 335 416 256
2019-01-20 21:05:26 GMT 35.484055 27.284603 37,700 335 415 512
2019-01-20 21:05:23 GMT 35.476204 27.289688 37,650 335 415 640
2019-01-20 21:05:15 GMT 35.465729 27.295883 37,600 335 414 64
2019-01-20 21:05:11 GMT 35.458698 27.300032 37,600 335 414 192
2019-01-20 21:05:04 GMT 35.446701 27.307148 37,525 335 414 1024
2019-01-20 21:04:58 GMT 35.434727 27.314348 37,400 335 415 768
2019-01-20 21:04:54 GMT 35.428757 27.317390 37,350 335 415 832
2019-01-20 21:04:51 GMT 35.422806 27.321453 37,300 335 415 1152
2019-01-20 21:04:43 GMT 35.410240 27.328550 37,175 335 417 1088
2019-01-20 21:04:39 GMT 35.402527 27.333698 37,100 335 418 1088
2019-01-20 21:04:30 GMT 35.385471 27.342983 36,875 335 420 1344
2019-01-20 21:04:22 GMT 35.373367 27.350178 36,725 335 421 1216
2019-01-20 21:04:16 GMT 35.363342 27.356300 36,625 335 422 1216
2019-01-20 21:04:11 GMT 35.354328 27.361509 36,525 335 423 1216
2019-01-20 21:04:07 GMT 35.345718 27.366714 36,425 335 424 1216
2019-01-20 21:04:01 GMT 35.335941 27.371853 36,325 335 424 1216
2019-01-20 21:03:58 GMT 35.327774 27.377129 36,225 335 425 1088
2019-01-20 21:03:50 GMT 35.316559 27.383308 36,125 335 426 896
2019-01-20 21:03:46 GMT 35.308289 27.388565 36,075 335 425 384
2019-01-20 21:03:40 GMT 35.298328 27.393883 36,050 335 424 64
2019-01-20 21:03:37 GMT 35.291019 27.398968 36,025 335 421 128
2019-01-20 21:03:29 GMT 35.279240 27.405220 36,025 335 419 0
2019-01-20 21:03:26 GMT 35.272678 27.409311 36,025 335 418 0
2019-01-20 21:03:17 GMT 35.258991 27.417551 36,000 335 417 0
2019-01-20 21:03:13 GMT 35.251076 27.421640 36,000 335 417 0
2019-01-20 21:03:08 GMT 35.242538 27.426853 36,000 335 417 64
2019-01-20 21:03:05 GMT 35.235489 27.430916 36,000 335 416 0
2019-01-20 21:02:57 GMT 35.224075 27.438068 36,000 335 415 0
2019-01-20 21:02:52 GMT 35.214661 27.443232 36,000 335 414 0
2019-01-20 21:02:47 GMT 35.206108 27.448254 36,000 335 414 0
2019-01-20 21:02:36 GMT 35.187561 27.459486 36,000 335 412 0
2019-01-20 21:02:25 GMT 35.169422 27.470512 36,000 335 410 -64
2019-01-20 21:02:15 GMT 35.150848 27.480583 36,000 335 411 0
2019-01-20 21:02:04 GMT 35.132309 27.491491 36,000 335 409 -64
2019-01-20 21:01:59 GMT 35.123802 27.496433 36,000 335 409 0
2019-01-20 21:01:53 GMT 35.114445 27.502499 36,000 335 409 0
2019-01-20 21:01:50 GMT 35.106487 27.506447 36,000 335 409 0
2019-01-20 21:01:43 GMT 35.096569 27.512341 36,000 335 409 -64
2019-01-20 21:01:32 GMT 35.078201 27.523386 36,000 335 408 0
2019-01-20 21:01:25 GMT 35.064194 27.531345 36,000 335 407 0
2019-01-20 21:01:22 GMT 35.060623 27.533363 36,000 335 407 0
2019-01-20 21:01:18 GMT 35.053528 27.537344 36,000 335 407 0
2019-01-20 21:01:13 GMT 35.044739 27.543341 36,000 335 407 0
2019-01-20 21:01:09 GMT 35.035400 27.548275 36,000 335 407 0
2019-01-20 21:01:01 GMT 35.024506 27.554169 36,000 335 407 0
2019-01-20 21:00:50 GMT 35.005737 27.565035 36,000 335 406 0
2019-01-20 21:00:39 GMT 34.987919 27.575912 36,000 335 406 64
2019-01-20 21:00:29 GMT 34.970039 27.585812 36,000 335 406 0
2019-01-20 21:00:18 GMT 34.952042 27.596703 36,000 335 406 0
2019-01-20 21:00:09 GMT 34.937550 27.605610 36,000 335 404 -64
2019-01-20 20:59:59 GMT 34.920368 27.615509 36,000 335 404 -64
2019-01-20 20:59:49 GMT 34.902775 27.625408 36,000 335 404 0
2019-01-20 20:59:38 GMT 34.884979 27.636333 36,000 335 404 -64
2019-01-20 20:59:28 GMT 34.867264 27.646141 36,000 335 403 0
2019-01-20 20:59:17 GMT 34.848213 27.656994 36,000 335 404 0
2019-01-20 20:59:07 GMT 34.831223 27.666779 36,000 335 404 -64
2019-01-20 20:58:55 GMT 34.811996 27.678509 36,000 335 403 64
2019-01-20 20:58:45 GMT 34.795193 27.688236 36,000 335 403 0
2019-01-20 20:58:35 GMT 34.777596 27.698021 36,000 335 402 0
2019-01-20 20:58:24 GMT 34.759140 27.708754 36,000 335 401 0
2019-01-20 20:58:14 GMT 34.742203 27.718451 36,000 335 402 -64
2019-01-20 20:58:04 GMT 34.724991 27.729206 36,000 335 402 0
2019-01-20 20:57:53 GMT 34.706696 27.738876 36,000 335 402 0
2019-01-20 20:57:42 GMT 34.689468 27.749615 36,000 335 403 0
2019-01-20 20:57:32 GMT 34.671616 27.759369 36,000 335 403 0
2019-01-20 20:57:21 GMT 34.654045 27.770061 36,000 335 403 -64
2019-01-20 20:57:11 GMT 34.636726 27.779789 36,000 335 403 0
2019-01-20 20:57:00 GMT 34.618286 27.790478 36,000 335 403 0
2019-01-20 20:56:50 GMT 34.601349 27.800232 36,000 335 403 -64
2019-01-20 20:56:40 GMT 34.583771 27.809929 36,000 335 402 -64
2019-01-20 20:56:29 GMT 34.566200 27.820702 36,000 335 401 -64
2019-01-20 20:56:19 GMT 34.548744 27.830372 36,000 335 400 0
2019-01-20 20:56:07 GMT 34.529564 27.841930 36,000 335 400 0
2019-01-20 20:55:58 GMT 34.513092 27.850622 36,000 335 399 -64
2019-01-20 20:55:47 GMT 34.494743 27.861271 36,000 335 399 0
2019-01-20 20:55:35 GMT 34.475887 27.872829 36,000 335 399 0
2019-01-20 20:55:24 GMT 34.457428 27.883413 36,000 335 399 0
2019-01-20 20:55:14 GMT 34.439301 27.893110 36,000 335 399 64
2019-01-20 20:55:03 GMT 34.421238 27.903671 36,000 335 400 -64
2019-01-20 20:54:52 GMT 34.402908 27.914297 36,000 335 401 -64
2019-01-20 20:54:41 GMT 34.384556 27.924900 36,000 335 401 0
2019-01-20 20:54:30 GMT 34.366104 27.935541 36,000 335 401 0
2019-01-20 20:54:18 GMT 34.346649 27.947033 36,000 335 402 0
2019-01-20 20:54:09 GMT 34.329994 27.955685 36,000 335 402 0
2019-01-20 20:53:58 GMT 34.311813 27.966314 36,000 335 402 -64
2019-01-20 20:53:47 GMT 34.293777 27.976913 36,000 335 402 0
2019-01-20 20:53:36 GMT 34.275467 27.987503 36,000 335 402 0
2019-01-20 20:53:27 GMT 34.258987 27.997087 36,000 335 402 -64
2019-01-20 20:53:15 GMT 34.239635 28.007641 36,000 335 402 0
2019-01-20 20:53:05 GMT 34.222923 28.017311 36,000 335 401 -64
2019-01-20 20:52:54 GMT 34.204056 28.027918 36,000 335 401 0
2019-01-20 20:52:44 GMT 34.187393 28.037502 36,000 335 401 64
2019-01-20 20:52:33 GMT 34.169529 28.048096 36,000 335 401 0
2019-01-20 20:52:23 GMT 34.151932 28.057652 36,000 335 402 0
2019-01-20 20:52:13 GMT 34.135078 28.067207 36,000 335 401 -64
2019-01-20 20:52:02 GMT 34.116806 28.077860 36,000 335 402 0
2019-01-20 20:51:52 GMT 34.099869 28.087444 36,000 335 401 0
2019-01-20 20:51:41 GMT 34.081871 28.098049 36,000 335 402 -64
2019-01-20 20:51:31 GMT 34.064415 28.107662 36,000 335 401 0
2019-01-20 20:51:21 GMT 34.046955 28.117218 36,000 335 403 0
2019-01-20 20:51:10 GMT 34.029419 28.127804 36,000 335 403 -64
2019-01-20 20:50:59 GMT 34.010971 28.138390 36,000 335 403 -64
2019-01-20 20:50:49 GMT 33.992771 28.148060 36,000 335 404 -64
2019-01-20 20:50:39 GMT 33.976196 28.157616 36,000 335 404 0
2019-01-20 20:50:28 GMT 33.958374 28.168104 36,000 336 404 -64
2019-01-20 20:50:18 GMT 33.940338 28.177633 36,000 335 405 -64
2019-01-20 20:50:06 GMT 33.919739 28.189123 36,000 335 405 0
2019-01-20 20:49:57 GMT 33.904552 28.197670 36,000 336 405 -64
2019-01-20 20:49:45 GMT 33.884861 28.209801 36,000 331 399 0
2019-01-20 20:49:35 GMT 33.869686 28.220673 36,000 331 398 0
2019-01-20 20:49:25 GMT 33.853065 28.231602 36,000 331 399 -64
2019-01-20 20:49:15 GMT 33.836403 28.242188 36,000 334 403 0
2019-01-20 20:49:04 GMT 33.818344 28.252464 36,000 339 412 64
2019-01-20 20:48:54 GMT 33.799118 28.260143 36,000 344 422 -64
2019-01-20 20:48:43 GMT 33.777233 28.266392 36,000 350 435 64
2019-01-20 20:48:33 GMT 33.757050 28.270121 36,000 355 444 0
2019-01-20 20:48:22 GMT 33.735489 28.271914 36,000 357 448 -64
2019-01-20 20:48:12 GMT 33.713882 28.273596 36,000 357 449 0
2019-01-20 20:48:01 GMT 33.691204 28.275490 36,000 357 449 0
2019-01-20 20:47:51 GMT 33.670258 28.277206 36,000 357 450 0
2019-01-20 20:47:41 GMT 33.649586 28.278866 36,000 357 450 0
2019-01-20 20:47:30 GMT 33.627274 28.280659 36,000 357 451 0
2019-01-20 20:47:19 GMT 33.604244 28.282471 36,000 357 451 0
2019-01-20 20:47:07 GMT 33.579247 28.284416 36,000 357 452 64
2019-01-20 20:46:59 GMT 33.562206 28.285789 36,000 357 452 -64
2019-01-20 20:46:48 GMT 33.539154 28.287598 36,000 357 452 -64
2019-01-20 20:46:38 GMT 33.518051 28.289301 36,000 357 453 0
2019-01-20 20:46:27 GMT 33.495731 28.291197 36,000 357 454 -64
2019-01-20 20:46:17 GMT 33.474411 28.292990 36,000 357 455 -128
2019-01-20 20:46:07 GMT 33.452671 28.294727 36,000 357 455 64
2019-01-20 20:45:56 GMT 33.430756 28.296553 36,000 357 455 -64
2019-01-20 20:45:46 GMT 33.408325 28.298254 36,000 357 455 -64
2019-01-20 20:45:36 GMT 33.386856 28.299957 36,000 357 455 0
2019-01-20 20:45:25 GMT 33.364735 28.301846 36,000 357 455 0
2019-01-20 20:45:12 GMT 33.336594 28.304022 36,000 357 456 0
2019-01-20 20:45:03 GMT 33.318413 28.305490 36,000 357 456 -64
2019-01-20 20:44:54 GMT 33.299011 28.306990 36,000 357 456 0
2019-01-20 20:44:43 GMT 33.276844 28.308853 36,000 357 457 0
2019-01-20 20:44:32 GMT 33.252548 28.310724 36,000 357 457 -64
2019-01-20 20:44:22 GMT 33.231033 28.312428 36,000 357 456 0
2019-01-20 20:44:11 GMT 33.209156 28.314289 36,000 357 457 0
2019-01-20 20:44:00 GMT 33.185852 28.316162 36,000 357 456 0
2019-01-20 20:43:51 GMT 33.165817 28.317654 36,000 357 456 0
2019-01-20 20:43:36 GMT 33.134171 28.320171 36,000 357 457 64
2019-01-20 20:43:30 GMT 33.121490 28.321161 36,000 357 457 64
2019-01-20 20:43:13 GMT 33.086025 28.323986 36,000 357 458 64
2019-01-20 20:43:09 GMT 33.077320 28.324604 36,000 357 458 0
2019-01-20 20:42:54 GMT 33.045685 28.327093 36,000 357 459 0
2019-01-20 20:42:49 GMT 33.033562 28.327854 36,000 357 460 -64
2019-01-20 20:42:37 GMT 33.009308 28.329760 36,000 357 460 0
2019-01-20 20:42:27 GMT 32.987148 28.331442 36,000 357 460 -64
2019-01-20 20:42:16 GMT 32.963036 28.333572 36,000 356 460 -64
2019-01-20 20:42:04 GMT 32.939026 28.335663 36,000 356 459 -64
2019-01-20 20:41:54 GMT 32.916687 28.337530 36,000 356 459 0
2019-01-20 20:41:33 GMT 32.871838 28.341644 36,000 356 458 64
2019-01-20 20:41:23 GMT 32.850845 28.343607 36,000 356 458 -64
2019-01-20 20:41:11 GMT 32.826775 28.345903 36,000 356 458 64
2019-01-20 20:41:02 GMT 32.806824 28.347637 36,000 356 458 64
2019-01-20 20:40:36 GMT 32.751297 28.352692 36,000 356 457 -64
2019-01-20 20:40:30 GMT 32.740128 28.353901 36,000 356 457 -64
2019-01-20 20:40:02 GMT 32.680344 28.359283 36,000 356 457 0
2019-01-20 20:39:59 GMT 32.673664 28.359861 36,000 356 457 64
2019-01-20 20:39:39 GMT 32.630836 28.363672 36,000 356 457 0
2019-01-20 20:39:36 GMT 32.625687 28.364283 36,000 356 458 -64
2019-01-20 20:39:28 GMT 32.607651 28.365820 36,000 356 457 -64
2019-01-20 20:39:04 GMT 32.557617 28.370436 36,000 356 458 -64
2019-01-20 20:38:56 GMT 32.539551 28.371912 36,000 356 458 -64
2019-01-20 20:38:45 GMT 32.518227 28.373985 36,000 356 458 0
2019-01-20 20:38:19 GMT 32.462692 28.378862 36,000 356 458 0
2019-01-20 20:38:14 GMT 32.451370 28.379772 36,000 356 459 0
2019-01-20 20:38:04 GMT 32.430038 28.381641 36,000 356 458 -64
2019-01-20 20:37:54 GMT 32.408432 28.383453 36,000 356 458 0
2019-01-20 20:37:26 GMT 32.349426 28.388672 36,000 356 455 0
2019-01-20 20:37:21 GMT 32.339142 28.389626 36,000 356 455 0
2019-01-20 20:37:12 GMT 32.319992 28.391363 36,000 356 454 0
2019-01-20 20:36:56 GMT 32.286255 28.394384 36,000 356 454 0
2019-01-20 20:36:51 GMT 32.275692 28.395397 36,000 356 453 -64
2019-01-20 20:36:39 GMT 32.252415 28.397808 36,000 356 452 0
2019-01-20 20:36:09 GMT 32.188454 28.404142 36,000 356 449 0
2019-01-20 20:35:58 GMT 32.165909 28.406361 36,000 356 451 0
2019-01-20 20:35:48 GMT 32.145584 28.408117 36,000 357 451 -64
2019-01-20 20:35:38 GMT 32.123840 28.409491 36,000 358 454 0
2019-01-20 20:35:26 GMT 32.099396 28.410864 36,000 358 453 -64
2019-01-20 20:34:40 GMT 32.001755 28.416138 36,000 358 453 0
2019-01-20 20:34:35 GMT 31.991350 28.416698 36,000 358 453 0
2019-01-20 20:34:24 GMT 31.968430 28.417896 36,000 358 454 0
2019-01-20 20:34:13 GMT 31.946659 28.419107 36,000 358 454 -64
2019-01-20 20:34:02 GMT 31.923523 28.420258 36,000 358 455 0

Making use of Plane Finder data

You are free to use the raw flight data, aircraft information and images provided in this report for your own purposes provided the data is correctly attributed to Plane Finder. We ask that you please credit Plane Finder and link to planefinder.net in close proximity to the content.

Optionally one of the following logos (no smaller then 150x24px) can be used and must link to planefinder.net

Embedding the Plane Finder map

You are welcome to embed the Plane Finder playback map on your website to offer visitors a more interactive experience. We suggest using the following HTML code:

<iframe src="//planefinder.net/data/report/HV584-PH-HZG-7700-squawk-2019-01-20/map" width="800" height="600" seamless="seamless"></iframe>

Where our data comes from

Plane Finder has a global network of data feeds and antenna radars that receive data broadcast directly from aircraft. The primary technologies used are ADS-B and MLAT. We also show feeds from the FAA and a FLARM glider feed.

Click here to find out more about the Plane Finder network.

How we collect our data